<?xml version="1.0" encoding="UTF-8"?>
<gpx version="1.1" creator="https://www.youtrack.es" xsi:schemaLocation="http://www.topografix.com/GPX/1/1 http://www.topografix.com/GPX/1/1/gpx.xsd http://www.garmin.com/xmlschemas/GpxExtensions/v3 http://www.garmin.com/xmlschemas/GpxExtensionsv3.xsd http://www.garmin.com/xmlschemas/TrackPointExtension/v1 http://www.garmin.com/xmlschemas/TrackPointExtensionv1.xsd" xmlns:gpxtpx="http://www.garmin.com/xmlschemas/TrackPointExtension/v1" xmlns:gpxx="http://www.garmin.com/xmlschemas/GpxExtensions/v3" xmlns:xsi="http://www.w3.org/2001/XMLSchema-instance">
  <metadata>
    <link href="https://www.youtrack.es">
      <text>YouTrack.es</text>
    </link>
    <time>2026-05-08T22:35:48Z</time>
  </metadata>
  <trk>
    <src>https://www.youtrack.es</src>
    <link href="https://www.youtrack.es/ruta/2485-nuria">
      <text>YouTrack.es</text>
    </link>
    <trkseg>
      <trkpt lat="42.397311" lon="2.154608">
        <ele>1959.29</ele>
        <time>2016-05-28T11:09:08Z</time>
      </trkpt>
      <trkpt lat="42.397389" lon="2.154640">
        <ele>1960.33</ele>
        <time>2016-05-28T11:09:19Z</time>
      </trkpt>
      <trkpt lat="42.397480" lon="2.154823">
        <ele>1958.30</ele>
        <time>2016-05-28T11:09:36Z</time>
      </trkpt>
      <trkpt lat="42.397349" lon="2.154874">
        <ele>1958.90</ele>
        <time>2016-05-28T11:09:48Z</time>
      </trkpt>
      <trkpt lat="42.397303" lon="2.154902">
        <ele>1959.71</ele>
        <time>2016-05-28T11:09:52Z</time>
      </trkpt>
      <trkpt lat="42.397222" lon="2.154990">
        <ele>1961.71</ele>
        <time>2016-05-28T11:10:05Z</time>
      </trkpt>
      <trkpt lat="42.397185" lon="2.155044">
        <ele>1964.28</ele>
        <time>2016-05-28T11:10:14Z</time>
      </trkpt>
      <trkpt lat="42.397291" lon="2.155108">
        <ele>1967.86</ele>
        <time>2016-05-28T11:10:29Z</time>
      </trkpt>
      <trkpt lat="42.397346" lon="2.155142">
        <ele>1969.16</ele>
        <time>2016-05-28T11:10:35Z</time>
      </trkpt>
      <trkpt lat="42.397313" lon="2.155199">
        <ele>1968.52</ele>
        <time>2016-05-28T11:10:41Z</time>
      </trkpt>
      <trkpt lat="42.397149" lon="2.155385">
        <ele>1972.88</ele>
        <time>2016-05-28T11:10:59Z</time>
      </trkpt>
      <trkpt lat="42.396946" lon="2.155563">
        <ele>1976.55</ele>
        <time>2016-05-28T11:11:20Z</time>
      </trkpt>
      <trkpt lat="42.396785" lon="2.155654">
        <ele>1979.16</ele>
        <time>2016-05-28T11:11:35Z</time>
      </trkpt>
      <trkpt lat="42.396603" lon="2.155710">
        <ele>1981.70</ele>
        <time>2016-05-28T11:11:53Z</time>
      </trkpt>
      <trkpt lat="42.396393" lon="2.155741">
        <ele>1986.68</ele>
        <time>2016-05-28T11:12:12Z</time>
      </trkpt>
      <trkpt lat="42.396193" lon="2.155786">
        <ele>1991.35</ele>
        <time>2016-05-28T11:12:30Z</time>
      </trkpt>
      <trkpt lat="42.396041" lon="2.155862">
        <ele>1994.51</ele>
        <time>2016-05-28T11:12:45Z</time>
      </trkpt>
      <trkpt lat="42.395971" lon="2.155905">
        <ele>1998.11</ele>
        <time>2016-05-28T11:12:53Z</time>
      </trkpt>
      <trkpt lat="42.395883" lon="2.155949">
        <ele>2001.39</ele>
        <time>2016-05-28T11:13:03Z</time>
      </trkpt>
      <trkpt lat="42.395781" lon="2.156020">
        <ele>2005.03</ele>
        <time>2016-05-28T11:13:18Z</time>
      </trkpt>
      <trkpt lat="42.395641" lon="2.156079">
        <ele>2010.44</ele>
        <time>2016-05-28T11:13:33Z</time>
      </trkpt>
      <trkpt lat="42.395523" lon="2.156145">
        <ele>2015.98</ele>
        <time>2016-05-28T11:13:46Z</time>
      </trkpt>
      <trkpt lat="42.395399" lon="2.156202">
        <ele>2020.93</ele>
        <time>2016-05-28T11:13:59Z</time>
      </trkpt>
      <trkpt lat="42.395238" lon="2.156266">
        <ele>2025.64</ele>
        <time>2016-05-28T11:14:15Z</time>
      </trkpt>
      <trkpt lat="42.395165" lon="2.156293">
        <ele>2027.73</ele>
        <time>2016-05-28T11:14:22Z</time>
      </trkpt>
      <trkpt lat="42.395093" lon="2.156360">
        <ele>2030.79</ele>
        <time>2016-05-28T11:14:32Z</time>
      </trkpt>
      <trkpt lat="42.395053" lon="2.156361">
        <ele>2031.64</ele>
        <time>2016-05-28T11:14:37Z</time>
      </trkpt>
      <trkpt lat="42.395026" lon="2.156372">
        <ele>2032.82</ele>
        <time>2016-05-28T11:14:51Z</time>
      </trkpt>
      <trkpt lat="42.394911" lon="2.156443">
        <ele>2035.41</ele>
        <time>2016-05-28T11:15:02Z</time>
      </trkpt>
      <trkpt lat="42.394771" lon="2.156542">
        <ele>2037.92</ele>
        <time>2016-05-28T11:15:16Z</time>
      </trkpt>
      <trkpt lat="42.394716" lon="2.156604">
        <ele>2038.80</ele>
        <time>2016-05-28T11:15:25Z</time>
      </trkpt>
      <trkpt lat="42.394687" lon="2.156623">
        <ele>2039.13</ele>
        <time>2016-05-28T11:15:28Z</time>
      </trkpt>
      <trkpt lat="42.394526" lon="2.156701">
        <ele>2043.07</ele>
        <time>2016-05-28T11:15:43Z</time>
      </trkpt>
      <trkpt lat="42.394401" lon="2.156760">
        <ele>2047.81</ele>
        <time>2016-05-28T11:15:55Z</time>
      </trkpt>
      <trkpt lat="42.394355" lon="2.156787">
        <ele>2049.35</ele>
        <time>2016-05-28T11:15:59Z</time>
      </trkpt>
      <trkpt lat="42.394240" lon="2.156849">
        <ele>2053.05</ele>
        <time>2016-05-28T11:16:09Z</time>
      </trkpt>
      <trkpt lat="42.394112" lon="2.156905">
        <ele>2058.87</ele>
        <time>2016-05-28T11:16:22Z</time>
      </trkpt>
      <trkpt lat="42.393987" lon="2.156948">
        <ele>2066.69</ele>
        <time>2016-05-28T11:16:34Z</time>
      </trkpt>
      <trkpt lat="42.393942" lon="2.156969">
        <ele>2069.77</ele>
        <time>2016-05-28T11:16:38Z</time>
      </trkpt>
      <trkpt lat="42.393821" lon="2.157013">
        <ele>2074.78</ele>
        <time>2016-05-28T11:16:49Z</time>
      </trkpt>
      <trkpt lat="42.393757" lon="2.157015">
        <ele>2075.31</ele>
        <time>2016-05-28T11:16:53Z</time>
      </trkpt>
      <trkpt lat="42.393715" lon="2.157036">
        <ele>2077.13</ele>
        <time>2016-05-28T11:17:07Z</time>
      </trkpt>
      <trkpt lat="42.393661" lon="2.157076">
        <ele>2078.41</ele>
        <time>2016-05-28T11:17:12Z</time>
      </trkpt>
      <trkpt lat="42.393603" lon="2.157112">
        <ele>2079.98</ele>
        <time>2016-05-28T11:17:17Z</time>
      </trkpt>
      <trkpt lat="42.393568" lon="2.157150">
        <ele>2081.32</ele>
        <time>2016-05-28T11:17:21Z</time>
      </trkpt>
      <trkpt lat="42.393471" lon="2.157237">
        <ele>2084.30</ele>
        <time>2016-05-28T11:17:31Z</time>
      </trkpt>
      <trkpt lat="42.393379" lon="2.157345">
        <ele>2086.84</ele>
        <time>2016-05-28T11:17:44Z</time>
      </trkpt>
      <trkpt lat="42.393346" lon="2.157379">
        <ele>2088.10</ele>
        <time>2016-05-28T11:17:53Z</time>
      </trkpt>
      <trkpt lat="42.393325" lon="2.157402">
        <ele>2089.29</ele>
        <time>2016-05-28T11:17:57Z</time>
      </trkpt>
      <trkpt lat="42.393250" lon="2.157458">
        <ele>2093.85</ele>
        <time>2016-05-28T11:18:10Z</time>
      </trkpt>
      <trkpt lat="42.393167" lon="2.157557">
        <ele>2095.39</ele>
        <time>2016-05-28T11:18:19Z</time>
      </trkpt>
      <trkpt lat="42.393103" lon="2.157766">
        <ele>2096.19</ele>
        <time>2016-05-28T11:18:32Z</time>
      </trkpt>
      <trkpt lat="42.393041" lon="2.157958">
        <ele>2097.91</ele>
        <time>2016-05-28T11:18:46Z</time>
      </trkpt>
      <trkpt lat="42.392972" lon="2.158087">
        <ele>2099.93</ele>
        <time>2016-05-28T11:18:56Z</time>
      </trkpt>
      <trkpt lat="42.392884" lon="2.158285">
        <ele>2102.91</ele>
        <time>2016-05-28T11:19:12Z</time>
      </trkpt>
      <trkpt lat="42.392799" lon="2.158415">
        <ele>2105.69</ele>
        <time>2016-05-28T11:19:25Z</time>
      </trkpt>
      <trkpt lat="42.392706" lon="2.158523">
        <ele>2109.82</ele>
        <time>2016-05-28T11:19:38Z</time>
      </trkpt>
      <trkpt lat="42.392615" lon="2.158611">
        <ele>2112.72</ele>
        <time>2016-05-28T11:19:48Z</time>
      </trkpt>
      <trkpt lat="42.392569" lon="2.158653">
        <ele>2113.74</ele>
        <time>2016-05-28T11:19:53Z</time>
      </trkpt>
      <trkpt lat="42.392521" lon="2.158724">
        <ele>2115.04</ele>
        <time>2016-05-28T11:19:59Z</time>
      </trkpt>
      <trkpt lat="42.392377" lon="2.158862">
        <ele>2119.00</ele>
        <time>2016-05-28T11:20:14Z</time>
      </trkpt>
      <trkpt lat="42.392361" lon="2.158875">
        <ele>2119.55</ele>
        <time>2016-05-28T11:20:16Z</time>
      </trkpt>
      <trkpt lat="42.392259" lon="2.158988">
        <ele>2121.32</ele>
        <time>2016-05-28T11:20:27Z</time>
      </trkpt>
      <trkpt lat="42.392193" lon="2.159094">
        <ele>2122.40</ele>
        <time>2016-05-28T11:20:37Z</time>
      </trkpt>
      <trkpt lat="42.392114" lon="2.159263">
        <ele>2122.91</ele>
        <time>2016-05-28T11:20:49Z</time>
      </trkpt>
      <trkpt lat="42.392072" lon="2.159299">
        <ele>2123.32</ele>
        <time>2016-05-28T11:20:55Z</time>
      </trkpt>
      <trkpt lat="42.392004" lon="2.159313">
        <ele>2124.01</ele>
        <time>2016-05-28T11:21:00Z</time>
      </trkpt>
      <trkpt lat="42.391895" lon="2.159322">
        <ele>2124.48</ele>
        <time>2016-05-28T11:21:09Z</time>
      </trkpt>
      <trkpt lat="42.391771" lon="2.159456">
        <ele>2122.40</ele>
        <time>2016-05-28T11:21:22Z</time>
      </trkpt>
      <trkpt lat="42.391716" lon="2.159531">
        <ele>2121.99</ele>
        <time>2016-05-28T11:21:29Z</time>
      </trkpt>
      <trkpt lat="42.391584" lon="2.159663">
        <ele>2124.41</ele>
        <time>2016-05-28T11:21:42Z</time>
      </trkpt>
      <trkpt lat="42.391464" lon="2.159889">
        <ele>2125.07</ele>
        <time>2016-05-28T11:21:58Z</time>
      </trkpt>
      <trkpt lat="42.391422" lon="2.159972">
        <ele>2125.38</ele>
        <time>2016-05-28T11:22:07Z</time>
      </trkpt>
      <trkpt lat="42.391370" lon="2.160106">
        <ele>2126.39</ele>
        <time>2016-05-28T11:22:27Z</time>
      </trkpt>
      <trkpt lat="42.391422" lon="2.160235">
        <ele>2126.13</ele>
        <time>2016-05-28T11:22:42Z</time>
      </trkpt>
      <trkpt lat="42.391427" lon="2.160241">
        <ele>2126.39</ele>
        <time>2016-05-28T11:22:43Z</time>
      </trkpt>
      <trkpt lat="42.391548" lon="2.160405">
        <ele>2125.31</ele>
        <time>2016-05-28T11:22:56Z</time>
      </trkpt>
      <trkpt lat="42.391647" lon="2.160605">
        <ele>2126.92</ele>
        <time>2016-05-28T11:23:11Z</time>
      </trkpt>
      <trkpt lat="42.391695" lon="2.160639">
        <ele>2128.69</ele>
        <time>2016-05-28T11:23:15Z</time>
      </trkpt>
      <trkpt lat="42.391763" lon="2.160585">
        <ele>2130.82</ele>
        <time>2016-05-28T11:23:23Z</time>
      </trkpt>
      <trkpt lat="42.391802" lon="2.160565">
        <ele>2130.84</ele>
        <time>2016-05-28T11:23:38Z</time>
      </trkpt>
      <trkpt lat="42.391885" lon="2.160623">
        <ele>2132.39</ele>
        <time>2016-05-28T11:23:49Z</time>
      </trkpt>
      <trkpt lat="42.391918" lon="2.160679">
        <ele>2133.85</ele>
        <time>2016-05-28T11:24:01Z</time>
      </trkpt>
      <trkpt lat="42.391947" lon="2.160663">
        <ele>2136.35</ele>
        <time>2016-05-28T11:24:12Z</time>
      </trkpt>
      <trkpt lat="42.392012" lon="2.160692">
        <ele>2139.64</ele>
        <time>2016-05-28T11:24:24Z</time>
      </trkpt>
      <trkpt lat="42.392074" lon="2.160795">
        <ele>2142.02</ele>
        <time>2016-05-28T11:24:43Z</time>
      </trkpt>
      <trkpt lat="42.392112" lon="2.160852">
        <ele>2143.44</ele>
        <time>2016-05-28T11:24:59Z</time>
      </trkpt>
      <trkpt lat="42.392123" lon="2.160890">
        <ele>2143.69</ele>
        <time>2016-05-28T11:25:02Z</time>
      </trkpt>
      <trkpt lat="42.392126" lon="2.161005">
        <ele>2144.31</ele>
        <time>2016-05-28T11:25:20Z</time>
      </trkpt>
      <trkpt lat="42.392125" lon="2.161021">
        <ele>2144.92</ele>
        <time>2016-05-28T11:25:36Z</time>
      </trkpt>
      <trkpt lat="42.392147" lon="2.161118">
        <ele>2146.33</ele>
        <time>2016-05-28T11:25:49Z</time>
      </trkpt>
      <trkpt lat="42.392154" lon="2.161143">
        <ele>2147.07</ele>
        <time>2016-05-28T11:25:51Z</time>
      </trkpt>
      <trkpt lat="42.392188" lon="2.161291">
        <ele>2149.83</ele>
        <time>2016-05-28T11:26:00Z</time>
      </trkpt>
      <trkpt lat="42.392203" lon="2.161328">
        <ele>2150.84</ele>
        <time>2016-05-28T11:26:03Z</time>
      </trkpt>
      <trkpt lat="42.392212" lon="2.161371">
        <ele>2151.42</ele>
        <time>2016-05-28T11:26:06Z</time>
      </trkpt>
      <trkpt lat="42.392299" lon="2.161552">
        <ele>2155.38</ele>
        <time>2016-05-28T11:26:19Z</time>
      </trkpt>
      <trkpt lat="42.392369" lon="2.161760">
        <ele>2157.38</ele>
        <time>2016-05-28T11:26:33Z</time>
      </trkpt>
      <trkpt lat="42.392400" lon="2.161844">
        <ele>2158.54</ele>
        <time>2016-05-28T11:26:38Z</time>
      </trkpt>
      <trkpt lat="42.392405" lon="2.161896">
        <ele>2159.86</ele>
        <time>2016-05-28T11:26:42Z</time>
      </trkpt>
      <trkpt lat="42.392433" lon="2.161924">
        <ele>2161.05</ele>
        <time>2016-05-28T11:26:46Z</time>
      </trkpt>
      <trkpt lat="42.392452" lon="2.162051">
        <ele>2165.81</ele>
        <time>2016-05-28T11:27:00Z</time>
      </trkpt>
      <trkpt lat="42.392479" lon="2.162173">
        <ele>2169.21</ele>
        <time>2016-05-28T11:27:11Z</time>
      </trkpt>
      <trkpt lat="42.392501" lon="2.162232">
        <ele>2170.38</ele>
        <time>2016-05-28T11:27:16Z</time>
      </trkpt>
      <trkpt lat="42.392502" lon="2.162258">
        <ele>2170.74</ele>
        <time>2016-05-28T11:27:18Z</time>
      </trkpt>
      <trkpt lat="42.392523" lon="2.162306">
        <ele>2171.35</ele>
        <time>2016-05-28T11:27:22Z</time>
      </trkpt>
      <trkpt lat="42.392535" lon="2.162382">
        <ele>2172.54</ele>
        <time>2016-05-28T11:27:35Z</time>
      </trkpt>
      <trkpt lat="42.392536" lon="2.162453">
        <ele>2174.69</ele>
        <time>2016-05-28T11:27:52Z</time>
      </trkpt>
      <trkpt lat="42.392564" lon="2.162613">
        <ele>2177.06</ele>
        <time>2016-05-28T11:28:07Z</time>
      </trkpt>
      <trkpt lat="42.392602" lon="2.162785">
        <ele>2178.35</ele>
        <time>2016-05-28T11:28:20Z</time>
      </trkpt>
      <trkpt lat="42.392622" lon="2.162873">
        <ele>2179.08</ele>
        <time>2016-05-28T11:28:27Z</time>
      </trkpt>
      <trkpt lat="42.392625" lon="2.162921">
        <ele>2179.45</ele>
        <time>2016-05-28T11:28:30Z</time>
      </trkpt>
      <trkpt lat="42.392649" lon="2.162991">
        <ele>2180.28</ele>
        <time>2016-05-28T11:28:35Z</time>
      </trkpt>
      <trkpt lat="42.392692" lon="2.163082">
        <ele>2181.11</ele>
        <time>2016-05-28T11:28:45Z</time>
      </trkpt>
      <trkpt lat="42.392702" lon="2.163140">
        <ele>2182.01</ele>
        <time>2016-05-28T11:28:56Z</time>
      </trkpt>
      <trkpt lat="42.392741" lon="2.163303">
        <ele>2185.26</ele>
        <time>2016-05-28T11:29:11Z</time>
      </trkpt>
      <trkpt lat="42.392749" lon="2.163490">
        <ele>2187.76</ele>
        <time>2016-05-28T11:29:26Z</time>
      </trkpt>
      <trkpt lat="42.392757" lon="2.163665">
        <ele>2190.41</ele>
        <time>2016-05-28T11:29:42Z</time>
      </trkpt>
      <trkpt lat="42.392758" lon="2.163789">
        <ele>2193.27</ele>
        <time>2016-05-28T11:29:55Z</time>
      </trkpt>
      <trkpt lat="42.392777" lon="2.163914">
        <ele>2197.38</ele>
        <time>2016-05-28T11:30:11Z</time>
      </trkpt>
      <trkpt lat="42.392794" lon="2.164024">
        <ele>2202.59</ele>
        <time>2016-05-28T11:30:25Z</time>
      </trkpt>
      <trkpt lat="42.392825" lon="2.164131">
        <ele>2205.38</ele>
        <time>2016-05-28T11:30:38Z</time>
      </trkpt>
      <trkpt lat="42.392845" lon="2.164305">
        <ele>2208.68</ele>
        <time>2016-05-28T11:30:54Z</time>
      </trkpt>
      <trkpt lat="42.392872" lon="2.164348">
        <ele>2209.52</ele>
        <time>2016-05-28T11:31:04Z</time>
      </trkpt>
      <trkpt lat="42.392926" lon="2.164449">
        <ele>2214.05</ele>
        <time>2016-05-28T11:31:19Z</time>
      </trkpt>
      <trkpt lat="42.392994" lon="2.164536">
        <ele>2219.51</ele>
        <time>2016-05-28T11:31:33Z</time>
      </trkpt>
      <trkpt lat="42.393066" lon="2.164657">
        <ele>2226.62</ele>
        <time>2016-05-28T11:31:48Z</time>
      </trkpt>
      <trkpt lat="42.393121" lon="2.164731">
        <ele>2230.13</ele>
        <time>2016-05-28T11:31:56Z</time>
      </trkpt>
      <trkpt lat="42.393131" lon="2.164725">
        <ele>2233.88</ele>
        <time>2016-05-28T11:32:20Z</time>
      </trkpt>
      <trkpt lat="42.393161" lon="2.164746">
        <ele>2237.99</ele>
        <time>2016-05-28T11:32:37Z</time>
      </trkpt>
      <trkpt lat="42.393216" lon="2.164818">
        <ele>2242.13</ele>
        <time>2016-05-28T11:32:51Z</time>
      </trkpt>
      <trkpt lat="42.393316" lon="2.164907">
        <ele>2246.07</ele>
        <time>2016-05-28T11:33:08Z</time>
      </trkpt>
      <trkpt lat="42.393374" lon="2.164978">
        <ele>2247.34</ele>
        <time>2016-05-28T11:33:15Z</time>
      </trkpt>
      <trkpt lat="42.393424" lon="2.165114">
        <ele>2250.97</ele>
        <time>2016-05-28T11:33:26Z</time>
      </trkpt>
      <trkpt lat="42.393456" lon="2.165047">
        <ele>2253.59</ele>
        <time>2016-05-28T11:33:38Z</time>
      </trkpt>
      <trkpt lat="42.393453" lon="2.164866">
        <ele>2256.40</ele>
        <time>2016-05-28T11:33:54Z</time>
      </trkpt>
      <trkpt lat="42.393500" lon="2.164823">
        <ele>2257.08</ele>
        <time>2016-05-28T11:34:06Z</time>
      </trkpt>
      <trkpt lat="42.393532" lon="2.164637">
        <ele>2256.11</ele>
        <time>2016-05-28T11:34:18Z</time>
      </trkpt>
      <trkpt lat="42.393551" lon="2.164506">
        <ele>2255.22</ele>
        <time>2016-05-28T11:34:27Z</time>
      </trkpt>
      <trkpt lat="42.393583" lon="2.164362">
        <ele>2254.20</ele>
        <time>2016-05-28T11:34:35Z</time>
      </trkpt>
      <trkpt lat="42.393608" lon="2.164260">
        <ele>2253.78</ele>
        <time>2016-05-28T11:34:41Z</time>
      </trkpt>
      <trkpt lat="42.393655" lon="2.164001">
        <ele>2254.06</ele>
        <time>2016-05-28T11:34:56Z</time>
      </trkpt>
      <trkpt lat="42.393663" lon="2.163970">
        <ele>2253.78</ele>
        <time>2016-05-28T11:34:58Z</time>
      </trkpt>
      <trkpt lat="42.393701" lon="2.163805">
        <ele>2254.30</ele>
        <time>2016-05-28T11:35:10Z</time>
      </trkpt>
      <trkpt lat="42.393706" lon="2.163766">
        <ele>2254.43</ele>
        <time>2016-05-28T11:35:13Z</time>
      </trkpt>
      <trkpt lat="42.393707" lon="2.163734">
        <ele>2254.93</ele>
        <time>2016-05-28T11:35:16Z</time>
      </trkpt>
      <trkpt lat="42.393729" lon="2.163561">
        <ele>2255.62</ele>
        <time>2016-05-28T11:35:29Z</time>
      </trkpt>
      <trkpt lat="42.393755" lon="2.163275">
        <ele>2259.33</ele>
        <time>2016-05-28T11:35:46Z</time>
      </trkpt>
      <trkpt lat="42.393819" lon="2.163121">
        <ele>2264.28</ele>
        <time>2016-05-28T11:35:59Z</time>
      </trkpt>
      <trkpt lat="42.393859" lon="2.163058">
        <ele>2266.41</ele>
        <time>2016-05-28T11:36:05Z</time>
      </trkpt>
      <trkpt lat="42.393945" lon="2.163003">
        <ele>2269.22</ele>
        <time>2016-05-28T11:36:13Z</time>
      </trkpt>
      <trkpt lat="42.393982" lon="2.162971">
        <ele>2270.22</ele>
        <time>2016-05-28T11:36:17Z</time>
      </trkpt>
      <trkpt lat="42.394054" lon="2.162927">
        <ele>2271.74</ele>
        <time>2016-05-28T11:36:24Z</time>
      </trkpt>
      <trkpt lat="42.394097" lon="2.162876">
        <ele>2272.60</ele>
        <time>2016-05-28T11:36:29Z</time>
      </trkpt>
      <trkpt lat="42.394199" lon="2.162755">
        <ele>2274.28</ele>
        <time>2016-05-28T11:36:42Z</time>
      </trkpt>
      <trkpt lat="42.394234" lon="2.162712">
        <ele>2275.34</ele>
        <time>2016-05-28T11:36:46Z</time>
      </trkpt>
      <trkpt lat="42.394263" lon="2.162693">
        <ele>2276.78</ele>
        <time>2016-05-28T11:36:50Z</time>
      </trkpt>
      <trkpt lat="42.394316" lon="2.162711">
        <ele>2280.29</ele>
        <time>2016-05-28T11:37:02Z</time>
      </trkpt>
      <trkpt lat="42.394357" lon="2.162843">
        <ele>2282.93</ele>
        <time>2016-05-28T11:37:12Z</time>
      </trkpt>
      <trkpt lat="42.394348" lon="2.162880">
        <ele>2283.76</ele>
        <time>2016-05-28T11:37:15Z</time>
      </trkpt>
      <trkpt lat="42.394348" lon="2.162905">
        <ele>2284.67</ele>
        <time>2016-05-28T11:37:17Z</time>
      </trkpt>
      <trkpt lat="42.394349" lon="2.162969">
        <ele>2286.81</ele>
        <time>2016-05-28T11:37:22Z</time>
      </trkpt>
      <trkpt lat="42.394354" lon="2.163099">
        <ele>2290.42</ele>
        <time>2016-05-28T11:37:31Z</time>
      </trkpt>
      <trkpt lat="42.394350" lon="2.163124">
        <ele>2291.30</ele>
        <time>2016-05-28T11:37:33Z</time>
      </trkpt>
      <trkpt lat="42.394366" lon="2.163183">
        <ele>2293.03</ele>
        <time>2016-05-28T11:37:37Z</time>
      </trkpt>
      <trkpt lat="42.394377" lon="2.163267">
        <ele>2294.58</ele>
        <time>2016-05-28T11:37:41Z</time>
      </trkpt>
      <trkpt lat="42.394392" lon="2.163339">
        <ele>2295.41</ele>
        <time>2016-05-28T11:37:45Z</time>
      </trkpt>
      <trkpt lat="42.394391" lon="2.163384">
        <ele>2295.99</ele>
        <time>2016-05-28T11:37:48Z</time>
      </trkpt>
      <trkpt lat="42.394409" lon="2.163605">
        <ele>2298.79</ele>
        <time>2016-05-28T11:38:00Z</time>
      </trkpt>
      <trkpt lat="42.394388" lon="2.163864">
        <ele>2301.58</ele>
        <time>2016-05-28T11:38:15Z</time>
      </trkpt>
      <trkpt lat="42.394373" lon="2.164047">
        <ele>2304.54</ele>
        <time>2016-05-28T11:38:26Z</time>
      </trkpt>
      <trkpt lat="42.394408" lon="2.164257">
        <ele>2306.35</ele>
        <time>2016-05-28T11:38:40Z</time>
      </trkpt>
      <trkpt lat="42.394447" lon="2.164428">
        <ele>2308.60</ele>
        <time>2016-05-28T11:38:50Z</time>
      </trkpt>
      <trkpt lat="42.394499" lon="2.164656">
        <ele>2312.01</ele>
        <time>2016-05-28T11:39:03Z</time>
      </trkpt>
      <trkpt lat="42.394509" lon="2.164721">
        <ele>2313.32</ele>
        <time>2016-05-28T11:39:07Z</time>
      </trkpt>
      <trkpt lat="42.394511" lon="2.164767">
        <ele>2313.56</ele>
        <time>2016-05-28T11:39:10Z</time>
      </trkpt>
      <trkpt lat="42.394550" lon="2.164853">
        <ele>2314.57</ele>
        <time>2016-05-28T11:39:16Z</time>
      </trkpt>
      <trkpt lat="42.394585" lon="2.164992">
        <ele>2317.49</ele>
        <time>2016-05-28T11:39:24Z</time>
      </trkpt>
      <trkpt lat="42.394632" lon="2.165099">
        <ele>2319.93</ele>
        <time>2016-05-28T11:39:30Z</time>
      </trkpt>
      <trkpt lat="42.394677" lon="2.165130">
        <ele>2322.39</ele>
        <time>2016-05-28T11:39:37Z</time>
      </trkpt>
      <trkpt lat="42.394762" lon="2.165142">
        <ele>2329.15</ele>
        <time>2016-05-28T11:39:52Z</time>
      </trkpt>
      <trkpt lat="42.394818" lon="2.165099">
        <ele>2337.39</ele>
        <time>2016-05-28T11:40:07Z</time>
      </trkpt>
      <trkpt lat="42.394910" lon="2.165133">
        <ele>2344.31</ele>
        <time>2016-05-28T11:40:25Z</time>
      </trkpt>
      <trkpt lat="42.394975" lon="2.165166">
        <ele>2350.42</ele>
        <time>2016-05-28T11:40:41Z</time>
      </trkpt>
      <trkpt lat="42.395047" lon="2.165101">
        <ele>2351.97</ele>
        <time>2016-05-28T11:40:53Z</time>
      </trkpt>
      <trkpt lat="42.395059" lon="2.165051">
        <ele>2351.71</ele>
        <time>2016-05-28T11:40:56Z</time>
      </trkpt>
      <trkpt lat="42.395102" lon="2.164876">
        <ele>2350.72</ele>
        <time>2016-05-28T11:41:05Z</time>
      </trkpt>
      <trkpt lat="42.395119" lon="2.164786">
        <ele>2349.49</ele>
        <time>2016-05-28T11:41:10Z</time>
      </trkpt>
      <trkpt lat="42.395169" lon="2.164598">
        <ele>2347.28</ele>
        <time>2016-05-28T11:41:23Z</time>
      </trkpt>
      <trkpt lat="42.395195" lon="2.164465">
        <ele>2346.60</ele>
        <time>2016-05-28T11:41:32Z</time>
      </trkpt>
      <trkpt lat="42.395200" lon="2.164437">
        <ele>2346.31</ele>
        <time>2016-05-28T11:41:34Z</time>
      </trkpt>
      <trkpt lat="42.395291" lon="2.164145">
        <ele>2346.05</ele>
        <time>2016-05-28T11:41:50Z</time>
      </trkpt>
      <trkpt lat="42.395305" lon="2.164070">
        <ele>2345.36</ele>
        <time>2016-05-28T11:41:54Z</time>
      </trkpt>
      <trkpt lat="42.395306" lon="2.163871">
        <ele>2345.29</ele>
        <time>2016-05-28T11:42:04Z</time>
      </trkpt>
      <trkpt lat="42.395321" lon="2.163847">
        <ele>2345.54</ele>
        <time>2016-05-28T11:42:07Z</time>
      </trkpt>
      <trkpt lat="42.395325" lon="2.163702">
        <ele>2349.18</ele>
        <time>2016-05-28T11:42:19Z</time>
      </trkpt>
      <trkpt lat="42.395349" lon="2.163643">
        <ele>2350.15</ele>
        <time>2016-05-28T11:42:24Z</time>
      </trkpt>
      <trkpt lat="42.395376" lon="2.163669">
        <ele>2352.81</ele>
        <time>2016-05-28T11:42:37Z</time>
      </trkpt>
      <trkpt lat="42.395390" lon="2.163727">
        <ele>2354.62</ele>
        <time>2016-05-28T11:42:43Z</time>
      </trkpt>
      <trkpt lat="42.395416" lon="2.163764">
        <ele>2355.90</ele>
        <time>2016-05-28T11:42:47Z</time>
      </trkpt>
      <trkpt lat="42.395458" lon="2.163877">
        <ele>2360.56</ele>
        <time>2016-05-28T11:43:01Z</time>
      </trkpt>
      <trkpt lat="42.395467" lon="2.163920">
        <ele>2361.48</ele>
        <time>2016-05-28T11:43:04Z</time>
      </trkpt>
      <trkpt lat="42.395484" lon="2.163958">
        <ele>2362.44</ele>
        <time>2016-05-28T11:43:07Z</time>
      </trkpt>
      <trkpt lat="42.395549" lon="2.164129">
        <ele>2364.84</ele>
        <time>2016-05-28T11:43:19Z</time>
      </trkpt>
      <trkpt lat="42.395598" lon="2.164222">
        <ele>2366.17</ele>
        <time>2016-05-28T11:43:25Z</time>
      </trkpt>
      <trkpt lat="42.395609" lon="2.164255">
        <ele>2367.00</ele>
        <time>2016-05-28T11:43:27Z</time>
      </trkpt>
      <trkpt lat="42.395614" lon="2.164290">
        <ele>2368.21</ele>
        <time>2016-05-28T11:43:31Z</time>
      </trkpt>
      <trkpt lat="42.395639" lon="2.164417">
        <ele>2372.24</ele>
        <time>2016-05-28T11:43:43Z</time>
      </trkpt>
      <trkpt lat="42.395644" lon="2.164474">
        <ele>2372.94</ele>
        <time>2016-05-28T11:43:47Z</time>
      </trkpt>
      <trkpt lat="42.395670" lon="2.164487">
        <ele>2373.41</ele>
        <time>2016-05-28T11:43:50Z</time>
      </trkpt>
      <trkpt lat="42.395691" lon="2.164506">
        <ele>2373.82</ele>
        <time>2016-05-28T11:43:53Z</time>
      </trkpt>
      <trkpt lat="42.395697" lon="2.164633">
        <ele>2375.84</ele>
        <time>2016-05-28T11:44:01Z</time>
      </trkpt>
      <trkpt lat="42.395721" lon="2.164747">
        <ele>2379.67</ele>
        <time>2016-05-28T11:44:16Z</time>
      </trkpt>
      <trkpt lat="42.395732" lon="2.164837">
        <ele>2384.07</ele>
        <time>2016-05-28T11:44:31Z</time>
      </trkpt>
      <trkpt lat="42.395801" lon="2.164900">
        <ele>2387.94</ele>
        <time>2016-05-28T11:44:42Z</time>
      </trkpt>
      <trkpt lat="42.395831" lon="2.164913">
        <ele>2388.99</ele>
        <time>2016-05-28T11:44:45Z</time>
      </trkpt>
      <trkpt lat="42.395825" lon="2.164953">
        <ele>2389.82</ele>
        <time>2016-05-28T11:44:48Z</time>
      </trkpt>
      <trkpt lat="42.395892" lon="2.165058">
        <ele>2392.74</ele>
        <time>2016-05-28T11:44:58Z</time>
      </trkpt>
      <trkpt lat="42.395935" lon="2.165053">
        <ele>2394.21</ele>
        <time>2016-05-28T11:45:04Z</time>
      </trkpt>
      <trkpt lat="42.395989" lon="2.165111">
        <ele>2397.02</ele>
        <time>2016-05-28T11:45:16Z</time>
      </trkpt>
      <trkpt lat="42.395960" lon="2.165214">
        <ele>2400.34</ele>
        <time>2016-05-28T11:45:29Z</time>
      </trkpt>
      <trkpt lat="42.395970" lon="2.165375">
        <ele>2403.51</ele>
        <time>2016-05-28T11:45:38Z</time>
      </trkpt>
      <trkpt lat="42.395978" lon="2.165474">
        <ele>2404.22</ele>
        <time>2016-05-28T11:45:43Z</time>
      </trkpt>
      <trkpt lat="42.396038" lon="2.165572">
        <ele>2404.96</ele>
        <time>2016-05-28T11:45:52Z</time>
      </trkpt>
      <trkpt lat="42.396107" lon="2.165669">
        <ele>2406.67</ele>
        <time>2016-05-28T11:46:04Z</time>
      </trkpt>
      <trkpt lat="42.396130" lon="2.165742">
        <ele>2407.83</ele>
        <time>2016-05-28T11:46:15Z</time>
      </trkpt>
      <trkpt lat="42.396144" lon="2.165870">
        <ele>2408.83</ele>
        <time>2016-05-28T11:46:25Z</time>
      </trkpt>
      <trkpt lat="42.396181" lon="2.166031">
        <ele>2408.95</ele>
        <time>2016-05-28T11:46:36Z</time>
      </trkpt>
      <trkpt lat="42.396234" lon="2.166157">
        <ele>2412.13</ele>
        <time>2016-05-28T11:46:47Z</time>
      </trkpt>
      <trkpt lat="42.396245" lon="2.166176">
        <ele>2412.64</ele>
        <time>2016-05-28T11:46:49Z</time>
      </trkpt>
      <trkpt lat="42.396265" lon="2.166293">
        <ele>2413.72</ele>
        <time>2016-05-28T11:46:59Z</time>
      </trkpt>
      <trkpt lat="42.396286" lon="2.166353">
        <ele>2414.81</ele>
        <time>2016-05-28T11:47:03Z</time>
      </trkpt>
      <trkpt lat="42.396321" lon="2.166466">
        <ele>2414.62</ele>
        <time>2016-05-28T11:47:10Z</time>
      </trkpt>
      <trkpt lat="42.396364" lon="2.166527">
        <ele>2414.31</ele>
        <time>2016-05-28T11:47:15Z</time>
      </trkpt>
      <trkpt lat="42.396412" lon="2.166565">
        <ele>2415.11</ele>
        <time>2016-05-28T11:47:20Z</time>
      </trkpt>
      <trkpt lat="42.396467" lon="2.166611">
        <ele>2416.16</ele>
        <time>2016-05-28T11:47:28Z</time>
      </trkpt>
      <trkpt lat="42.396578" lon="2.166731">
        <ele>2416.85</ele>
        <time>2016-05-28T11:47:43Z</time>
      </trkpt>
      <trkpt lat="42.396664" lon="2.166817">
        <ele>2417.42</ele>
        <time>2016-05-28T11:47:51Z</time>
      </trkpt>
      <trkpt lat="42.396732" lon="2.166883">
        <ele>2417.51</ele>
        <time>2016-05-28T11:47:57Z</time>
      </trkpt>
      <trkpt lat="42.396794" lon="2.166935">
        <ele>2417.77</ele>
        <time>2016-05-28T11:48:06Z</time>
      </trkpt>
      <trkpt lat="42.396881" lon="2.166968">
        <ele>2417.47</ele>
        <time>2016-05-28T11:48:13Z</time>
      </trkpt>
      <trkpt lat="42.396926" lon="2.166996">
        <ele>2417.28</ele>
        <time>2016-05-28T11:48:17Z</time>
      </trkpt>
      <trkpt lat="42.396963" lon="2.167011">
        <ele>2417.63</ele>
        <time>2016-05-28T11:48:21Z</time>
      </trkpt>
      <trkpt lat="42.397028" lon="2.167048">
        <ele>2418.56</ele>
        <time>2016-05-28T11:48:27Z</time>
      </trkpt>
      <trkpt lat="42.397207" lon="2.167104">
        <ele>2420.36</ele>
        <time>2016-05-28T11:48:41Z</time>
      </trkpt>
      <trkpt lat="42.397283" lon="2.167114">
        <ele>2421.01</ele>
        <time>2016-05-28T11:48:47Z</time>
      </trkpt>
      <trkpt lat="42.397342" lon="2.167147">
        <ele>2422.12</ele>
        <time>2016-05-28T11:48:52Z</time>
      </trkpt>
      <trkpt lat="42.397493" lon="2.167176">
        <ele>2423.42</ele>
        <time>2016-05-28T11:49:03Z</time>
      </trkpt>
      <trkpt lat="42.397577" lon="2.167184">
        <ele>2423.84</ele>
        <time>2016-05-28T11:49:09Z</time>
      </trkpt>
      <trkpt lat="42.397744" lon="2.167239">
        <ele>2425.39</ele>
        <time>2016-05-28T11:49:21Z</time>
      </trkpt>
      <trkpt lat="42.397829" lon="2.167233">
        <ele>2427.72</ele>
        <time>2016-05-28T11:49:28Z</time>
      </trkpt>
      <trkpt lat="42.397983" lon="2.167254">
        <ele>2430.52</ele>
        <time>2016-05-28T11:49:41Z</time>
      </trkpt>
      <trkpt lat="42.398020" lon="2.167273">
        <ele>2431.75</ele>
        <time>2016-05-28T11:49:45Z</time>
      </trkpt>
      <trkpt lat="42.398081" lon="2.167329">
        <ele>2432.97</ele>
        <time>2016-05-28T11:49:51Z</time>
      </trkpt>
      <trkpt lat="42.398210" lon="2.167518">
        <ele>2435.75</ele>
        <time>2016-05-28T11:50:05Z</time>
      </trkpt>
      <trkpt lat="42.398308" lon="2.167640">
        <ele>2435.03</ele>
        <time>2016-05-28T11:50:14Z</time>
      </trkpt>
      <trkpt lat="42.398355" lon="2.167678">
        <ele>2434.93</ele>
        <time>2016-05-28T11:50:18Z</time>
      </trkpt>
      <trkpt lat="42.398447" lon="2.167803">
        <ele>2436.31</ele>
        <time>2016-05-28T11:50:30Z</time>
      </trkpt>
      <trkpt lat="42.398481" lon="2.167927">
        <ele>2435.62</ele>
        <time>2016-05-28T11:50:36Z</time>
      </trkpt>
      <trkpt lat="42.398611" lon="2.168116">
        <ele>2435.82</ele>
        <time>2016-05-28T11:50:48Z</time>
      </trkpt>
      <trkpt lat="42.398669" lon="2.168159">
        <ele>2437.64</ele>
        <time>2016-05-28T11:50:53Z</time>
      </trkpt>
      <trkpt lat="42.398794" lon="2.168281">
        <ele>2442.58</ele>
        <time>2016-05-28T11:51:05Z</time>
      </trkpt>
      <trkpt lat="42.398838" lon="2.168364">
        <ele>2444.39</ele>
        <time>2016-05-28T11:51:11Z</time>
      </trkpt>
      <trkpt lat="42.398904" lon="2.168476">
        <ele>2444.83</ele>
        <time>2016-05-28T11:51:19Z</time>
      </trkpt>
      <trkpt lat="42.398959" lon="2.168534">
        <ele>2446.56</ele>
        <time>2016-05-28T11:51:25Z</time>
      </trkpt>
      <trkpt lat="42.399079" lon="2.168723">
        <ele>2449.02</ele>
        <time>2016-05-28T11:51:38Z</time>
      </trkpt>
      <trkpt lat="42.399161" lon="2.168896">
        <ele>2452.37</ele>
        <time>2016-05-28T11:51:49Z</time>
      </trkpt>
      <trkpt lat="42.399177" lon="2.168922">
        <ele>2453.49</ele>
        <time>2016-05-28T11:51:52Z</time>
      </trkpt>
      <trkpt lat="42.399220" lon="2.169116">
        <ele>2455.34</ele>
        <time>2016-05-28T11:52:03Z</time>
      </trkpt>
      <trkpt lat="42.399283" lon="2.169296">
        <ele>2455.11</ele>
        <time>2016-05-28T11:52:13Z</time>
      </trkpt>
      <trkpt lat="42.399323" lon="2.169410">
        <ele>2455.32</ele>
        <time>2016-05-28T11:52:20Z</time>
      </trkpt>
      <trkpt lat="42.399380" lon="2.169497">
        <ele>2455.65</ele>
        <time>2016-05-28T11:52:28Z</time>
      </trkpt>
      <trkpt lat="42.399472" lon="2.169638">
        <ele>2456.86</ele>
        <time>2016-05-28T11:52:40Z</time>
      </trkpt>
      <trkpt lat="42.399519" lon="2.169681">
        <ele>2457.33</ele>
        <time>2016-05-28T11:52:44Z</time>
      </trkpt>
      <trkpt lat="42.399597" lon="2.169812">
        <ele>2458.37</ele>
        <time>2016-05-28T11:52:53Z</time>
      </trkpt>
      <trkpt lat="42.399719" lon="2.169957">
        <ele>2459.68</ele>
        <time>2016-05-28T11:53:07Z</time>
      </trkpt>
      <trkpt lat="42.399751" lon="2.170014">
        <ele>2460.18</ele>
        <time>2016-05-28T11:53:11Z</time>
      </trkpt>
      <trkpt lat="42.399748" lon="2.170080">
        <ele>2462.38</ele>
        <time>2016-05-28T11:53:31Z</time>
      </trkpt>
      <trkpt lat="42.399772" lon="2.170163">
        <ele>2464.82</ele>
        <time>2016-05-28T11:53:45Z</time>
      </trkpt>
      <trkpt lat="42.399811" lon="2.170355">
        <ele>2465.74</ele>
        <time>2016-05-28T11:53:58Z</time>
      </trkpt>
      <trkpt lat="42.399853" lon="2.170505">
        <ele>2466.24</ele>
        <time>2016-05-28T11:54:06Z</time>
      </trkpt>
      <trkpt lat="42.399854" lon="2.170555">
        <ele>2471.01</ele>
        <time>2016-05-28T11:54:24Z</time>
      </trkpt>
      <trkpt lat="42.399887" lon="2.170695">
        <ele>2474.42</ele>
        <time>2016-05-28T11:54:34Z</time>
      </trkpt>
      <trkpt lat="42.399920" lon="2.170928">
        <ele>2478.36</ele>
        <time>2016-05-28T11:54:47Z</time>
      </trkpt>
      <trkpt lat="42.399939" lon="2.170998">
        <ele>2479.27</ele>
        <time>2016-05-28T11:54:51Z</time>
      </trkpt>
      <trkpt lat="42.399964" lon="2.171117">
        <ele>2482.68</ele>
        <time>2016-05-28T11:54:58Z</time>
      </trkpt>
      <trkpt lat="42.399994" lon="2.171314">
        <ele>2484.50</ele>
        <time>2016-05-28T11:55:10Z</time>
      </trkpt>
      <trkpt lat="42.399995" lon="2.171478">
        <ele>2486.07</ele>
        <time>2016-05-28T11:55:20Z</time>
      </trkpt>
      <trkpt lat="42.399995" lon="2.171493">
        <ele>2486.11</ele>
        <time>2016-05-28T11:55:21Z</time>
      </trkpt>
      <trkpt lat="42.400004" lon="2.171555">
        <ele>2489.86</ele>
        <time>2016-05-28T11:55:36Z</time>
      </trkpt>
      <trkpt lat="42.400000" lon="2.171578">
        <ele>2490.36</ele>
        <time>2016-05-28T11:55:38Z</time>
      </trkpt>
      <trkpt lat="42.400006" lon="2.171630">
        <ele>2491.67</ele>
        <time>2016-05-28T11:55:43Z</time>
      </trkpt>
      <trkpt lat="42.400008" lon="2.171802">
        <ele>2493.12</ele>
        <time>2016-05-28T11:55:53Z</time>
      </trkpt>
      <trkpt lat="42.400003" lon="2.171896">
        <ele>2494.01</ele>
        <time>2016-05-28T11:56:08Z</time>
      </trkpt>
      <trkpt lat="42.399991" lon="2.172021">
        <ele>2496.01</ele>
        <time>2016-05-28T11:56:20Z</time>
      </trkpt>
      <trkpt lat="42.399994" lon="2.172074">
        <ele>2497.05</ele>
        <time>2016-05-28T11:56:24Z</time>
      </trkpt>
      <trkpt lat="42.400011" lon="2.172269">
        <ele>2499.21</ele>
        <time>2016-05-28T11:56:36Z</time>
      </trkpt>
      <trkpt lat="42.400033" lon="2.172414">
        <ele>2501.48</ele>
        <time>2016-05-28T11:56:45Z</time>
      </trkpt>
      <trkpt lat="42.400060" lon="2.172548">
        <ele>2505.18</ele>
        <time>2016-05-28T11:56:55Z</time>
      </trkpt>
      <trkpt lat="42.400063" lon="2.172653">
        <ele>2509.15</ele>
        <time>2016-05-28T11:57:03Z</time>
      </trkpt>
      <trkpt lat="42.400068" lon="2.172729">
        <ele>2513.15</ele>
        <time>2016-05-28T11:57:09Z</time>
      </trkpt>
      <trkpt lat="42.400064" lon="2.172734">
        <ele>2514.52</ele>
        <time>2016-05-28T11:57:10Z</time>
      </trkpt>
      <trkpt lat="42.400016" lon="2.172867">
        <ele>2522.39</ele>
        <time>2016-05-28T11:57:23Z</time>
      </trkpt>
      <trkpt lat="42.400010" lon="2.172903">
        <ele>2523.53</ele>
        <time>2016-05-28T11:57:26Z</time>
      </trkpt>
      <trkpt lat="42.399992" lon="2.173001">
        <ele>2526.10</ele>
        <time>2016-05-28T11:57:33Z</time>
      </trkpt>
      <trkpt lat="42.399981" lon="2.173090">
        <ele>2527.71</ele>
        <time>2016-05-28T11:57:40Z</time>
      </trkpt>
      <trkpt lat="42.399981" lon="2.173164">
        <ele>2528.23</ele>
        <time>2016-05-28T11:57:45Z</time>
      </trkpt>
      <trkpt lat="42.400012" lon="2.173312">
        <ele>2529.36</ele>
        <time>2016-05-28T11:57:56Z</time>
      </trkpt>
      <trkpt lat="42.400019" lon="2.173381">
        <ele>2529.58</ele>
        <time>2016-05-28T11:58:00Z</time>
      </trkpt>
      <trkpt lat="42.400032" lon="2.173527">
        <ele>2528.79</ele>
        <time>2016-05-28T11:58:09Z</time>
      </trkpt>
      <trkpt lat="42.400046" lon="2.173584">
        <ele>2528.61</ele>
        <time>2016-05-28T11:58:14Z</time>
      </trkpt>
      <trkpt lat="42.400094" lon="2.173681">
        <ele>2528.86</ele>
        <time>2016-05-28T11:58:22Z</time>
      </trkpt>
      <trkpt lat="42.400153" lon="2.173782">
        <ele>2530.76</ele>
        <time>2016-05-28T11:58:30Z</time>
      </trkpt>
      <trkpt lat="42.400252" lon="2.173995">
        <ele>2532.39</ele>
        <time>2016-05-28T11:58:43Z</time>
      </trkpt>
      <trkpt lat="42.400315" lon="2.174184">
        <ele>2533.64</ele>
        <time>2016-05-28T11:58:54Z</time>
      </trkpt>
      <trkpt lat="42.400397" lon="2.174329">
        <ele>2538.94</ele>
        <time>2016-05-28T11:59:07Z</time>
      </trkpt>
      <trkpt lat="42.400520" lon="2.174479">
        <ele>2544.15</ele>
        <time>2016-05-28T11:59:20Z</time>
      </trkpt>
      <trkpt lat="42.400566" lon="2.174503">
        <ele>2545.01</ele>
        <time>2016-05-28T11:59:24Z</time>
      </trkpt>
      <trkpt lat="42.400572" lon="2.174629">
        <ele>2547.21</ele>
        <time>2016-05-28T11:59:33Z</time>
      </trkpt>
      <trkpt lat="42.400570" lon="2.174660">
        <ele>2547.56</ele>
        <time>2016-05-28T11:59:35Z</time>
      </trkpt>
      <trkpt lat="42.400596" lon="2.174860">
        <ele>2547.96</ele>
        <time>2016-05-28T11:59:49Z</time>
      </trkpt>
      <trkpt lat="42.400596" lon="2.174912">
        <ele>2547.67</ele>
        <time>2016-05-28T11:59:53Z</time>
      </trkpt>
      <trkpt lat="42.400640" lon="2.175095">
        <ele>2549.81</ele>
        <time>2016-05-28T12:00:04Z</time>
      </trkpt>
      <trkpt lat="42.400651" lon="2.175144">
        <ele>2550.83</ele>
        <time>2016-05-28T12:00:09Z</time>
      </trkpt>
      <trkpt lat="42.400675" lon="2.175196">
        <ele>2552.37</ele>
        <time>2016-05-28T12:00:14Z</time>
      </trkpt>
      <trkpt lat="42.400683" lon="2.175225">
        <ele>2553.18</ele>
        <time>2016-05-28T12:00:16Z</time>
      </trkpt>
      <trkpt lat="42.400690" lon="2.175279">
        <ele>2554.53</ele>
        <time>2016-05-28T12:00:20Z</time>
      </trkpt>
      <trkpt lat="42.400690" lon="2.175519">
        <ele>2562.17</ele>
        <time>2016-05-28T12:00:42Z</time>
      </trkpt>
      <trkpt lat="42.400712" lon="2.175616">
        <ele>2565.68</ele>
        <time>2016-05-28T12:00:51Z</time>
      </trkpt>
      <trkpt lat="42.400749" lon="2.175593">
        <ele>2567.21</ele>
        <time>2016-05-28T12:00:54Z</time>
      </trkpt>
      <trkpt lat="42.400772" lon="2.175650">
        <ele>2569.51</ele>
        <time>2016-05-28T12:00:59Z</time>
      </trkpt>
      <trkpt lat="42.400777" lon="2.175677">
        <ele>2570.35</ele>
        <time>2016-05-28T12:01:01Z</time>
      </trkpt>
      <trkpt lat="42.400818" lon="2.175686">
        <ele>2572.24</ele>
        <time>2016-05-28T12:01:07Z</time>
      </trkpt>
      <trkpt lat="42.400886" lon="2.175748">
        <ele>2576.64</ele>
        <time>2016-05-28T12:01:21Z</time>
      </trkpt>
      <trkpt lat="42.400954" lon="2.175891">
        <ele>2580.98</ele>
        <time>2016-05-28T12:01:34Z</time>
      </trkpt>
      <trkpt lat="42.400964" lon="2.175936">
        <ele>2581.21</ele>
        <time>2016-05-28T12:01:37Z</time>
      </trkpt>
      <trkpt lat="42.401027" lon="2.176038">
        <ele>2582.83</ele>
        <time>2016-05-28T12:01:45Z</time>
      </trkpt>
      <trkpt lat="42.401116" lon="2.176158">
        <ele>2586.36</ele>
        <time>2016-05-28T12:01:55Z</time>
      </trkpt>
      <trkpt lat="42.401146" lon="2.176193">
        <ele>2587.77</ele>
        <time>2016-05-28T12:01:58Z</time>
      </trkpt>
      <trkpt lat="42.401198" lon="2.176240">
        <ele>2589.57</ele>
        <time>2016-05-28T12:02:03Z</time>
      </trkpt>
      <trkpt lat="42.401217" lon="2.176256">
        <ele>2590.08</ele>
        <time>2016-05-28T12:02:05Z</time>
      </trkpt>
      <trkpt lat="42.401267" lon="2.176348">
        <ele>2593.51</ele>
        <time>2016-05-28T12:02:16Z</time>
      </trkpt>
      <trkpt lat="42.401370" lon="2.176428">
        <ele>2597.11</ele>
        <time>2016-05-28T12:02:31Z</time>
      </trkpt>
      <trkpt lat="42.401413" lon="2.176549">
        <ele>2599.84</ele>
        <time>2016-05-28T12:02:48Z</time>
      </trkpt>
      <trkpt lat="42.401475" lon="2.176645">
        <ele>2601.77</ele>
        <time>2016-05-28T12:03:06Z</time>
      </trkpt>
      <trkpt lat="42.401467" lon="2.176757">
        <ele>2601.07</ele>
        <time>2016-05-28T12:03:27Z</time>
      </trkpt>
      <trkpt lat="42.401502" lon="2.176868">
        <ele>2598.72</ele>
        <time>2016-05-28T12:03:41Z</time>
      </trkpt>
      <trkpt lat="42.401528" lon="2.177063">
        <ele>2598.29</ele>
        <time>2016-05-28T12:03:54Z</time>
      </trkpt>
      <trkpt lat="42.401541" lon="2.177096">
        <ele>2598.51</ele>
        <time>2016-05-28T12:03:56Z</time>
      </trkpt>
      <trkpt lat="42.401598" lon="2.177289">
        <ele>2601.28</ele>
        <time>2016-05-28T12:04:09Z</time>
      </trkpt>
      <trkpt lat="42.401614" lon="2.177415">
        <ele>2602.66</ele>
        <time>2016-05-28T12:04:17Z</time>
      </trkpt>
      <trkpt lat="42.401657" lon="2.177608">
        <ele>2603.74</ele>
        <time>2016-05-28T12:04:31Z</time>
      </trkpt>
      <trkpt lat="42.401686" lon="2.177679">
        <ele>2603.64</ele>
        <time>2016-05-28T12:04:35Z</time>
      </trkpt>
      <trkpt lat="42.401675" lon="2.177708">
        <ele>2603.91</ele>
        <time>2016-05-28T12:04:38Z</time>
      </trkpt>
      <trkpt lat="42.401674" lon="2.177788">
        <ele>2604.11</ele>
        <time>2016-05-28T12:04:42Z</time>
      </trkpt>
      <trkpt lat="42.401697" lon="2.177864">
        <ele>2604.19</ele>
        <time>2016-05-28T12:04:46Z</time>
      </trkpt>
      <trkpt lat="42.401702" lon="2.177918">
        <ele>2604.33</ele>
        <time>2016-05-28T12:04:49Z</time>
      </trkpt>
      <trkpt lat="42.401725" lon="2.177986">
        <ele>2604.72</ele>
        <time>2016-05-28T12:04:54Z</time>
      </trkpt>
      <trkpt lat="42.401750" lon="2.178032">
        <ele>2605.28</ele>
        <time>2016-05-28T12:04:58Z</time>
      </trkpt>
      <trkpt lat="42.401775" lon="2.178079">
        <ele>2605.68</ele>
        <time>2016-05-28T12:05:04Z</time>
      </trkpt>
      <trkpt lat="42.401822" lon="2.178205">
        <ele>2607.43</ele>
        <time>2016-05-28T12:05:14Z</time>
      </trkpt>
      <trkpt lat="42.401843" lon="2.178234">
        <ele>2608.09</ele>
        <time>2016-05-28T12:05:17Z</time>
      </trkpt>
      <trkpt lat="42.401861" lon="2.178245">
        <ele>2608.63</ele>
        <time>2016-05-28T12:05:19Z</time>
      </trkpt>
      <trkpt lat="42.401933" lon="2.178379">
        <ele>2611.79</ele>
        <time>2016-05-28T12:05:31Z</time>
      </trkpt>
      <trkpt lat="42.401963" lon="2.178454">
        <ele>2614.56</ele>
        <time>2016-05-28T12:05:39Z</time>
      </trkpt>
      <trkpt lat="42.402045" lon="2.178621">
        <ele>2623.01</ele>
        <time>2016-05-28T12:05:54Z</time>
      </trkpt>
      <trkpt lat="42.402049" lon="2.178644">
        <ele>2624.01</ele>
        <time>2016-05-28T12:05:56Z</time>
      </trkpt>
      <trkpt lat="42.402075" lon="2.178783">
        <ele>2630.83</ele>
        <time>2016-05-28T12:06:08Z</time>
      </trkpt>
      <trkpt lat="42.402072" lon="2.178846">
        <ele>2635.41</ele>
        <time>2016-05-28T12:06:13Z</time>
      </trkpt>
      <trkpt lat="42.402113" lon="2.178870">
        <ele>2638.78</ele>
        <time>2016-05-28T12:06:18Z</time>
      </trkpt>
      <trkpt lat="42.402137" lon="2.178893">
        <ele>2640.32</ele>
        <time>2016-05-28T12:06:21Z</time>
      </trkpt>
      <trkpt lat="42.402246" lon="2.178940">
        <ele>2645.16</ele>
        <time>2016-05-28T12:06:34Z</time>
      </trkpt>
      <trkpt lat="42.402261" lon="2.179101">
        <ele>2650.67</ele>
        <time>2016-05-28T12:06:54Z</time>
      </trkpt>
      <trkpt lat="42.402318" lon="2.179155">
        <ele>2653.47</ele>
        <time>2016-05-28T12:07:05Z</time>
      </trkpt>
      <trkpt lat="42.402335" lon="2.179209">
        <ele>2654.30</ele>
        <time>2016-05-28T12:07:09Z</time>
      </trkpt>
      <trkpt lat="42.402347" lon="2.179262">
        <ele>2655.19</ele>
        <time>2016-05-28T12:07:14Z</time>
      </trkpt>
      <trkpt lat="42.402397" lon="2.179343">
        <ele>2658.92</ele>
        <time>2016-05-28T12:07:29Z</time>
      </trkpt>
      <trkpt lat="42.402501" lon="2.179373">
        <ele>2661.01</ele>
        <time>2016-05-28T12:07:45Z</time>
      </trkpt>
      <trkpt lat="42.402589" lon="2.179379">
        <ele>2662.51</ele>
        <time>2016-05-28T12:08:00Z</time>
      </trkpt>
      <trkpt lat="42.402580" lon="2.179459">
        <ele>2665.26</ele>
        <time>2016-05-28T12:08:16Z</time>
      </trkpt>
      <trkpt lat="42.402618" lon="2.179530">
        <ele>2667.15</ele>
        <time>2016-05-28T12:08:29Z</time>
      </trkpt>
      <trkpt lat="42.402640" lon="2.179653">
        <ele>2670.46</ele>
        <time>2016-05-28T12:08:47Z</time>
      </trkpt>
      <trkpt lat="42.402685" lon="2.179703">
        <ele>2673.23</ele>
        <time>2016-05-28T12:09:02Z</time>
      </trkpt>
      <trkpt lat="42.402744" lon="2.179777">
        <ele>2677.36</ele>
        <time>2016-05-28T12:09:16Z</time>
      </trkpt>
      <trkpt lat="42.402784" lon="2.179869">
        <ele>2681.59</ele>
        <time>2016-05-28T12:09:31Z</time>
      </trkpt>
      <trkpt lat="42.402834" lon="2.179912">
        <ele>2684.36</ele>
        <time>2016-05-28T12:09:43Z</time>
      </trkpt>
      <trkpt lat="42.402968" lon="2.180009">
        <ele>2689.10</ele>
        <time>2016-05-28T12:10:00Z</time>
      </trkpt>
      <trkpt lat="42.403040" lon="2.180105">
        <ele>2692.14</ele>
        <time>2016-05-28T12:10:14Z</time>
      </trkpt>
      <trkpt lat="42.403132" lon="2.180200">
        <ele>2697.12</ele>
        <time>2016-05-28T12:10:28Z</time>
      </trkpt>
      <trkpt lat="42.403183" lon="2.180238">
        <ele>2699.01</ele>
        <time>2016-05-28T12:10:42Z</time>
      </trkpt>
      <trkpt lat="42.403286" lon="2.180320">
        <ele>2700.52</ele>
        <time>2016-05-28T12:10:58Z</time>
      </trkpt>
      <trkpt lat="42.403379" lon="2.180417">
        <ele>2701.90</ele>
        <time>2016-05-28T12:11:15Z</time>
      </trkpt>
      <trkpt lat="42.403414" lon="2.180463">
        <ele>2701.96</ele>
        <time>2016-05-28T12:11:37Z</time>
      </trkpt>
      <trkpt lat="42.403417" lon="2.180479">
        <ele>2702.00</ele>
        <time>2016-05-28T12:12:15Z</time>
      </trkpt>
      <trkpt lat="42.403418" lon="2.180482">
        <ele>2702.52</ele>
        <time>2016-05-28T12:12:54Z</time>
      </trkpt>
      <trkpt lat="42.403409" lon="2.180475">
        <ele>2701.86</ele>
        <time>2016-05-28T12:13:45Z</time>
      </trkpt>
      <trkpt lat="42.403416" lon="2.180481">
        <ele>2702.52</ele>
        <time>2016-05-28T12:13:54Z</time>
      </trkpt>
      <trkpt lat="42.403458" lon="2.180538">
        <ele>2701.89</ele>
        <time>2016-05-28T12:14:11Z</time>
      </trkpt>
      <trkpt lat="42.403537" lon="2.180578">
        <ele>2698.48</ele>
        <time>2016-05-28T12:14:33Z</time>
      </trkpt>
      <trkpt lat="42.403661" lon="2.180688">
        <ele>2695.62</ele>
        <time>2016-05-28T12:14:54Z</time>
      </trkpt>
      <trkpt lat="42.403678" lon="2.180704">
        <ele>2695.68</ele>
        <time>2016-05-28T12:14:56Z</time>
      </trkpt>
      <trkpt lat="42.403728" lon="2.180764">
        <ele>2693.91</ele>
        <time>2016-05-28T12:15:05Z</time>
      </trkpt>
      <trkpt lat="42.403776" lon="2.180980">
        <ele>2694.01</ele>
        <time>2016-05-28T12:15:23Z</time>
      </trkpt>
      <trkpt lat="42.403778" lon="2.181031">
        <ele>2693.84</ele>
        <time>2016-05-28T12:15:27Z</time>
      </trkpt>
      <trkpt lat="42.403790" lon="2.181135">
        <ele>2691.22</ele>
        <time>2016-05-28T12:15:37Z</time>
      </trkpt>
      <trkpt lat="42.403850" lon="2.181335">
        <ele>2688.77</ele>
        <time>2016-05-28T12:15:51Z</time>
      </trkpt>
      <trkpt lat="42.403859" lon="2.181422">
        <ele>2688.29</ele>
        <time>2016-05-28T12:15:57Z</time>
      </trkpt>
      <trkpt lat="42.403843" lon="2.181518">
        <ele>2687.86</ele>
        <time>2016-05-28T12:16:04Z</time>
      </trkpt>
      <trkpt lat="42.403859" lon="2.181633">
        <ele>2687.34</ele>
        <time>2016-05-28T12:16:14Z</time>
      </trkpt>
      <trkpt lat="42.403889" lon="2.181719">
        <ele>2687.57</ele>
        <time>2016-05-28T12:16:30Z</time>
      </trkpt>
      <trkpt lat="42.403881" lon="2.181727">
        <ele>2686.53</ele>
        <time>2016-05-28T12:16:59Z</time>
      </trkpt>
      <trkpt lat="42.403915" lon="2.181892">
        <ele>2682.68</ele>
        <time>2016-05-28T12:17:20Z</time>
      </trkpt>
      <trkpt lat="42.403927" lon="2.182043">
        <ele>2680.96</ele>
        <time>2016-05-28T12:17:32Z</time>
      </trkpt>
      <trkpt lat="42.403964" lon="2.182257">
        <ele>2679.11</ele>
        <time>2016-05-28T12:17:47Z</time>
      </trkpt>
      <trkpt lat="42.403996" lon="2.182342">
        <ele>2678.91</ele>
        <time>2016-05-28T12:17:53Z</time>
      </trkpt>
      <trkpt lat="42.404079" lon="2.182372">
        <ele>2677.72</ele>
        <time>2016-05-28T12:18:01Z</time>
      </trkpt>
      <trkpt lat="42.404234" lon="2.182484">
        <ele>2675.36</ele>
        <time>2016-05-28T12:18:17Z</time>
      </trkpt>
      <trkpt lat="42.404390" lon="2.182576">
        <ele>2674.03</ele>
        <time>2016-05-28T12:18:32Z</time>
      </trkpt>
      <trkpt lat="42.404450" lon="2.182625">
        <ele>2673.56</ele>
        <time>2016-05-28T12:18:38Z</time>
      </trkpt>
      <trkpt lat="42.404458" lon="2.182638">
        <ele>2673.35</ele>
        <time>2016-05-28T12:18:39Z</time>
      </trkpt>
      <trkpt lat="42.404584" lon="2.182771">
        <ele>2672.11</ele>
        <time>2016-05-28T12:18:54Z</time>
      </trkpt>
      <trkpt lat="42.404757" lon="2.182918">
        <ele>2671.27</ele>
        <time>2016-05-28T12:19:15Z</time>
      </trkpt>
      <trkpt lat="42.404855" lon="2.183039">
        <ele>2670.82</ele>
        <time>2016-05-28T12:19:33Z</time>
      </trkpt>
      <trkpt lat="42.404866" lon="2.183050">
        <ele>2670.64</ele>
        <time>2016-05-28T12:19:35Z</time>
      </trkpt>
      <trkpt lat="42.404895" lon="2.183084">
        <ele>2670.76</ele>
        <time>2016-05-28T12:19:53Z</time>
      </trkpt>
      <trkpt lat="42.404919" lon="2.183179">
        <ele>2671.11</ele>
        <time>2016-05-28T12:19:59Z</time>
      </trkpt>
      <trkpt lat="42.404949" lon="2.183233">
        <ele>2671.51</ele>
        <time>2016-05-28T12:20:03Z</time>
      </trkpt>
      <trkpt lat="42.404968" lon="2.183252">
        <ele>2671.86</ele>
        <time>2016-05-28T12:20:05Z</time>
      </trkpt>
      <trkpt lat="42.405013" lon="2.183335">
        <ele>2672.85</ele>
        <time>2016-05-28T12:20:21Z</time>
      </trkpt>
      <trkpt lat="42.405104" lon="2.183433">
        <ele>2674.77</ele>
        <time>2016-05-28T12:20:32Z</time>
      </trkpt>
      <trkpt lat="42.405163" lon="2.183499">
        <ele>2676.26</ele>
        <time>2016-05-28T12:20:39Z</time>
      </trkpt>
      <trkpt lat="42.405214" lon="2.183560">
        <ele>2678.08</ele>
        <time>2016-05-28T12:20:55Z</time>
      </trkpt>
      <trkpt lat="42.405226" lon="2.183565">
        <ele>2678.93</ele>
        <time>2016-05-28T12:20:58Z</time>
      </trkpt>
      <trkpt lat="42.405250" lon="2.183620">
        <ele>2681.54</ele>
        <time>2016-05-28T12:21:24Z</time>
      </trkpt>
      <trkpt lat="42.405288" lon="2.183634">
        <ele>2684.25</ele>
        <time>2016-05-28T12:21:41Z</time>
      </trkpt>
      <trkpt lat="42.405311" lon="2.183637">
        <ele>2686.12</ele>
        <time>2016-05-28T12:21:53Z</time>
      </trkpt>
      <trkpt lat="42.405358" lon="2.183692">
        <ele>2688.87</ele>
        <time>2016-05-28T12:22:20Z</time>
      </trkpt>
      <trkpt lat="42.405373" lon="2.183664">
        <ele>2690.41</ele>
        <time>2016-05-28T12:22:55Z</time>
      </trkpt>
      <trkpt lat="42.405397" lon="2.183697">
        <ele>2692.63</ele>
        <time>2016-05-28T12:23:18Z</time>
      </trkpt>
      <trkpt lat="42.405471" lon="2.183772">
        <ele>2694.31</ele>
        <time>2016-05-28T12:23:33Z</time>
      </trkpt>
      <trkpt lat="42.405523" lon="2.183817">
        <ele>2695.99</ele>
        <time>2016-05-28T12:23:47Z</time>
      </trkpt>
      <trkpt lat="42.405551" lon="2.183849">
        <ele>2697.65</ele>
        <time>2016-05-28T12:24:02Z</time>
      </trkpt>
      <trkpt lat="42.405634" lon="2.183897">
        <ele>2700.92</ele>
        <time>2016-05-28T12:24:21Z</time>
      </trkpt>
      <trkpt lat="42.405719" lon="2.183985">
        <ele>2706.98</ele>
        <time>2016-05-28T12:24:37Z</time>
      </trkpt>
      <trkpt lat="42.405817" lon="2.184022">
        <ele>2710.19</ele>
        <time>2016-05-28T12:24:47Z</time>
      </trkpt>
      <trkpt lat="42.405880" lon="2.184073">
        <ele>2711.84</ele>
        <time>2016-05-28T12:24:55Z</time>
      </trkpt>
      <trkpt lat="42.405894" lon="2.184086">
        <ele>2712.35</ele>
        <time>2016-05-28T12:24:57Z</time>
      </trkpt>
      <trkpt lat="42.406003" lon="2.184162">
        <ele>2714.86</ele>
        <time>2016-05-28T12:25:09Z</time>
      </trkpt>
      <trkpt lat="42.406039" lon="2.184198">
        <ele>2715.53</ele>
        <time>2016-05-28T12:25:13Z</time>
      </trkpt>
      <trkpt lat="42.406088" lon="2.184248">
        <ele>2717.51</ele>
        <time>2016-05-28T12:25:20Z</time>
      </trkpt>
      <trkpt lat="42.406113" lon="2.184257">
        <ele>2718.72</ele>
        <time>2016-05-28T12:25:23Z</time>
      </trkpt>
      <trkpt lat="42.406166" lon="2.184264">
        <ele>2720.97</ele>
        <time>2016-05-28T12:25:29Z</time>
      </trkpt>
      <trkpt lat="42.406267" lon="2.184267">
        <ele>2725.84</ele>
        <time>2016-05-28T12:25:44Z</time>
      </trkpt>
      <trkpt lat="42.406347" lon="2.184352">
        <ele>2731.05</ele>
        <time>2016-05-28T12:25:57Z</time>
      </trkpt>
      <trkpt lat="42.406381" lon="2.184376">
        <ele>2734.13</ele>
        <time>2016-05-28T12:26:03Z</time>
      </trkpt>
      <trkpt lat="42.406437" lon="2.184437">
        <ele>2738.18</ele>
        <time>2016-05-28T12:26:14Z</time>
      </trkpt>
      <trkpt lat="42.406440" lon="2.184491">
        <ele>2738.96</ele>
        <time>2016-05-28T12:26:17Z</time>
      </trkpt>
      <trkpt lat="42.406451" lon="2.184516">
        <ele>2739.47</ele>
        <time>2016-05-28T12:26:19Z</time>
      </trkpt>
      <trkpt lat="42.406477" lon="2.184505">
        <ele>2740.02</ele>
        <time>2016-05-28T12:26:22Z</time>
      </trkpt>
      <trkpt lat="42.406495" lon="2.184543">
        <ele>2740.85</ele>
        <time>2016-05-28T12:26:25Z</time>
      </trkpt>
      <trkpt lat="42.406513" lon="2.184626">
        <ele>2742.20</ele>
        <time>2016-05-28T12:26:32Z</time>
      </trkpt>
      <trkpt lat="42.406600" lon="2.184687">
        <ele>2745.31</ele>
        <time>2016-05-28T12:26:46Z</time>
      </trkpt>
      <trkpt lat="42.406686" lon="2.184738">
        <ele>2747.51</ele>
        <time>2016-05-28T12:27:01Z</time>
      </trkpt>
      <trkpt lat="42.406752" lon="2.184782">
        <ele>2748.48</ele>
        <time>2016-05-28T12:27:17Z</time>
      </trkpt>
      <trkpt lat="42.406845" lon="2.184795">
        <ele>2752.94</ele>
        <time>2016-05-28T12:27:38Z</time>
      </trkpt>
      <trkpt lat="42.406933" lon="2.184887">
        <ele>2758.00</ele>
        <time>2016-05-28T12:27:52Z</time>
      </trkpt>
      <trkpt lat="42.406997" lon="2.184906">
        <ele>2762.27</ele>
        <time>2016-05-28T12:28:06Z</time>
      </trkpt>
      <trkpt lat="42.407051" lon="2.184968">
        <ele>2765.96</ele>
        <time>2016-05-28T12:28:18Z</time>
      </trkpt>
      <trkpt lat="42.407115" lon="2.184935">
        <ele>2767.89</ele>
        <time>2016-05-28T12:28:25Z</time>
      </trkpt>
      <trkpt lat="42.407159" lon="2.184904">
        <ele>2769.60</ele>
        <time>2016-05-28T12:28:31Z</time>
      </trkpt>
      <trkpt lat="42.407242" lon="2.184957">
        <ele>2773.66</ele>
        <time>2016-05-28T12:28:46Z</time>
      </trkpt>
      <trkpt lat="42.407355" lon="2.185007">
        <ele>2776.51</ele>
        <time>2016-05-28T12:29:02Z</time>
      </trkpt>
      <trkpt lat="42.407461" lon="2.185067">
        <ele>2779.09</ele>
        <time>2016-05-28T12:29:17Z</time>
      </trkpt>
      <trkpt lat="42.407544" lon="2.185106">
        <ele>2780.11</ele>
        <time>2016-05-28T12:29:30Z</time>
      </trkpt>
      <trkpt lat="42.407603" lon="2.185127">
        <ele>2781.11</ele>
        <time>2016-05-28T12:29:42Z</time>
      </trkpt>
      <trkpt lat="42.407692" lon="2.185216">
        <ele>2782.70</ele>
        <time>2016-05-28T12:29:55Z</time>
      </trkpt>
      <trkpt lat="42.407755" lon="2.185246">
        <ele>2783.64</ele>
        <time>2016-05-28T12:30:05Z</time>
      </trkpt>
      <trkpt lat="42.407818" lon="2.185321">
        <ele>2783.49</ele>
        <time>2016-05-28T12:30:23Z</time>
      </trkpt>
      <trkpt lat="42.407884" lon="2.185366">
        <ele>2783.15</ele>
        <time>2016-05-28T12:30:41Z</time>
      </trkpt>
      <trkpt lat="42.407905" lon="2.185364">
        <ele>2781.67</ele>
        <time>2016-05-28T12:31:00Z</time>
      </trkpt>
      <trkpt lat="42.407966" lon="2.185467">
        <ele>2779.43</ele>
        <time>2016-05-28T12:31:17Z</time>
      </trkpt>
      <trkpt lat="42.407991" lon="2.185562">
        <ele>2777.94</ele>
        <time>2016-05-28T12:31:34Z</time>
      </trkpt>
      <trkpt lat="42.408082" lon="2.185634">
        <ele>2775.67</ele>
        <time>2016-05-28T12:31:51Z</time>
      </trkpt>
      <trkpt lat="42.408165" lon="2.185776">
        <ele>2774.22</ele>
        <time>2016-05-28T12:32:11Z</time>
      </trkpt>
      <trkpt lat="42.408265" lon="2.185881">
        <ele>2772.75</ele>
        <time>2016-05-28T12:32:31Z</time>
      </trkpt>
      <trkpt lat="42.408340" lon="2.186011">
        <ele>2771.61</ele>
        <time>2016-05-28T12:32:47Z</time>
      </trkpt>
      <trkpt lat="42.408358" lon="2.186132">
        <ele>2770.41</ele>
        <time>2016-05-28T12:33:00Z</time>
      </trkpt>
      <trkpt lat="42.408435" lon="2.186293">
        <ele>2769.98</ele>
        <time>2016-05-28T12:33:14Z</time>
      </trkpt>
      <trkpt lat="42.408447" lon="2.186319">
        <ele>2769.96</ele>
        <time>2016-05-28T12:33:16Z</time>
      </trkpt>
      <trkpt lat="42.408456" lon="2.186368">
        <ele>2770.61</ele>
        <time>2016-05-28T12:33:25Z</time>
      </trkpt>
      <trkpt lat="42.408499" lon="2.186513">
        <ele>2776.20</ele>
        <time>2016-05-28T12:33:40Z</time>
      </trkpt>
      <trkpt lat="42.408518" lon="2.186560">
        <ele>2776.96</ele>
        <time>2016-05-28T12:33:44Z</time>
      </trkpt>
      <trkpt lat="42.408610" lon="2.186681">
        <ele>2778.98</ele>
        <time>2016-05-28T12:33:58Z</time>
      </trkpt>
      <trkpt lat="42.408683" lon="2.186790">
        <ele>2779.85</ele>
        <time>2016-05-28T12:34:17Z</time>
      </trkpt>
      <trkpt lat="42.408728" lon="2.186898">
        <ele>2780.23</ele>
        <time>2016-05-28T12:34:29Z</time>
      </trkpt>
      <trkpt lat="42.408721" lon="2.186941">
        <ele>2780.25</ele>
        <time>2016-05-28T12:34:33Z</time>
      </trkpt>
      <trkpt lat="42.408766" lon="2.187035">
        <ele>2780.85</ele>
        <time>2016-05-28T12:34:43Z</time>
      </trkpt>
      <trkpt lat="42.408798" lon="2.187094">
        <ele>2781.31</ele>
        <time>2016-05-28T12:34:47Z</time>
      </trkpt>
      <trkpt lat="42.408859" lon="2.187269">
        <ele>2783.23</ele>
        <time>2016-05-28T12:35:02Z</time>
      </trkpt>
      <trkpt lat="42.408905" lon="2.187319">
        <ele>2784.36</ele>
        <time>2016-05-28T12:35:08Z</time>
      </trkpt>
      <trkpt lat="42.408928" lon="2.187368">
        <ele>2785.29</ele>
        <time>2016-05-28T12:35:11Z</time>
      </trkpt>
      <trkpt lat="42.408963" lon="2.187432">
        <ele>2785.52</ele>
        <time>2016-05-28T12:35:16Z</time>
      </trkpt>
      <trkpt lat="42.408998" lon="2.187452">
        <ele>2785.93</ele>
        <time>2016-05-28T12:35:20Z</time>
      </trkpt>
      <trkpt lat="42.409052" lon="2.187529">
        <ele>2786.39</ele>
        <time>2016-05-28T12:35:26Z</time>
      </trkpt>
      <trkpt lat="42.409140" lon="2.187643">
        <ele>2786.88</ele>
        <time>2016-05-28T12:35:35Z</time>
      </trkpt>
      <trkpt lat="42.409148" lon="2.187656">
        <ele>2786.97</ele>
        <time>2016-05-28T12:35:36Z</time>
      </trkpt>
      <trkpt lat="42.409278" lon="2.187881">
        <ele>2788.00</ele>
        <time>2016-05-28T12:35:53Z</time>
      </trkpt>
      <trkpt lat="42.409310" lon="2.187894">
        <ele>2788.69</ele>
        <time>2016-05-28T12:36:23Z</time>
      </trkpt>
      <trkpt lat="42.409410" lon="2.188040">
        <ele>2789.49</ele>
        <time>2016-05-28T12:36:44Z</time>
      </trkpt>
      <trkpt lat="42.409524" lon="2.188191">
        <ele>2793.21</ele>
        <time>2016-05-28T12:37:00Z</time>
      </trkpt>
      <trkpt lat="42.409672" lon="2.188321">
        <ele>2793.91</ele>
        <time>2016-05-28T12:37:16Z</time>
      </trkpt>
      <trkpt lat="42.409836" lon="2.188486">
        <ele>2796.26</ele>
        <time>2016-05-28T12:37:35Z</time>
      </trkpt>
      <trkpt lat="42.409882" lon="2.188523">
        <ele>2796.63</ele>
        <time>2016-05-28T12:37:40Z</time>
      </trkpt>
      <trkpt lat="42.409973" lon="2.188585">
        <ele>2796.47</ele>
        <time>2016-05-28T12:37:50Z</time>
      </trkpt>
      <trkpt lat="42.410037" lon="2.188587">
        <ele>2796.78</ele>
        <time>2016-05-28T12:37:55Z</time>
      </trkpt>
      <trkpt lat="42.410056" lon="2.188604">
        <ele>2796.80</ele>
        <time>2016-05-28T12:37:57Z</time>
      </trkpt>
      <trkpt lat="42.410089" lon="2.188644">
        <ele>2796.73</ele>
        <time>2016-05-28T12:38:01Z</time>
      </trkpt>
      <trkpt lat="42.410119" lon="2.188677">
        <ele>2796.13</ele>
        <time>2016-05-28T12:38:08Z</time>
      </trkpt>
      <trkpt lat="42.410168" lon="2.188806">
        <ele>2794.37</ele>
        <time>2016-05-28T12:38:27Z</time>
      </trkpt>
      <trkpt lat="42.410230" lon="2.188856">
        <ele>2793.35</ele>
        <time>2016-05-28T12:38:39Z</time>
      </trkpt>
      <trkpt lat="42.410244" lon="2.188873">
        <ele>2793.23</ele>
        <time>2016-05-28T12:38:41Z</time>
      </trkpt>
      <trkpt lat="42.410387" lon="2.189023">
        <ele>2793.01</ele>
        <time>2016-05-28T12:38:55Z</time>
      </trkpt>
      <trkpt lat="42.410400" lon="2.189048">
        <ele>2793.11</ele>
        <time>2016-05-28T12:38:57Z</time>
      </trkpt>
      <trkpt lat="42.410445" lon="2.189045">
        <ele>2792.36</ele>
        <time>2016-05-28T12:39:18Z</time>
      </trkpt>
      <trkpt lat="42.410410" lon="2.189085">
        <ele>2791.25</ele>
        <time>2016-05-28T12:39:36Z</time>
      </trkpt>
      <trkpt lat="42.410445" lon="2.189114">
        <ele>2790.33</ele>
        <time>2016-05-28T12:39:55Z</time>
      </trkpt>
      <trkpt lat="42.410486" lon="2.189149">
        <ele>2790.16</ele>
        <time>2016-05-28T12:40:21Z</time>
      </trkpt>
      <trkpt lat="42.410505" lon="2.189303">
        <ele>2788.64</ele>
        <time>2016-05-28T12:40:39Z</time>
      </trkpt>
      <trkpt lat="42.410623" lon="2.189421">
        <ele>2786.99</ele>
        <time>2016-05-28T12:40:58Z</time>
      </trkpt>
      <trkpt lat="42.410694" lon="2.189494">
        <ele>2785.87</ele>
        <time>2016-05-28T12:41:13Z</time>
      </trkpt>
      <trkpt lat="42.410746" lon="2.189591">
        <ele>2784.68</ele>
        <time>2016-05-28T12:41:34Z</time>
      </trkpt>
      <trkpt lat="42.410882" lon="2.189653">
        <ele>2785.04</ele>
        <time>2016-05-28T12:41:55Z</time>
      </trkpt>
      <trkpt lat="42.410914" lon="2.189731">
        <ele>2784.40</ele>
        <time>2016-05-28T12:42:18Z</time>
      </trkpt>
      <trkpt lat="42.411071" lon="2.189836">
        <ele>2780.91</ele>
        <time>2016-05-28T12:42:41Z</time>
      </trkpt>
      <trkpt lat="42.411097" lon="2.189854">
        <ele>2780.51</ele>
        <time>2016-05-28T12:42:45Z</time>
      </trkpt>
      <trkpt lat="42.411166" lon="2.189914">
        <ele>2776.66</ele>
        <time>2016-05-28T12:43:05Z</time>
      </trkpt>
      <trkpt lat="42.411214" lon="2.189921">
        <ele>2774.16</ele>
        <time>2016-05-28T12:43:13Z</time>
      </trkpt>
      <trkpt lat="42.411313" lon="2.190040">
        <ele>2770.54</ele>
        <time>2016-05-28T12:43:27Z</time>
      </trkpt>
      <trkpt lat="42.411397" lon="2.190135">
        <ele>2769.11</ele>
        <time>2016-05-28T12:43:39Z</time>
      </trkpt>
      <trkpt lat="42.411544" lon="2.190259">
        <ele>2769.19</ele>
        <time>2016-05-28T12:43:55Z</time>
      </trkpt>
      <trkpt lat="42.411599" lon="2.190267">
        <ele>2768.74</ele>
        <time>2016-05-28T12:44:07Z</time>
      </trkpt>
      <trkpt lat="42.411661" lon="2.190332">
        <ele>2766.23</ele>
        <time>2016-05-28T12:44:26Z</time>
      </trkpt>
      <trkpt lat="42.411753" lon="2.190479">
        <ele>2763.39</ele>
        <time>2016-05-28T12:44:45Z</time>
      </trkpt>
      <trkpt lat="42.411835" lon="2.190544">
        <ele>2761.19</ele>
        <time>2016-05-28T12:45:03Z</time>
      </trkpt>
      <trkpt lat="42.411920" lon="2.190587">
        <ele>2759.49</ele>
        <time>2016-05-28T12:45:18Z</time>
      </trkpt>
      <trkpt lat="42.412059" lon="2.190639">
        <ele>2757.91</ele>
        <time>2016-05-28T12:45:39Z</time>
      </trkpt>
      <trkpt lat="42.412082" lon="2.190664">
        <ele>2755.12</ele>
        <time>2016-05-28T12:45:59Z</time>
      </trkpt>
      <trkpt lat="42.412178" lon="2.190720">
        <ele>2751.49</ele>
        <time>2016-05-28T12:46:12Z</time>
      </trkpt>
      <trkpt lat="42.412209" lon="2.190718">
        <ele>2750.95</ele>
        <time>2016-05-28T12:46:16Z</time>
      </trkpt>
      <trkpt lat="42.412329" lon="2.190768">
        <ele>2749.97</ele>
        <time>2016-05-28T12:46:30Z</time>
      </trkpt>
      <trkpt lat="42.412433" lon="2.190784">
        <ele>2749.17</ele>
        <time>2016-05-28T12:46:44Z</time>
      </trkpt>
      <trkpt lat="42.412458" lon="2.190786">
        <ele>2749.22</ele>
        <time>2016-05-28T12:46:46Z</time>
      </trkpt>
      <trkpt lat="42.412503" lon="2.190784">
        <ele>2749.37</ele>
        <time>2016-05-28T12:46:56Z</time>
      </trkpt>
      <trkpt lat="42.412671" lon="2.190783">
        <ele>2750.31</ele>
        <time>2016-05-28T12:47:12Z</time>
      </trkpt>
      <trkpt lat="42.412732" lon="2.190774">
        <ele>2751.18</ele>
        <time>2016-05-28T12:47:17Z</time>
      </trkpt>
      <trkpt lat="42.412943" lon="2.190746">
        <ele>2752.43</ele>
        <time>2016-05-28T12:47:35Z</time>
      </trkpt>
      <trkpt lat="42.413061" lon="2.190756">
        <ele>2753.08</ele>
        <time>2016-05-28T12:47:46Z</time>
      </trkpt>
      <trkpt lat="42.413204" lon="2.190798">
        <ele>2754.41</ele>
        <time>2016-05-28T12:48:01Z</time>
      </trkpt>
      <trkpt lat="42.413366" lon="2.190845">
        <ele>2756.91</ele>
        <time>2016-05-28T12:48:17Z</time>
      </trkpt>
      <trkpt lat="42.413504" lon="2.190824">
        <ele>2758.87</ele>
        <time>2016-05-28T12:48:31Z</time>
      </trkpt>
      <trkpt lat="42.413633" lon="2.190838">
        <ele>2759.13</ele>
        <time>2016-05-28T12:48:53Z</time>
      </trkpt>
      <trkpt lat="42.413711" lon="2.190833">
        <ele>2759.93</ele>
        <time>2016-05-28T12:49:15Z</time>
      </trkpt>
      <trkpt lat="42.413776" lon="2.190806">
        <ele>2760.22</ele>
        <time>2016-05-28T12:49:31Z</time>
      </trkpt>
      <trkpt lat="42.413814" lon="2.190807">
        <ele>2760.32</ele>
        <time>2016-05-28T12:49:36Z</time>
      </trkpt>
      <trkpt lat="42.413894" lon="2.190872">
        <ele>2760.83</ele>
        <time>2016-05-28T12:49:53Z</time>
      </trkpt>
      <trkpt lat="42.413908" lon="2.190877">
        <ele>2761.77</ele>
        <time>2016-05-28T12:50:23Z</time>
      </trkpt>
      <trkpt lat="42.413905" lon="2.190797">
        <ele>2760.03</ele>
        <time>2016-05-28T12:50:36Z</time>
      </trkpt>
      <trkpt lat="42.413923" lon="2.190787">
        <ele>2759.73</ele>
        <time>2016-05-28T12:50:38Z</time>
      </trkpt>
      <trkpt lat="42.414066" lon="2.190762">
        <ele>2759.42</ele>
        <time>2016-05-28T12:50:54Z</time>
      </trkpt>
      <trkpt lat="42.414097" lon="2.190769">
        <ele>2759.21</ele>
        <time>2016-05-28T12:50:57Z</time>
      </trkpt>
      <trkpt lat="42.414128" lon="2.190763">
        <ele>2758.62</ele>
        <time>2016-05-28T12:51:02Z</time>
      </trkpt>
      <trkpt lat="42.414227" lon="2.190772">
        <ele>2756.97</ele>
        <time>2016-05-28T12:51:17Z</time>
      </trkpt>
      <trkpt lat="42.414243" lon="2.190775">
        <ele>2756.89</ele>
        <time>2016-05-28T12:51:19Z</time>
      </trkpt>
      <trkpt lat="42.414283" lon="2.190778">
        <ele>2755.86</ele>
        <time>2016-05-28T12:51:35Z</time>
      </trkpt>
      <trkpt lat="42.414381" lon="2.190722">
        <ele>2754.83</ele>
        <time>2016-05-28T12:51:48Z</time>
      </trkpt>
      <trkpt lat="42.414413" lon="2.190716">
        <ele>2755.25</ele>
        <time>2016-05-28T12:51:51Z</time>
      </trkpt>
      <trkpt lat="42.414431" lon="2.190704">
        <ele>2755.67</ele>
        <time>2016-05-28T12:51:58Z</time>
      </trkpt>
      <trkpt lat="42.414604" lon="2.190690">
        <ele>2758.46</ele>
        <time>2016-05-28T12:52:14Z</time>
      </trkpt>
      <trkpt lat="42.414650" lon="2.190683">
        <ele>2759.57</ele>
        <time>2016-05-28T12:52:19Z</time>
      </trkpt>
      <trkpt lat="42.414663" lon="2.190681">
        <ele>2759.84</ele>
        <time>2016-05-28T12:52:21Z</time>
      </trkpt>
      <trkpt lat="42.414758" lon="2.190678">
        <ele>2763.11</ele>
        <time>2016-05-28T12:52:35Z</time>
      </trkpt>
      <trkpt lat="42.414792" lon="2.190667">
        <ele>2764.11</ele>
        <time>2016-05-28T12:52:39Z</time>
      </trkpt>
      <trkpt lat="42.414842" lon="2.190685">
        <ele>2765.61</ele>
        <time>2016-05-28T12:53:00Z</time>
      </trkpt>
      <trkpt lat="42.414882" lon="2.190670">
        <ele>2766.07</ele>
        <time>2016-05-28T12:53:16Z</time>
      </trkpt>
      <trkpt lat="42.414962" lon="2.190652">
        <ele>2766.72</ele>
        <time>2016-05-28T12:53:31Z</time>
      </trkpt>
      <trkpt lat="42.415062" lon="2.190660">
        <ele>2766.98</ele>
        <time>2016-05-28T12:53:46Z</time>
      </trkpt>
      <trkpt lat="42.415125" lon="2.190645">
        <ele>2767.60</ele>
        <time>2016-05-28T12:53:53Z</time>
      </trkpt>
      <trkpt lat="42.415220" lon="2.190696">
        <ele>2768.16</ele>
        <time>2016-05-28T12:54:02Z</time>
      </trkpt>
      <trkpt lat="42.415359" lon="2.190673">
        <ele>2767.90</ele>
        <time>2016-05-28T12:54:17Z</time>
      </trkpt>
      <trkpt lat="42.415436" lon="2.190594">
        <ele>2766.73</ele>
        <time>2016-05-28T12:54:30Z</time>
      </trkpt>
      <trkpt lat="42.415516" lon="2.190536">
        <ele>2765.25</ele>
        <time>2016-05-28T12:54:45Z</time>
      </trkpt>
      <trkpt lat="42.415670" lon="2.190514">
        <ele>2763.52</ele>
        <time>2016-05-28T12:54:59Z</time>
      </trkpt>
      <trkpt lat="42.415817" lon="2.190512">
        <ele>2762.79</ele>
        <time>2016-05-28T12:55:11Z</time>
      </trkpt>
      <trkpt lat="42.415962" lon="2.190477">
        <ele>2762.41</ele>
        <time>2016-05-28T12:55:25Z</time>
      </trkpt>
      <trkpt lat="42.415995" lon="2.190494">
        <ele>2763.43</ele>
        <time>2016-05-28T12:55:45Z</time>
      </trkpt>
      <trkpt lat="42.416009" lon="2.190504">
        <ele>2766.42</ele>
        <time>2016-05-28T12:56:08Z</time>
      </trkpt>
      <trkpt lat="42.416016" lon="2.190510">
        <ele>2773.60</ele>
        <time>2016-05-28T12:56:30Z</time>
      </trkpt>
      <trkpt lat="42.416074" lon="2.190509">
        <ele>2775.05</ele>
        <time>2016-05-28T12:56:35Z</time>
      </trkpt>
      <trkpt lat="42.416195" lon="2.190482">
        <ele>2778.36</ele>
        <time>2016-05-28T12:56:47Z</time>
      </trkpt>
      <trkpt lat="42.416273" lon="2.190519">
        <ele>2780.66</ele>
        <time>2016-05-28T12:56:54Z</time>
      </trkpt>
      <trkpt lat="42.416341" lon="2.190470">
        <ele>2783.44</ele>
        <time>2016-05-28T12:57:04Z</time>
      </trkpt>
      <trkpt lat="42.416414" lon="2.190436">
        <ele>2786.21</ele>
        <time>2016-05-28T12:57:16Z</time>
      </trkpt>
      <trkpt lat="42.416467" lon="2.190371">
        <ele>2787.58</ele>
        <time>2016-05-28T12:57:22Z</time>
      </trkpt>
      <trkpt lat="42.416498" lon="2.190346">
        <ele>2788.30</ele>
        <time>2016-05-28T12:57:25Z</time>
      </trkpt>
      <trkpt lat="42.416525" lon="2.190297">
        <ele>2788.93</ele>
        <time>2016-05-28T12:57:31Z</time>
      </trkpt>
      <trkpt lat="42.416575" lon="2.190275">
        <ele>2789.81</ele>
        <time>2016-05-28T12:57:36Z</time>
      </trkpt>
      <trkpt lat="42.416641" lon="2.190234">
        <ele>2791.23</ele>
        <time>2016-05-28T12:57:44Z</time>
      </trkpt>
      <trkpt lat="42.416654" lon="2.190233">
        <ele>2791.51</ele>
        <time>2016-05-28T12:57:46Z</time>
      </trkpt>
      <trkpt lat="42.416757" lon="2.190181">
        <ele>2793.19</ele>
        <time>2016-05-28T12:57:57Z</time>
      </trkpt>
      <trkpt lat="42.416818" lon="2.190155">
        <ele>2794.29</ele>
        <time>2016-05-28T12:58:03Z</time>
      </trkpt>
      <trkpt lat="42.416879" lon="2.190106">
        <ele>2794.76</ele>
        <time>2016-05-28T12:58:09Z</time>
      </trkpt>
      <trkpt lat="42.416962" lon="2.190033">
        <ele>2795.74</ele>
        <time>2016-05-28T12:58:26Z</time>
      </trkpt>
      <trkpt lat="42.417048" lon="2.189985">
        <ele>2796.44</ele>
        <time>2016-05-28T12:58:37Z</time>
      </trkpt>
      <trkpt lat="42.417065" lon="2.189960">
        <ele>2796.54</ele>
        <time>2016-05-28T12:58:40Z</time>
      </trkpt>
      <trkpt lat="42.417215" lon="2.189833">
        <ele>2797.03</ele>
        <time>2016-05-28T12:58:54Z</time>
      </trkpt>
      <trkpt lat="42.417249" lon="2.189780">
        <ele>2797.12</ele>
        <time>2016-05-28T12:59:19Z</time>
      </trkpt>
      <trkpt lat="42.417381" lon="2.189694">
        <ele>2797.35</ele>
        <time>2016-05-28T12:59:36Z</time>
      </trkpt>
      <trkpt lat="42.417425" lon="2.189715">
        <ele>2797.01</ele>
        <time>2016-07-03T12:34:30Z</time>
      </trkpt>
      <trkpt lat="42.417367" lon="2.189966">
        <ele>2802.04</ele>
        <time>2016-07-03T12:34:31Z</time>
      </trkpt>
      <trkpt lat="42.417357" lon="2.190097">
        <ele>2802.02</ele>
        <time>2016-07-03T12:34:32Z</time>
      </trkpt>
      <trkpt lat="42.417351" lon="2.190344">
        <ele>2806.05</ele>
        <time>2016-07-03T12:34:33Z</time>
      </trkpt>
      <trkpt lat="42.417356" lon="2.190476">
        <ele>2808.02</ele>
        <time>2016-07-03T12:34:34Z</time>
      </trkpt>
      <trkpt lat="42.417493" lon="2.190649">
        <ele>2806.06</ele>
        <time>2016-07-03T12:34:35Z</time>
      </trkpt>
      <trkpt lat="42.417572" lon="2.190728">
        <ele>2808.06</ele>
        <time>2016-07-03T12:34:36Z</time>
      </trkpt>
      <trkpt lat="42.417747" lon="2.190834">
        <ele>2805.07</ele>
        <time>2016-07-03T12:34:37Z</time>
      </trkpt>
      <trkpt lat="42.417944" lon="2.190859">
        <ele>2796.01</ele>
        <time>2016-07-03T12:34:38Z</time>
      </trkpt>
      <trkpt lat="42.418034" lon="2.190842">
        <ele>2795.02</ele>
        <time>2016-07-03T12:34:39Z</time>
      </trkpt>
      <trkpt lat="42.418236" lon="2.190842">
        <ele>2793.06</ele>
        <time>2016-07-03T12:34:40Z</time>
      </trkpt>
      <trkpt lat="42.418343" lon="2.190847">
        <ele>2795.06</ele>
        <time>2016-07-03T12:34:41Z</time>
      </trkpt>
      <trkpt lat="42.418541" lon="2.190887">
        <ele>2799.09</ele>
        <time>2016-07-03T12:34:42Z</time>
      </trkpt>
      <trkpt lat="42.418480" lon="2.190999">
        <ele>2797.07</ele>
        <time>2016-07-03T12:34:43Z</time>
      </trkpt>
      <trkpt lat="42.418391" lon="2.191089">
        <ele>2793.08</ele>
        <time>2016-07-03T12:34:44Z</time>
      </trkpt>
      <trkpt lat="42.418286" lon="2.191321">
        <ele>2789.05</ele>
        <time>2016-07-03T12:34:45Z</time>
      </trkpt>
      <trkpt lat="42.418233" lon="2.191427">
        <ele>2786.01</ele>
        <time>2016-07-03T12:34:46Z</time>
      </trkpt>
      <trkpt lat="42.418260" lon="2.191685">
        <ele>2784.05</ele>
        <time>2016-07-03T12:34:47Z</time>
      </trkpt>
      <trkpt lat="42.418289" lon="2.191942">
        <ele>2778.01</ele>
        <time>2016-07-03T12:34:48Z</time>
      </trkpt>
      <trkpt lat="42.418327" lon="2.192062">
        <ele>2776.07</ele>
        <time>2016-07-03T12:34:49Z</time>
      </trkpt>
      <trkpt lat="42.418349" lon="2.192320">
        <ele>2772.03</ele>
        <time>2016-07-03T12:34:50Z</time>
      </trkpt>
      <trkpt lat="42.418368" lon="2.192452">
        <ele>2771.06</ele>
        <time>2016-07-03T12:34:51Z</time>
      </trkpt>
      <trkpt lat="42.418385" lon="2.192720">
        <ele>2767.05</ele>
        <time>2016-07-03T12:34:52Z</time>
      </trkpt>
      <trkpt lat="42.418395" lon="2.192843">
        <ele>2764.02</ele>
        <time>2016-07-03T12:34:53Z</time>
      </trkpt>
      <trkpt lat="42.418423" lon="2.193108">
        <ele>2759.02</ele>
        <time>2016-07-03T12:34:54Z</time>
      </trkpt>
      <trkpt lat="42.418418" lon="2.193238">
        <ele>2757.03</ele>
        <time>2016-07-03T12:34:55Z</time>
      </trkpt>
      <trkpt lat="42.418445" lon="2.193511">
        <ele>2754.05</ele>
        <time>2016-07-03T12:34:56Z</time>
      </trkpt>
      <trkpt lat="42.418452" lon="2.193642">
        <ele>2754.04</ele>
        <time>2016-07-03T12:34:57Z</time>
      </trkpt>
      <trkpt lat="42.418486" lon="2.193907">
        <ele>2751.03</ele>
        <time>2016-07-03T12:34:58Z</time>
      </trkpt>
      <trkpt lat="42.418492" lon="2.194050">
        <ele>2749.06</ele>
        <time>2016-07-03T12:34:59Z</time>
      </trkpt>
      <trkpt lat="42.418478" lon="2.194314">
        <ele>2747.07</ele>
        <time>2016-07-03T12:35:00Z</time>
      </trkpt>
      <trkpt lat="42.418458" lon="2.194461">
        <ele>2745.07</ele>
        <time>2016-07-03T12:35:01Z</time>
      </trkpt>
      <trkpt lat="42.418386" lon="2.194694">
        <ele>2742.02</ele>
        <time>2016-07-03T12:35:02Z</time>
      </trkpt>
      <trkpt lat="42.418326" lon="2.194794">
        <ele>2743.04</ele>
        <time>2016-07-03T12:35:03Z</time>
      </trkpt>
      <trkpt lat="42.418250" lon="2.195062">
        <ele>2739.03</ele>
        <time>2016-07-03T12:35:04Z</time>
      </trkpt>
      <trkpt lat="42.418238" lon="2.195198">
        <ele>2737.09</ele>
        <time>2016-07-03T12:35:05Z</time>
      </trkpt>
      <trkpt lat="42.418182" lon="2.195442">
        <ele>2733.08</ele>
        <time>2016-07-03T12:35:06Z</time>
      </trkpt>
      <trkpt lat="42.418148" lon="2.195568">
        <ele>2736.09</ele>
        <time>2016-07-03T12:35:07Z</time>
      </trkpt>
      <trkpt lat="42.418073" lon="2.195803">
        <ele>2738.08</ele>
        <time>2016-07-03T12:35:08Z</time>
      </trkpt>
      <trkpt lat="42.418003" lon="2.195901">
        <ele>2734.09</ele>
        <time>2016-07-03T12:35:09Z</time>
      </trkpt>
      <trkpt lat="42.417928" lon="2.196150">
        <ele>2732.03</ele>
        <time>2016-07-03T12:35:10Z</time>
      </trkpt>
      <trkpt lat="42.417866" lon="2.196252">
        <ele>2732.04</ele>
        <time>2016-07-03T12:35:11Z</time>
      </trkpt>
      <trkpt lat="42.417800" lon="2.196497">
        <ele>2735.13</ele>
        <time>2016-07-03T12:35:12Z</time>
      </trkpt>
      <trkpt lat="42.417759" lon="2.196618">
        <ele>2735.04</ele>
        <time>2016-07-03T12:35:13Z</time>
      </trkpt>
      <trkpt lat="42.417679" lon="2.196856">
        <ele>2737.09</ele>
        <time>2016-07-03T12:35:14Z</time>
      </trkpt>
      <trkpt lat="42.417625" lon="2.197106">
        <ele>2736.18</ele>
        <time>2016-07-03T12:35:15Z</time>
      </trkpt>
      <trkpt lat="42.417612" lon="2.197231">
        <ele>2743.07</ele>
        <time>2016-07-03T12:35:16Z</time>
      </trkpt>
      <trkpt lat="42.417536" lon="2.197467">
        <ele>2750.01</ele>
        <time>2016-07-03T12:35:17Z</time>
      </trkpt>
      <trkpt lat="42.417518" lon="2.197590">
        <ele>2749.01</ele>
        <time>2016-07-03T12:35:18Z</time>
      </trkpt>
      <trkpt lat="42.417436" lon="2.197838">
        <ele>2756.06</ele>
        <time>2016-07-03T12:35:19Z</time>
      </trkpt>
      <trkpt lat="42.417362" lon="2.197907">
        <ele>2753.03</ele>
        <time>2016-07-03T12:35:20Z</time>
      </trkpt>
      <trkpt lat="42.417298" lon="2.198150">
        <ele>2756.08</ele>
        <time>2016-07-03T12:35:21Z</time>
      </trkpt>
      <trkpt lat="42.417147" lon="2.198286">
        <ele>2760.06</ele>
        <time>2016-07-03T12:35:22Z</time>
      </trkpt>
      <trkpt lat="42.417080" lon="2.198390">
        <ele>2759.08</ele>
        <time>2016-07-03T12:35:23Z</time>
      </trkpt>
      <trkpt lat="42.416981" lon="2.198625">
        <ele>2765.05</ele>
        <time>2016-07-03T12:35:24Z</time>
      </trkpt>
      <trkpt lat="42.416932" lon="2.198730">
        <ele>2767.01</ele>
        <time>2016-07-03T12:35:25Z</time>
      </trkpt>
      <trkpt lat="42.416867" lon="2.198975">
        <ele>2775.03</ele>
        <time>2016-07-03T12:35:26Z</time>
      </trkpt>
      <trkpt lat="42.416727" lon="2.199138">
        <ele>2778.17</ele>
        <time>2016-07-03T12:35:27Z</time>
      </trkpt>
      <trkpt lat="42.416662" lon="2.199230">
        <ele>2782.01</ele>
        <time>2016-07-03T12:35:28Z</time>
      </trkpt>
      <trkpt lat="42.416556" lon="2.199444">
        <ele>2788.08</ele>
        <time>2016-07-03T12:35:29Z</time>
      </trkpt>
      <trkpt lat="42.416512" lon="2.199553">
        <ele>2793.02</ele>
        <time>2016-07-03T12:35:30Z</time>
      </trkpt>
      <trkpt lat="42.416478" lon="2.199804">
        <ele>2797.04</ele>
        <time>2016-07-03T12:35:31Z</time>
      </trkpt>
      <trkpt lat="42.416494" lon="2.199940">
        <ele>2797.08</ele>
        <time>2016-07-03T12:35:32Z</time>
      </trkpt>
      <trkpt lat="42.416514" lon="2.200187">
        <ele>2799.02</ele>
        <time>2016-07-03T12:35:33Z</time>
      </trkpt>
      <trkpt lat="42.416480" lon="2.200443">
        <ele>2797.08</ele>
        <time>2016-07-03T12:35:34Z</time>
      </trkpt>
      <trkpt lat="42.416474" lon="2.200571">
        <ele>2798.02</ele>
        <time>2016-07-03T12:35:35Z</time>
      </trkpt>
      <trkpt lat="42.416391" lon="2.200812">
        <ele>2797.02</ele>
        <time>2016-07-03T12:35:36Z</time>
      </trkpt>
      <trkpt lat="42.416341" lon="2.200935">
        <ele>2798.08</ele>
        <time>2016-07-03T12:35:37Z</time>
      </trkpt>
      <trkpt lat="42.416251" lon="2.201158">
        <ele>2798.07</ele>
        <time>2016-07-03T12:35:38Z</time>
      </trkpt>
      <trkpt lat="42.416230" lon="2.201284">
        <ele>2798.08</ele>
        <time>2016-07-03T12:35:39Z</time>
      </trkpt>
      <trkpt lat="42.416226" lon="2.201548">
        <ele>2799.01</ele>
        <time>2016-07-03T12:35:40Z</time>
      </trkpt>
      <trkpt lat="42.416314" lon="2.201597">
        <ele>2803.01</ele>
        <time>2016-07-03T12:35:41Z</time>
      </trkpt>
      <trkpt lat="42.416499" lon="2.201568">
        <ele>2813.04</ele>
        <time>2016-07-03T12:35:42Z</time>
      </trkpt>
      <trkpt lat="42.416336" lon="2.201702">
        <ele>2809.07</ele>
        <time>2016-07-03T12:35:43Z</time>
      </trkpt>
      <trkpt lat="42.416349" lon="2.201837">
        <ele>2806.09</ele>
        <time>2016-07-03T12:35:44Z</time>
      </trkpt>
      <trkpt lat="42.416455" lon="2.202052">
        <ele>2803.02</ele>
        <time>2016-07-03T12:35:45Z</time>
      </trkpt>
      <trkpt lat="42.416440" lon="2.202176">
        <ele>2801.02</ele>
        <time>2016-07-03T12:35:46Z</time>
      </trkpt>
      <trkpt lat="42.416493" lon="2.202427">
        <ele>2798.05</ele>
        <time>2016-07-03T12:35:47Z</time>
      </trkpt>
      <trkpt lat="42.416509" lon="2.202555">
        <ele>2797.01</ele>
        <time>2016-07-03T12:35:48Z</time>
      </trkpt>
      <trkpt lat="42.416610" lon="2.202811">
        <ele>2797.06</ele>
        <time>2016-07-03T12:35:49Z</time>
      </trkpt>
      <trkpt lat="42.416676" lon="2.202945">
        <ele>2797.09</ele>
        <time>2016-07-03T12:35:50Z</time>
      </trkpt>
      <trkpt lat="42.416733" lon="2.203060">
        <ele>2796.03</ele>
        <time>2016-07-03T12:35:51Z</time>
      </trkpt>
      <trkpt lat="42.416819" lon="2.203321">
        <ele>2795.05</ele>
        <time>2016-07-03T12:35:52Z</time>
      </trkpt>
      <trkpt lat="42.416841" lon="2.203463">
        <ele>2794.04</ele>
        <time>2016-07-03T12:35:53Z</time>
      </trkpt>
      <trkpt lat="42.416944" lon="2.203708">
        <ele>2792.07</ele>
        <time>2016-07-03T12:35:54Z</time>
      </trkpt>
      <trkpt lat="42.416994" lon="2.203830">
        <ele>2792.06</ele>
        <time>2016-07-03T12:35:55Z</time>
      </trkpt>
      <trkpt lat="42.417088" lon="2.204047">
        <ele>2796.01</ele>
        <time>2016-07-03T12:35:56Z</time>
      </trkpt>
      <trkpt lat="42.417106" lon="2.204170">
        <ele>2797.01</ele>
        <time>2016-07-03T12:35:57Z</time>
      </trkpt>
      <trkpt lat="42.417167" lon="2.204424">
        <ele>2799.03</ele>
        <time>2016-07-03T12:35:58Z</time>
      </trkpt>
      <trkpt lat="42.417188" lon="2.204562">
        <ele>2800.05</ele>
        <time>2016-07-03T12:35:59Z</time>
      </trkpt>
      <trkpt lat="42.417267" lon="2.204802">
        <ele>2805.06</ele>
        <time>2016-07-03T12:36:00Z</time>
      </trkpt>
      <trkpt lat="42.417286" lon="2.204932">
        <ele>2806.04</ele>
        <time>2016-07-03T12:36:01Z</time>
      </trkpt>
      <trkpt lat="42.417286" lon="2.205191">
        <ele>2808.02</ele>
        <time>2016-07-03T12:36:02Z</time>
      </trkpt>
      <trkpt lat="42.417310" lon="2.205326">
        <ele>2810.03</ele>
        <time>2016-07-03T12:36:03Z</time>
      </trkpt>
      <trkpt lat="42.417358" lon="2.205587">
        <ele>2810.01</ele>
        <time>2016-07-03T12:36:04Z</time>
      </trkpt>
      <trkpt lat="42.417373" lon="2.205711">
        <ele>2810.02</ele>
        <time>2016-07-03T12:36:05Z</time>
      </trkpt>
      <trkpt lat="42.417417" lon="2.205965">
        <ele>2812.07</ele>
        <time>2016-07-03T12:36:06Z</time>
      </trkpt>
      <trkpt lat="42.417524" lon="2.206167">
        <ele>2814.09</ele>
        <time>2016-07-03T12:36:07Z</time>
      </trkpt>
      <trkpt lat="42.417555" lon="2.206290">
        <ele>2815.08</ele>
        <time>2016-07-03T12:36:08Z</time>
      </trkpt>
      <trkpt lat="42.417665" lon="2.206509">
        <ele>2814.05</ele>
        <time>2016-07-03T12:36:09Z</time>
      </trkpt>
      <trkpt lat="42.417739" lon="2.206596">
        <ele>2813.05</ele>
        <time>2016-07-03T12:36:10Z</time>
      </trkpt>
      <trkpt lat="42.417925" lon="2.206586">
        <ele>2815.09</ele>
        <time>2016-07-03T12:36:11Z</time>
      </trkpt>
      <trkpt lat="42.418029" lon="2.206614">
        <ele>2812.01</ele>
        <time>2016-07-03T12:36:12Z</time>
      </trkpt>
      <trkpt lat="42.418216" lon="2.206674">
        <ele>2814.06</ele>
        <time>2016-07-03T12:36:13Z</time>
      </trkpt>
      <trkpt lat="42.418308" lon="2.206689">
        <ele>2815.05</ele>
        <time>2016-07-03T12:36:14Z</time>
      </trkpt>
      <trkpt lat="42.418503" lon="2.206691">
        <ele>2811.02</ele>
        <time>2016-07-03T12:36:15Z</time>
      </trkpt>
      <trkpt lat="42.418581" lon="2.206786">
        <ele>2811.03</ele>
        <time>2016-07-03T12:36:16Z</time>
      </trkpt>
      <trkpt lat="42.418781" lon="2.206806">
        <ele>2810.04</ele>
        <time>2016-07-03T12:36:17Z</time>
      </trkpt>
      <trkpt lat="42.418875" lon="2.206847">
        <ele>2808.03</ele>
        <time>2016-07-03T12:36:18Z</time>
      </trkpt>
      <trkpt lat="42.419055" lon="2.206921">
        <ele>2790.06</ele>
        <time>2016-07-03T12:36:19Z</time>
      </trkpt>
      <trkpt lat="42.419130" lon="2.207017">
        <ele>2788.01</ele>
        <time>2016-07-03T12:36:20Z</time>
      </trkpt>
      <trkpt lat="42.419305" lon="2.207130">
        <ele>2785.00</ele>
        <time>2016-07-03T12:36:21Z</time>
      </trkpt>
      <trkpt lat="42.419400" lon="2.207147">
        <ele>2783.05</ele>
        <time>2016-07-03T12:36:22Z</time>
      </trkpt>
      <trkpt lat="42.419569" lon="2.207320">
        <ele>2784.05</ele>
        <time>2016-07-03T12:36:23Z</time>
      </trkpt>
      <trkpt lat="42.419648" lon="2.207401">
        <ele>2782.14</ele>
        <time>2016-07-03T12:36:24Z</time>
      </trkpt>
      <trkpt lat="42.419676" lon="2.207660">
        <ele>2780.04</ele>
        <time>2016-07-03T12:36:25Z</time>
      </trkpt>
      <trkpt lat="42.419738" lon="2.207790">
        <ele>2778.05</ele>
        <time>2016-07-03T12:36:26Z</time>
      </trkpt>
      <trkpt lat="42.419698" lon="2.208032">
        <ele>2772.04</ele>
        <time>2016-07-03T12:36:27Z</time>
      </trkpt>
      <trkpt lat="42.419732" lon="2.208145">
        <ele>2768.01</ele>
        <time>2016-07-03T12:36:28Z</time>
      </trkpt>
      <trkpt lat="42.419739" lon="2.208420">
        <ele>2763.02</ele>
        <time>2016-07-03T12:36:29Z</time>
      </trkpt>
      <trkpt lat="42.419769" lon="2.208673">
        <ele>2752.09</ele>
        <time>2016-07-03T12:36:30Z</time>
      </trkpt>
      <trkpt lat="42.419755" lon="2.208810">
        <ele>2754.02</ele>
        <time>2016-07-03T12:36:31Z</time>
      </trkpt>
      <trkpt lat="42.419742" lon="2.209077">
        <ele>2742.02</ele>
        <time>2016-07-03T12:36:32Z</time>
      </trkpt>
      <trkpt lat="42.419750" lon="2.209207">
        <ele>2735.10</ele>
        <time>2016-07-03T12:36:33Z</time>
      </trkpt>
      <trkpt lat="42.419860" lon="2.209415">
        <ele>2734.02</ele>
        <time>2016-07-03T12:36:34Z</time>
      </trkpt>
      <trkpt lat="42.419898" lon="2.209532">
        <ele>2734.07</ele>
        <time>2016-07-03T12:36:35Z</time>
      </trkpt>
      <trkpt lat="42.419935" lon="2.209786">
        <ele>2734.02</ele>
        <time>2016-07-03T12:36:36Z</time>
      </trkpt>
      <trkpt lat="42.419946" lon="2.209918">
        <ele>2734.06</ele>
        <time>2016-07-03T12:36:37Z</time>
      </trkpt>
      <trkpt lat="42.419976" lon="2.210170">
        <ele>2734.05</ele>
        <time>2016-07-03T12:36:38Z</time>
      </trkpt>
      <trkpt lat="42.420057" lon="2.210397">
        <ele>2737.08</ele>
        <time>2016-07-03T12:36:39Z</time>
      </trkpt>
      <trkpt lat="42.420103" lon="2.210510">
        <ele>2740.05</ele>
        <time>2016-07-03T12:36:40Z</time>
      </trkpt>
      <trkpt lat="42.420102" lon="2.210553">
        <ele>2740.03</ele>
        <time>2016-07-03T12:36:41Z</time>
      </trkpt>
      <trkpt lat="42.420162" lon="2.210657">
        <ele>2746.05</ele>
        <time>2016-07-03T12:36:42Z</time>
      </trkpt>
      <trkpt lat="42.420257" lon="2.210858">
        <ele>2749.01</ele>
        <time>2016-07-03T12:36:43Z</time>
      </trkpt>
      <trkpt lat="42.420302" lon="2.210967">
        <ele>2750.01</ele>
        <time>2016-07-03T12:36:44Z</time>
      </trkpt>
      <trkpt lat="42.420409" lon="2.211147">
        <ele>2756.07</ele>
        <time>2016-07-03T12:36:45Z</time>
      </trkpt>
      <trkpt lat="42.420504" lon="2.211370">
        <ele>2762.03</ele>
        <time>2016-07-03T12:36:46Z</time>
      </trkpt>
      <trkpt lat="42.420596" lon="2.211330">
        <ele>2767.08</ele>
        <time>2016-07-03T12:36:47Z</time>
      </trkpt>
      <trkpt lat="42.420643" lon="2.211579">
        <ele>2770.06</ele>
        <time>2016-07-03T12:36:48Z</time>
      </trkpt>
      <trkpt lat="42.420643" lon="2.211715">
        <ele>2773.03</ele>
        <time>2016-07-03T12:36:49Z</time>
      </trkpt>
      <trkpt lat="42.420722" lon="2.211972">
        <ele>2777.07</ele>
        <time>2016-07-03T12:36:50Z</time>
      </trkpt>
      <trkpt lat="42.420775" lon="2.212072">
        <ele>2780.01</ele>
        <time>2016-07-03T12:36:51Z</time>
      </trkpt>
      <trkpt lat="42.420862" lon="2.212292">
        <ele>2784.07</ele>
        <time>2016-07-03T12:36:52Z</time>
      </trkpt>
      <trkpt lat="42.420957" lon="2.212313">
        <ele>2788.09</ele>
        <time>2016-07-03T12:36:53Z</time>
      </trkpt>
      <trkpt lat="42.421061" lon="2.212435">
        <ele>2789.05</ele>
        <time>2016-07-03T12:36:54Z</time>
      </trkpt>
      <trkpt lat="42.421209" lon="2.212562">
        <ele>2785.07</ele>
        <time>2016-07-03T12:36:55Z</time>
      </trkpt>
      <trkpt lat="42.421285" lon="2.212629">
        <ele>2786.03</ele>
        <time>2016-07-03T12:36:56Z</time>
      </trkpt>
      <trkpt lat="42.421350" lon="2.212880">
        <ele>2794.07</ele>
        <time>2016-07-03T12:36:57Z</time>
      </trkpt>
      <trkpt lat="42.421423" lon="2.212965">
        <ele>2795.05</ele>
        <time>2016-07-03T12:36:58Z</time>
      </trkpt>
      <trkpt lat="42.421582" lon="2.213088">
        <ele>2793.01</ele>
        <time>2016-07-03T12:36:59Z</time>
      </trkpt>
      <trkpt lat="42.421652" lon="2.213184">
        <ele>2795.05</ele>
        <time>2016-07-03T12:37:00Z</time>
      </trkpt>
      <trkpt lat="42.421809" lon="2.213345">
        <ele>2798.04</ele>
        <time>2016-07-03T12:37:01Z</time>
      </trkpt>
      <trkpt lat="42.421877" lon="2.213431">
        <ele>2801.03</ele>
        <time>2016-07-03T12:37:02Z</time>
      </trkpt>
      <trkpt lat="42.421993" lon="2.213652">
        <ele>2809.06</ele>
        <time>2016-07-03T12:37:03Z</time>
      </trkpt>
      <trkpt lat="42.422080" lon="2.213726">
        <ele>2810.05</ele>
        <time>2016-07-03T12:37:04Z</time>
      </trkpt>
      <trkpt lat="42.422231" lon="2.213888">
        <ele>2815.01</ele>
        <time>2016-07-03T12:37:05Z</time>
      </trkpt>
      <trkpt lat="42.422315" lon="2.213956">
        <ele>2817.07</ele>
        <time>2016-07-03T12:37:06Z</time>
      </trkpt>
      <trkpt lat="42.422473" lon="2.214121">
        <ele>2821.01</ele>
        <time>2016-07-03T12:37:07Z</time>
      </trkpt>
      <trkpt lat="42.422546" lon="2.214225">
        <ele>2824.09</ele>
        <time>2016-07-03T12:37:08Z</time>
      </trkpt>
      <trkpt lat="42.422721" lon="2.214339">
        <ele>2826.04</ele>
        <time>2016-07-03T12:37:09Z</time>
      </trkpt>
      <trkpt lat="42.422905" lon="2.214411">
        <ele>2827.07</ele>
        <time>2016-07-03T12:37:10Z</time>
      </trkpt>
      <trkpt lat="42.422989" lon="2.214487">
        <ele>2828.09</ele>
        <time>2016-07-03T12:37:11Z</time>
      </trkpt>
      <trkpt lat="42.423168" lon="2.214596">
        <ele>2832.06</ele>
        <time>2016-07-03T12:37:12Z</time>
      </trkpt>
      <trkpt lat="42.423260" lon="2.214620">
        <ele>2832.06</ele>
        <time>2016-07-03T12:37:13Z</time>
      </trkpt>
      <trkpt lat="42.423443" lon="2.214551">
        <ele>2835.01</ele>
        <time>2016-07-03T12:37:14Z</time>
      </trkpt>
      <trkpt lat="42.423529" lon="2.214478">
        <ele>2837.02</ele>
        <time>2016-07-03T12:37:15Z</time>
      </trkpt>
      <trkpt lat="42.423660" lon="2.214280">
        <ele>2842.08</ele>
        <time>2016-07-03T12:37:16Z</time>
      </trkpt>
      <trkpt lat="42.423699" lon="2.214160">
        <ele>2843.04</ele>
        <time>2016-07-03T12:37:17Z</time>
      </trkpt>
      <trkpt lat="42.423818" lon="2.213959">
        <ele>2849.09</ele>
        <time>2016-07-03T12:37:18Z</time>
      </trkpt>
      <trkpt lat="42.423873" lon="2.213852">
        <ele>2854.09</ele>
        <time>2016-07-03T12:37:19Z</time>
      </trkpt>
      <trkpt lat="42.423919" lon="2.213932">
        <ele>2868.05</ele>
        <time>2016-07-03T12:37:20Z</time>
      </trkpt>
      <trkpt lat="42.423773" lon="2.214077">
        <ele>2872.10</ele>
        <time>2016-07-03T12:37:21Z</time>
      </trkpt>
      <trkpt lat="42.423698" lon="2.214156">
        <ele>2869.01</ele>
        <time>2016-07-03T12:37:22Z</time>
      </trkpt>
      <trkpt lat="42.423597" lon="2.214392">
        <ele>2860.04</ele>
        <time>2016-07-03T12:37:23Z</time>
      </trkpt>
      <trkpt lat="42.423514" lon="2.214483">
        <ele>2857.07</ele>
        <time>2016-07-03T12:37:24Z</time>
      </trkpt>
      <trkpt lat="42.423384" lon="2.214672">
        <ele>2848.04</ele>
        <time>2016-07-03T12:37:25Z</time>
      </trkpt>
      <trkpt lat="42.423343" lon="2.214785">
        <ele>2844.06</ele>
        <time>2016-07-03T12:37:26Z</time>
      </trkpt>
      <trkpt lat="42.423254" lon="2.215026">
        <ele>2838.07</ele>
        <time>2016-07-03T12:37:27Z</time>
      </trkpt>
      <trkpt lat="42.423218" lon="2.215156">
        <ele>2831.08</ele>
        <time>2016-07-03T12:37:28Z</time>
      </trkpt>
      <trkpt lat="42.423166" lon="2.215395">
        <ele>2820.06</ele>
        <time>2016-07-03T12:37:29Z</time>
      </trkpt>
      <trkpt lat="42.423130" lon="2.215536">
        <ele>2820.01</ele>
        <time>2016-07-03T12:37:30Z</time>
      </trkpt>
      <trkpt lat="42.423074" lon="2.215800">
        <ele>2816.07</ele>
        <time>2016-07-03T12:37:31Z</time>
      </trkpt>
      <trkpt lat="42.423071" lon="2.215931">
        <ele>2814.09</ele>
        <time>2016-07-03T12:37:32Z</time>
      </trkpt>
      <trkpt lat="42.423047" lon="2.216191">
        <ele>2812.06</ele>
        <time>2016-07-03T12:37:33Z</time>
      </trkpt>
      <trkpt lat="42.422988" lon="2.216301">
        <ele>2805.04</ele>
        <time>2016-07-03T12:37:34Z</time>
      </trkpt>
      <trkpt lat="42.422946" lon="2.216560">
        <ele>2798.18</ele>
        <time>2016-07-03T12:37:35Z</time>
      </trkpt>
      <trkpt lat="42.422953" lon="2.216696">
        <ele>2798.09</ele>
        <time>2016-07-03T12:37:36Z</time>
      </trkpt>
      <trkpt lat="42.422998" lon="2.216942">
        <ele>2793.03</ele>
        <time>2016-07-03T12:37:37Z</time>
      </trkpt>
      <trkpt lat="42.422994" lon="2.217065">
        <ele>2803.01</ele>
        <time>2016-07-03T12:37:38Z</time>
      </trkpt>
      <trkpt lat="42.423029" lon="2.217320">
        <ele>2807.02</ele>
        <time>2016-07-03T12:37:39Z</time>
      </trkpt>
      <trkpt lat="42.423024" lon="2.217569">
        <ele>2802.14</ele>
        <time>2016-07-03T12:37:40Z</time>
      </trkpt>
      <trkpt lat="42.422995" lon="2.217695">
        <ele>2803.02</ele>
        <time>2016-07-03T12:37:41Z</time>
      </trkpt>
      <trkpt lat="42.423010" lon="2.217942">
        <ele>2811.09</ele>
        <time>2016-07-03T12:37:42Z</time>
      </trkpt>
      <trkpt lat="42.422969" lon="2.218063">
        <ele>2803.15</ele>
        <time>2016-07-03T12:37:43Z</time>
      </trkpt>
      <trkpt lat="42.423047" lon="2.218298">
        <ele>2817.08</ele>
        <time>2016-07-03T12:37:44Z</time>
      </trkpt>
      <trkpt lat="42.423081" lon="2.218427">
        <ele>2823.08</ele>
        <time>2016-07-03T12:37:45Z</time>
      </trkpt>
      <trkpt lat="42.423042" lon="2.218688">
        <ele>2827.02</ele>
        <time>2016-07-03T12:37:46Z</time>
      </trkpt>
      <trkpt lat="42.423030" lon="2.218814">
        <ele>2831.01</ele>
        <time>2016-07-03T12:37:47Z</time>
      </trkpt>
      <trkpt lat="42.423042" lon="2.219060">
        <ele>2836.04</ele>
        <time>2016-07-03T12:37:48Z</time>
      </trkpt>
      <trkpt lat="42.423024" lon="2.219293">
        <ele>2842.02</ele>
        <time>2016-07-03T12:37:49Z</time>
      </trkpt>
      <trkpt lat="42.423031" lon="2.219442">
        <ele>2835.06</ele>
        <time>2016-07-03T12:37:50Z</time>
      </trkpt>
      <trkpt lat="42.423061" lon="2.219584">
        <ele>2837.05</ele>
        <time>2016-07-03T12:37:51Z</time>
      </trkpt>
      <trkpt lat="42.423156" lon="2.219808">
        <ele>2828.10</ele>
        <time>2016-07-03T12:37:52Z</time>
      </trkpt>
      <trkpt lat="42.423198" lon="2.220034">
        <ele>2819.01</ele>
        <time>2016-07-03T12:37:53Z</time>
      </trkpt>
      <trkpt lat="42.423267" lon="2.220118">
        <ele>2819.03</ele>
        <time>2016-07-03T12:37:54Z</time>
      </trkpt>
      <trkpt lat="42.423404" lon="2.220272">
        <ele>2807.09</ele>
        <time>2016-07-03T12:37:55Z</time>
      </trkpt>
      <trkpt lat="42.423414" lon="2.220405">
        <ele>2801.07</ele>
        <time>2016-07-03T12:37:56Z</time>
      </trkpt>
      <trkpt lat="42.423553" lon="2.220563">
        <ele>2792.08</ele>
        <time>2016-07-03T12:37:57Z</time>
      </trkpt>
      <trkpt lat="42.423684" lon="2.220748">
        <ele>2781.08</ele>
        <time>2016-07-03T12:37:58Z</time>
      </trkpt>
      <trkpt lat="42.423768" lon="2.220800">
        <ele>2784.03</ele>
        <time>2016-07-03T12:37:59Z</time>
      </trkpt>
      <trkpt lat="42.423928" lon="2.220916">
        <ele>2776.09</ele>
        <time>2016-07-03T12:38:00Z</time>
      </trkpt>
      <trkpt lat="42.423997" lon="2.221020">
        <ele>2768.01</ele>
        <time>2016-07-03T12:38:01Z</time>
      </trkpt>
      <trkpt lat="42.424121" lon="2.221250">
        <ele>2762.01</ele>
        <time>2016-07-03T12:38:02Z</time>
      </trkpt>
      <trkpt lat="42.424192" lon="2.221346">
        <ele>2763.02</ele>
        <time>2016-07-03T12:38:03Z</time>
      </trkpt>
      <trkpt lat="42.424320" lon="2.221543">
        <ele>2750.09</ele>
        <time>2016-07-03T12:38:04Z</time>
      </trkpt>
      <trkpt lat="42.424387" lon="2.221659">
        <ele>2745.02</ele>
        <time>2016-07-03T12:38:05Z</time>
      </trkpt>
      <trkpt lat="42.424529" lon="2.221868">
        <ele>2745.01</ele>
        <time>2016-07-03T12:38:06Z</time>
      </trkpt>
      <trkpt lat="42.424588" lon="2.221959">
        <ele>2744.09</ele>
        <time>2016-07-03T12:38:07Z</time>
      </trkpt>
      <trkpt lat="42.424720" lon="2.222163">
        <ele>2737.06</ele>
        <time>2016-07-03T12:38:08Z</time>
      </trkpt>
      <trkpt lat="42.424770" lon="2.222275">
        <ele>2734.01</ele>
        <time>2016-07-03T12:38:09Z</time>
      </trkpt>
      <trkpt lat="42.424861" lon="2.222504">
        <ele>2735.09</ele>
        <time>2016-07-03T12:38:10Z</time>
      </trkpt>
      <trkpt lat="42.424930" lon="2.222597">
        <ele>2741.09</ele>
        <time>2016-07-03T12:38:11Z</time>
      </trkpt>
      <trkpt lat="42.425010" lon="2.222819">
        <ele>2739.02</ele>
        <time>2016-07-03T12:38:12Z</time>
      </trkpt>
      <trkpt lat="42.425039" lon="2.222947">
        <ele>2740.07</ele>
        <time>2016-07-03T12:38:13Z</time>
      </trkpt>
      <trkpt lat="42.425170" lon="2.223140">
        <ele>2741.05</ele>
        <time>2016-07-03T12:38:14Z</time>
      </trkpt>
      <trkpt lat="42.425287" lon="2.223343">
        <ele>2743.05</ele>
        <time>2016-07-03T12:38:15Z</time>
      </trkpt>
      <trkpt lat="42.425367" lon="2.223403">
        <ele>2740.08</ele>
        <time>2016-07-03T12:38:16Z</time>
      </trkpt>
      <trkpt lat="42.425496" lon="2.223588">
        <ele>2733.01</ele>
        <time>2016-07-03T12:38:17Z</time>
      </trkpt>
      <trkpt lat="42.425481" lon="2.223710">
        <ele>2726.06</ele>
        <time>2016-07-03T12:38:18Z</time>
      </trkpt>
      <trkpt lat="42.425529" lon="2.223965">
        <ele>2723.03</ele>
        <time>2016-07-03T12:38:19Z</time>
      </trkpt>
      <trkpt lat="42.425588" lon="2.224070">
        <ele>2724.08</ele>
        <time>2016-07-03T12:38:20Z</time>
      </trkpt>
      <trkpt lat="42.425757" lon="2.224169">
        <ele>2722.09</ele>
        <time>2016-07-03T12:38:21Z</time>
      </trkpt>
      <trkpt lat="42.425813" lon="2.224266">
        <ele>2724.07</ele>
        <time>2016-07-03T12:38:22Z</time>
      </trkpt>
      <trkpt lat="42.425895" lon="2.224519">
        <ele>2705.10</ele>
        <time>2016-07-03T12:38:23Z</time>
      </trkpt>
      <trkpt lat="42.425959" lon="2.224749">
        <ele>2710.01</ele>
        <time>2016-07-03T12:38:24Z</time>
      </trkpt>
      <trkpt lat="42.425963" lon="2.224888">
        <ele>2713.03</ele>
        <time>2016-07-03T12:38:25Z</time>
      </trkpt>
      <trkpt lat="42.426022" lon="2.225129">
        <ele>2719.08</ele>
        <time>2016-07-03T12:38:26Z</time>
      </trkpt>
      <trkpt lat="42.426018" lon="2.225256">
        <ele>2718.09</ele>
        <time>2016-07-03T12:38:27Z</time>
      </trkpt>
      <trkpt lat="42.426089" lon="2.225477">
        <ele>2722.08</ele>
        <time>2016-07-03T12:38:28Z</time>
      </trkpt>
      <trkpt lat="42.426157" lon="2.225660">
        <ele>2730.17</ele>
        <time>2016-07-03T12:38:29Z</time>
      </trkpt>
      <trkpt lat="42.426144" lon="2.225792">
        <ele>2727.02</ele>
        <time>2016-07-03T12:38:30Z</time>
      </trkpt>
      <trkpt lat="42.426212" lon="2.226029">
        <ele>2737.08</ele>
        <time>2016-07-03T12:38:31Z</time>
      </trkpt>
      <trkpt lat="42.426216" lon="2.226160">
        <ele>2739.01</ele>
        <time>2016-07-03T12:38:32Z</time>
      </trkpt>
      <trkpt lat="42.426291" lon="2.226302">
        <ele>2744.01</ele>
        <time>2016-07-03T12:38:33Z</time>
      </trkpt>
      <trkpt lat="42.426266" lon="2.226421">
        <ele>2746.08</ele>
        <time>2016-07-03T12:38:34Z</time>
      </trkpt>
      <trkpt lat="42.426208" lon="2.226674">
        <ele>2744.05</ele>
        <time>2016-07-03T12:38:35Z</time>
      </trkpt>
      <trkpt lat="42.426243" lon="2.226921">
        <ele>2750.09</ele>
        <time>2016-07-03T12:38:36Z</time>
      </trkpt>
      <trkpt lat="42.426231" lon="2.227051">
        <ele>2752.03</ele>
        <time>2016-07-03T12:38:37Z</time>
      </trkpt>
      <trkpt lat="42.426270" lon="2.227294">
        <ele>2761.01</ele>
        <time>2016-07-03T12:38:38Z</time>
      </trkpt>
      <trkpt lat="42.426272" lon="2.227427">
        <ele>2762.07</ele>
        <time>2016-07-03T12:38:39Z</time>
      </trkpt>
      <trkpt lat="42.426257" lon="2.227683">
        <ele>2767.02</ele>
        <time>2016-07-03T12:38:40Z</time>
      </trkpt>
      <trkpt lat="42.426257" lon="2.227820">
        <ele>2770.09</ele>
        <time>2016-07-03T12:38:41Z</time>
      </trkpt>
      <trkpt lat="42.426308" lon="2.228065">
        <ele>2781.06</ele>
        <time>2016-07-03T12:38:42Z</time>
      </trkpt>
      <trkpt lat="42.426328" lon="2.228188">
        <ele>2787.06</ele>
        <time>2016-07-03T12:38:43Z</time>
      </trkpt>
      <trkpt lat="42.426359" lon="2.228431">
        <ele>2794.05</ele>
        <time>2016-07-03T12:38:44Z</time>
      </trkpt>
      <trkpt lat="42.426375" lon="2.228670">
        <ele>2805.06</ele>
        <time>2016-07-03T12:38:45Z</time>
      </trkpt>
      <trkpt lat="42.426379" lon="2.228794">
        <ele>2810.03</ele>
        <time>2016-07-03T12:38:46Z</time>
      </trkpt>
      <trkpt lat="42.426367" lon="2.229038">
        <ele>2815.01</ele>
        <time>2016-07-03T12:38:47Z</time>
      </trkpt>
      <trkpt lat="42.426372" lon="2.229167">
        <ele>2817.01</ele>
        <time>2016-07-03T12:38:48Z</time>
      </trkpt>
      <trkpt lat="42.426457" lon="2.229414">
        <ele>2824.05</ele>
        <time>2016-07-03T12:38:49Z</time>
      </trkpt>
      <trkpt lat="42.426507" lon="2.229521">
        <ele>2827.09</ele>
        <time>2016-07-03T12:38:50Z</time>
      </trkpt>
      <trkpt lat="42.426536" lon="2.229769">
        <ele>2833.02</ele>
        <time>2016-07-03T12:38:51Z</time>
      </trkpt>
      <trkpt lat="42.426640" lon="2.229980">
        <ele>2843.05</ele>
        <time>2016-07-03T12:38:52Z</time>
      </trkpt>
      <trkpt lat="42.426685" lon="2.230095">
        <ele>2846.03</ele>
        <time>2016-07-03T12:38:53Z</time>
      </trkpt>
      <trkpt lat="42.426763" lon="2.230320">
        <ele>2854.07</ele>
        <time>2016-07-03T12:38:54Z</time>
      </trkpt>
      <trkpt lat="42.426785" lon="2.230450">
        <ele>2859.01</ele>
        <time>2016-07-03T12:38:55Z</time>
      </trkpt>
      <trkpt lat="42.426818" lon="2.230693">
        <ele>2871.07</ele>
        <time>2016-07-03T12:38:56Z</time>
      </trkpt>
      <trkpt lat="42.426934" lon="2.230867">
        <ele>2878.09</ele>
        <time>2016-07-03T12:38:57Z</time>
      </trkpt>
      <trkpt lat="42.426845" lon="2.230946">
        <ele>2885.09</ele>
        <time>2016-07-03T12:38:58Z</time>
      </trkpt>
      <trkpt lat="42.426780" lon="2.231052">
        <ele>2886.01</ele>
        <time>2016-07-03T12:38:59Z</time>
      </trkpt>
      <trkpt lat="42.426685" lon="2.231294">
        <ele>2885.03</ele>
        <time>2016-07-03T12:39:00Z</time>
      </trkpt>
      <trkpt lat="42.426616" lon="2.231537">
        <ele>2887.06</ele>
        <time>2016-07-03T12:39:01Z</time>
      </trkpt>
      <trkpt lat="42.426539" lon="2.231618">
        <ele>2884.03</ele>
        <time>2016-07-03T12:39:02Z</time>
      </trkpt>
      <trkpt lat="42.426433" lon="2.231812">
        <ele>2881.01</ele>
        <time>2016-07-03T12:39:03Z</time>
      </trkpt>
      <trkpt lat="42.426428" lon="2.231946">
        <ele>2881.09</ele>
        <time>2016-07-03T12:39:04Z</time>
      </trkpt>
      <trkpt lat="42.426368" lon="2.232196">
        <ele>2883.09</ele>
        <time>2016-07-03T12:39:05Z</time>
      </trkpt>
      <trkpt lat="42.426354" lon="2.232322">
        <ele>2882.02</ele>
        <time>2016-07-03T12:39:06Z</time>
      </trkpt>
      <trkpt lat="42.426276" lon="2.232559">
        <ele>2884.06</ele>
        <time>2016-07-03T12:39:07Z</time>
      </trkpt>
      <trkpt lat="42.426250" lon="2.232692">
        <ele>2882.04</ele>
        <time>2016-07-03T12:39:08Z</time>
      </trkpt>
      <trkpt lat="42.426180" lon="2.232934">
        <ele>2883.07</ele>
        <time>2016-07-03T12:39:09Z</time>
      </trkpt>
      <trkpt lat="42.426164" lon="2.233068">
        <ele>2883.05</ele>
        <time>2016-07-03T12:39:10Z</time>
      </trkpt>
      <trkpt lat="42.426140" lon="2.233337">
        <ele>2881.01</ele>
        <time>2016-07-03T12:39:11Z</time>
      </trkpt>
      <trkpt lat="42.426160" lon="2.233457">
        <ele>2879.03</ele>
        <time>2016-07-03T12:39:12Z</time>
      </trkpt>
      <trkpt lat="42.426095" lon="2.233687">
        <ele>2879.07</ele>
        <time>2016-07-03T12:39:13Z</time>
      </trkpt>
      <trkpt lat="42.426099" lon="2.233936">
        <ele>2874.05</ele>
        <time>2016-07-03T12:39:14Z</time>
      </trkpt>
      <trkpt lat="42.426145" lon="2.234079">
        <ele>2866.02</ele>
        <time>2016-07-03T12:39:15Z</time>
      </trkpt>
      <trkpt lat="42.426099" lon="2.233936">
        <ele>2874.08</ele>
        <time>2016-07-03T12:39:16Z</time>
      </trkpt>
      <trkpt lat="42.426095" lon="2.233687">
        <ele>2879.06</ele>
        <time>2016-07-03T12:39:17Z</time>
      </trkpt>
      <trkpt lat="42.426138" lon="2.233576">
        <ele>2880.01</ele>
        <time>2016-07-03T12:39:18Z</time>
      </trkpt>
      <trkpt lat="42.426140" lon="2.233337">
        <ele>2881.00</ele>
        <time>2016-07-03T12:39:19Z</time>
      </trkpt>
      <trkpt lat="42.426164" lon="2.233068">
        <ele>2883.02</ele>
        <time>2016-07-03T12:39:20Z</time>
      </trkpt>
      <trkpt lat="42.426180" lon="2.232934">
        <ele>2883.04</ele>
        <time>2016-07-03T12:39:21Z</time>
      </trkpt>
      <trkpt lat="42.426250" lon="2.232692">
        <ele>2882.08</ele>
        <time>2016-07-03T12:39:22Z</time>
      </trkpt>
      <trkpt lat="42.426276" lon="2.232559">
        <ele>2884.07</ele>
        <time>2016-07-03T12:39:23Z</time>
      </trkpt>
      <trkpt lat="42.426354" lon="2.232322">
        <ele>2882.07</ele>
        <time>2016-07-03T12:39:24Z</time>
      </trkpt>
      <trkpt lat="42.426368" lon="2.232196">
        <ele>2883.08</ele>
        <time>2016-07-03T12:39:25Z</time>
      </trkpt>
      <trkpt lat="42.426428" lon="2.231946">
        <ele>2881.01</ele>
        <time>2016-07-03T12:39:26Z</time>
      </trkpt>
      <trkpt lat="42.426433" lon="2.231812">
        <ele>2881.02</ele>
        <time>2016-07-03T12:39:27Z</time>
      </trkpt>
      <trkpt lat="42.426539" lon="2.231618">
        <ele>2884.06</ele>
        <time>2016-07-03T12:39:28Z</time>
      </trkpt>
      <trkpt lat="42.426616" lon="2.231537">
        <ele>2887.07</ele>
        <time>2016-07-03T12:39:29Z</time>
      </trkpt>
      <trkpt lat="42.426685" lon="2.231294">
        <ele>2885.03</ele>
        <time>2016-07-03T12:39:30Z</time>
      </trkpt>
      <trkpt lat="42.426737" lon="2.231173">
        <ele>2886.06</ele>
        <time>2016-07-03T12:39:31Z</time>
      </trkpt>
      <trkpt lat="42.426845" lon="2.230946">
        <ele>2885.08</ele>
        <time>2016-07-03T12:39:32Z</time>
      </trkpt>
      <trkpt lat="42.426934" lon="2.230867">
        <ele>2878.09</ele>
        <time>2016-07-03T12:39:33Z</time>
      </trkpt>
      <trkpt lat="42.426818" lon="2.230693">
        <ele>2871.03</ele>
        <time>2016-07-03T12:39:34Z</time>
      </trkpt>
      <trkpt lat="42.426785" lon="2.230450">
        <ele>2859.08</ele>
        <time>2016-07-03T12:39:35Z</time>
      </trkpt>
      <trkpt lat="42.426763" lon="2.230320">
        <ele>2854.08</ele>
        <time>2016-07-03T12:39:36Z</time>
      </trkpt>
      <trkpt lat="42.426685" lon="2.230095">
        <ele>2846.05</ele>
        <time>2016-07-03T12:39:37Z</time>
      </trkpt>
      <trkpt lat="42.426640" lon="2.229980">
        <ele>2843.05</ele>
        <time>2016-07-03T12:39:38Z</time>
      </trkpt>
      <trkpt lat="42.426536" lon="2.229769">
        <ele>2833.06</ele>
        <time>2016-07-03T12:39:39Z</time>
      </trkpt>
      <trkpt lat="42.426492" lon="2.229647">
        <ele>2829.02</ele>
        <time>2016-07-03T12:39:40Z</time>
      </trkpt>
      <trkpt lat="42.426457" lon="2.229414">
        <ele>2824.01</ele>
        <time>2016-07-03T12:39:41Z</time>
      </trkpt>
      <trkpt lat="42.426372" lon="2.229167">
        <ele>2817.03</ele>
        <time>2016-07-03T12:39:42Z</time>
      </trkpt>
      <trkpt lat="42.426367" lon="2.229038">
        <ele>2815.08</ele>
        <time>2016-07-03T12:39:43Z</time>
      </trkpt>
      <trkpt lat="42.426379" lon="2.228794">
        <ele>2810.02</ele>
        <time>2016-07-03T12:39:44Z</time>
      </trkpt>
      <trkpt lat="42.426375" lon="2.228670">
        <ele>2805.04</ele>
        <time>2016-07-03T12:39:45Z</time>
      </trkpt>
      <trkpt lat="42.426359" lon="2.228431">
        <ele>2794.03</ele>
        <time>2016-07-03T12:39:46Z</time>
      </trkpt>
      <trkpt lat="42.426335" lon="2.228313">
        <ele>2792.06</ele>
        <time>2016-07-03T12:39:47Z</time>
      </trkpt>
      <trkpt lat="42.426308" lon="2.228065">
        <ele>2781.07</ele>
        <time>2016-07-03T12:39:48Z</time>
      </trkpt>
      <trkpt lat="42.426257" lon="2.227820">
        <ele>2770.01</ele>
        <time>2016-07-03T12:39:49Z</time>
      </trkpt>
      <trkpt lat="42.426257" lon="2.227683">
        <ele>2767.02</ele>
        <time>2016-07-03T12:39:50Z</time>
      </trkpt>
      <trkpt lat="42.426272" lon="2.227427">
        <ele>2762.06</ele>
        <time>2016-07-03T12:39:51Z</time>
      </trkpt>
      <trkpt lat="42.426270" lon="2.227294">
        <ele>2761.05</ele>
        <time>2016-07-03T12:39:52Z</time>
      </trkpt>
      <trkpt lat="42.426231" lon="2.227051">
        <ele>2752.08</ele>
        <time>2016-07-03T12:39:53Z</time>
      </trkpt>
      <trkpt lat="42.426243" lon="2.226921">
        <ele>2750.08</ele>
        <time>2016-07-03T12:39:54Z</time>
      </trkpt>
      <trkpt lat="42.426208" lon="2.226674">
        <ele>2744.05</ele>
        <time>2016-07-03T12:39:55Z</time>
      </trkpt>
      <trkpt lat="42.426266" lon="2.226421">
        <ele>2746.01</ele>
        <time>2016-07-03T12:39:56Z</time>
      </trkpt>
      <trkpt lat="42.426291" lon="2.226302">
        <ele>2744.01</ele>
        <time>2016-07-03T12:39:57Z</time>
      </trkpt>
      <trkpt lat="42.426216" lon="2.226160">
        <ele>2739.07</ele>
        <time>2016-07-03T12:39:58Z</time>
      </trkpt>
      <trkpt lat="42.426212" lon="2.226029">
        <ele>2737.07</ele>
        <time>2016-07-03T12:39:59Z</time>
      </trkpt>
      <trkpt lat="42.426144" lon="2.225792">
        <ele>2727.02</ele>
        <time>2016-07-03T12:40:00Z</time>
      </trkpt>
      <trkpt lat="42.426157" lon="2.225660">
        <ele>2730.12</ele>
        <time>2016-07-03T12:40:01Z</time>
      </trkpt>
      <trkpt lat="42.426089" lon="2.225477">
        <ele>2722.09</ele>
        <time>2016-07-03T12:40:02Z</time>
      </trkpt>
      <trkpt lat="42.426018" lon="2.225256">
        <ele>2718.02</ele>
        <time>2016-07-03T12:40:03Z</time>
      </trkpt>
      <trkpt lat="42.426022" lon="2.225129">
        <ele>2719.01</ele>
        <time>2016-07-03T12:40:04Z</time>
      </trkpt>
      <trkpt lat="42.425963" lon="2.224888">
        <ele>2713.07</ele>
        <time>2016-07-03T12:40:05Z</time>
      </trkpt>
      <trkpt lat="42.425959" lon="2.224749">
        <ele>2710.01</ele>
        <time>2016-07-03T12:40:06Z</time>
      </trkpt>
      <trkpt lat="42.425895" lon="2.224519">
        <ele>2705.04</ele>
        <time>2016-07-03T12:40:07Z</time>
      </trkpt>
      <trkpt lat="42.425864" lon="2.224402">
        <ele>2710.10</ele>
        <time>2016-07-03T12:40:08Z</time>
      </trkpt>
      <trkpt lat="42.425757" lon="2.224169">
        <ele>2722.07</ele>
        <time>2016-07-03T12:40:09Z</time>
      </trkpt>
      <trkpt lat="42.425588" lon="2.224070">
        <ele>2724.02</ele>
        <time>2016-07-03T12:40:10Z</time>
      </trkpt>
      <trkpt lat="42.425529" lon="2.223965">
        <ele>2723.09</ele>
        <time>2016-07-03T12:40:11Z</time>
      </trkpt>
      <trkpt lat="42.425481" lon="2.223710">
        <ele>2726.01</ele>
        <time>2016-07-03T12:40:12Z</time>
      </trkpt>
      <trkpt lat="42.425496" lon="2.223588">
        <ele>2733.00</ele>
        <time>2016-07-03T12:40:13Z</time>
      </trkpt>
      <trkpt lat="42.425367" lon="2.223403">
        <ele>2740.09</ele>
        <time>2016-07-03T12:40:14Z</time>
      </trkpt>
      <trkpt lat="42.425287" lon="2.223343">
        <ele>2743.08</ele>
        <time>2016-07-03T12:40:15Z</time>
      </trkpt>
      <trkpt lat="42.425170" lon="2.223140">
        <ele>2741.07</ele>
        <time>2016-07-03T12:40:16Z</time>
      </trkpt>
      <trkpt lat="42.425105" lon="2.223041">
        <ele>2740.04</ele>
        <time>2016-07-03T12:40:17Z</time>
      </trkpt>
      <trkpt lat="42.425010" lon="2.222819">
        <ele>2739.09</ele>
        <time>2016-07-03T12:40:18Z</time>
      </trkpt>
      <trkpt lat="42.424930" lon="2.222597">
        <ele>2741.01</ele>
        <time>2016-07-03T12:40:19Z</time>
      </trkpt>
      <trkpt lat="42.424861" lon="2.222504">
        <ele>2735.01</ele>
        <time>2016-07-03T12:40:20Z</time>
      </trkpt>
      <trkpt lat="42.424770" lon="2.222275">
        <ele>2734.03</ele>
        <time>2016-07-03T12:40:21Z</time>
      </trkpt>
      <trkpt lat="42.424720" lon="2.222163">
        <ele>2737.04</ele>
        <time>2016-07-03T12:40:22Z</time>
      </trkpt>
      <trkpt lat="42.424588" lon="2.221959">
        <ele>2744.08</ele>
        <time>2016-07-03T12:40:23Z</time>
      </trkpt>
      <trkpt lat="42.424529" lon="2.221868">
        <ele>2745.09</ele>
        <time>2016-07-03T12:40:24Z</time>
      </trkpt>
      <trkpt lat="42.424387" lon="2.221659">
        <ele>2745.03</ele>
        <time>2016-07-03T12:40:25Z</time>
      </trkpt>
      <trkpt lat="42.424320" lon="2.221543">
        <ele>2750.02</ele>
        <time>2016-07-03T12:40:26Z</time>
      </trkpt>
      <trkpt lat="42.424192" lon="2.221346">
        <ele>2763.01</ele>
        <time>2016-07-03T12:40:27Z</time>
      </trkpt>
      <trkpt lat="42.424121" lon="2.221250">
        <ele>2762.01</ele>
        <time>2016-07-03T12:40:28Z</time>
      </trkpt>
      <trkpt lat="42.423997" lon="2.221020">
        <ele>2768.04</ele>
        <time>2016-07-03T12:40:29Z</time>
      </trkpt>
      <trkpt lat="42.423928" lon="2.220916">
        <ele>2776.09</ele>
        <time>2016-07-03T12:40:30Z</time>
      </trkpt>
      <trkpt lat="42.423768" lon="2.220800">
        <ele>2784.08</ele>
        <time>2016-07-03T12:40:31Z</time>
      </trkpt>
      <trkpt lat="42.423684" lon="2.220748">
        <ele>2781.10</ele>
        <time>2016-07-03T12:40:32Z</time>
      </trkpt>
      <trkpt lat="42.423553" lon="2.220563">
        <ele>2792.07</ele>
        <time>2016-07-03T12:40:33Z</time>
      </trkpt>
      <trkpt lat="42.423414" lon="2.220405">
        <ele>2801.09</ele>
        <time>2016-07-03T12:40:34Z</time>
      </trkpt>
      <trkpt lat="42.423404" lon="2.220272">
        <ele>2807.01</ele>
        <time>2016-07-03T12:40:35Z</time>
      </trkpt>
      <trkpt lat="42.423267" lon="2.220118">
        <ele>2819.07</ele>
        <time>2016-07-03T12:40:36Z</time>
      </trkpt>
      <trkpt lat="42.423198" lon="2.220034">
        <ele>2819.09</ele>
        <time>2016-07-03T12:40:37Z</time>
      </trkpt>
      <trkpt lat="42.423156" lon="2.219808">
        <ele>2828.09</ele>
        <time>2016-07-03T12:40:38Z</time>
      </trkpt>
      <trkpt lat="42.423090" lon="2.219723">
        <ele>2835.02</ele>
        <time>2016-07-03T12:40:39Z</time>
      </trkpt>
      <trkpt lat="42.423031" lon="2.219442">
        <ele>2835.04</ele>
        <time>2016-07-03T12:40:40Z</time>
      </trkpt>
      <trkpt lat="42.423024" lon="2.219293">
        <ele>2842.05</ele>
        <time>2016-07-03T12:40:41Z</time>
      </trkpt>
      <trkpt lat="42.423042" lon="2.219060">
        <ele>2836.09</ele>
        <time>2016-07-03T12:40:42Z</time>
      </trkpt>
      <trkpt lat="42.423017" lon="2.218942">
        <ele>2832.01</ele>
        <time>2016-07-03T12:40:43Z</time>
      </trkpt>
      <trkpt lat="42.423042" lon="2.218688">
        <ele>2827.04</ele>
        <time>2016-07-03T12:40:44Z</time>
      </trkpt>
      <trkpt lat="42.423081" lon="2.218427">
        <ele>2823.05</ele>
        <time>2016-07-03T12:40:45Z</time>
      </trkpt>
      <trkpt lat="42.423047" lon="2.218298">
        <ele>2817.04</ele>
        <time>2016-07-03T12:40:46Z</time>
      </trkpt>
      <trkpt lat="42.422969" lon="2.218063">
        <ele>2803.17</ele>
        <time>2016-07-03T12:40:47Z</time>
      </trkpt>
      <trkpt lat="42.423010" lon="2.217942">
        <ele>2811.02</ele>
        <time>2016-07-03T12:40:48Z</time>
      </trkpt>
      <trkpt lat="42.422995" lon="2.217695">
        <ele>2803.08</ele>
        <time>2016-07-03T12:40:49Z</time>
      </trkpt>
      <trkpt lat="42.423024" lon="2.217569">
        <ele>2802.19</ele>
        <time>2016-07-03T12:40:50Z</time>
      </trkpt>
      <trkpt lat="42.423029" lon="2.217320">
        <ele>2807.01</ele>
        <time>2016-07-03T12:40:51Z</time>
      </trkpt>
      <trkpt lat="42.423023" lon="2.217186">
        <ele>2805.04</ele>
        <time>2016-07-03T12:40:52Z</time>
      </trkpt>
      <trkpt lat="42.422998" lon="2.216942">
        <ele>2793.01</ele>
        <time>2016-07-03T12:40:53Z</time>
      </trkpt>
      <trkpt lat="42.422953" lon="2.216696">
        <ele>2798.02</ele>
        <time>2016-07-03T12:40:54Z</time>
      </trkpt>
      <trkpt lat="42.422946" lon="2.216560">
        <ele>2798.17</ele>
        <time>2016-07-03T12:40:55Z</time>
      </trkpt>
      <trkpt lat="42.422988" lon="2.216301">
        <ele>2805.07</ele>
        <time>2016-07-03T12:40:56Z</time>
      </trkpt>
      <trkpt lat="42.423047" lon="2.216191">
        <ele>2812.03</ele>
        <time>2016-07-03T12:40:57Z</time>
      </trkpt>
      <trkpt lat="42.423071" lon="2.215931">
        <ele>2814.01</ele>
        <time>2016-07-03T12:40:58Z</time>
      </trkpt>
      <trkpt lat="42.423074" lon="2.215800">
        <ele>2816.02</ele>
        <time>2016-07-03T12:40:59Z</time>
      </trkpt>
      <trkpt lat="42.423130" lon="2.215536">
        <ele>2820.07</ele>
        <time>2016-07-03T12:41:00Z</time>
      </trkpt>
      <trkpt lat="42.423166" lon="2.215395">
        <ele>2820.07</ele>
        <time>2016-07-03T12:41:01Z</time>
      </trkpt>
      <trkpt lat="42.423218" lon="2.215156">
        <ele>2831.03</ele>
        <time>2016-07-03T12:41:02Z</time>
      </trkpt>
      <trkpt lat="42.423254" lon="2.215026">
        <ele>2838.08</ele>
        <time>2016-07-03T12:41:03Z</time>
      </trkpt>
      <trkpt lat="42.423343" lon="2.214785">
        <ele>2844.06</ele>
        <time>2016-07-03T12:41:04Z</time>
      </trkpt>
      <trkpt lat="42.423384" lon="2.214672">
        <ele>2848.09</ele>
        <time>2016-07-03T12:41:05Z</time>
      </trkpt>
      <trkpt lat="42.423514" lon="2.214483">
        <ele>2857.01</ele>
        <time>2016-07-03T12:41:06Z</time>
      </trkpt>
      <trkpt lat="42.423597" lon="2.214392">
        <ele>2860.02</ele>
        <time>2016-07-03T12:41:07Z</time>
      </trkpt>
      <trkpt lat="42.423698" lon="2.214156">
        <ele>2869.03</ele>
        <time>2016-07-03T12:41:08Z</time>
      </trkpt>
      <trkpt lat="42.423773" lon="2.214077">
        <ele>2872.05</ele>
        <time>2016-07-03T12:41:09Z</time>
      </trkpt>
      <trkpt lat="42.423919" lon="2.213932">
        <ele>2868.05</ele>
        <time>2016-07-03T12:41:10Z</time>
      </trkpt>
      <trkpt lat="42.423873" lon="2.213852">
        <ele>2854.07</ele>
        <time>2016-07-03T12:41:11Z</time>
      </trkpt>
      <trkpt lat="42.423818" lon="2.213959">
        <ele>2849.03</ele>
        <time>2016-07-03T12:41:12Z</time>
      </trkpt>
      <trkpt lat="42.423699" lon="2.214160">
        <ele>2843.10</ele>
        <time>2016-07-03T12:41:13Z</time>
      </trkpt>
      <trkpt lat="42.423660" lon="2.214280">
        <ele>2842.01</ele>
        <time>2016-07-03T12:41:14Z</time>
      </trkpt>
      <trkpt lat="42.423529" lon="2.214478">
        <ele>2837.09</ele>
        <time>2016-07-03T12:41:15Z</time>
      </trkpt>
      <trkpt lat="42.423443" lon="2.214551">
        <ele>2835.05</ele>
        <time>2016-07-03T12:41:16Z</time>
      </trkpt>
      <trkpt lat="42.423260" lon="2.214620">
        <ele>2832.06</ele>
        <time>2016-07-03T12:41:17Z</time>
      </trkpt>
      <trkpt lat="42.423168" lon="2.214596">
        <ele>2832.06</ele>
        <time>2016-07-03T12:41:18Z</time>
      </trkpt>
      <trkpt lat="42.422989" lon="2.214487">
        <ele>2828.03</ele>
        <time>2016-07-03T12:41:19Z</time>
      </trkpt>
      <trkpt lat="42.422905" lon="2.214411">
        <ele>2827.09</ele>
        <time>2016-07-03T12:41:20Z</time>
      </trkpt>
      <trkpt lat="42.422721" lon="2.214339">
        <ele>2826.07</ele>
        <time>2016-07-03T12:41:21Z</time>
      </trkpt>
      <trkpt lat="42.422633" lon="2.214285">
        <ele>2825.01</ele>
        <time>2016-07-03T12:41:22Z</time>
      </trkpt>
      <trkpt lat="42.422473" lon="2.214121">
        <ele>2821.07</ele>
        <time>2016-07-03T12:41:23Z</time>
      </trkpt>
      <trkpt lat="42.422388" lon="2.214047">
        <ele>2818.04</ele>
        <time>2016-07-03T12:41:24Z</time>
      </trkpt>
      <trkpt lat="42.422231" lon="2.213888">
        <ele>2815.04</ele>
        <time>2016-07-03T12:41:25Z</time>
      </trkpt>
      <trkpt lat="42.422080" lon="2.213726">
        <ele>2810.01</ele>
        <time>2016-07-03T12:41:26Z</time>
      </trkpt>
      <trkpt lat="42.421993" lon="2.213652">
        <ele>2809.02</ele>
        <time>2016-07-03T12:41:27Z</time>
      </trkpt>
      <trkpt lat="42.421923" lon="2.213549">
        <ele>2805.06</ele>
        <time>2016-07-03T12:41:28Z</time>
      </trkpt>
      <trkpt lat="42.421809" lon="2.213345">
        <ele>2798.05</ele>
        <time>2016-07-03T12:41:29Z</time>
      </trkpt>
      <trkpt lat="42.421652" lon="2.213184">
        <ele>2795.01</ele>
        <time>2016-07-03T12:41:30Z</time>
      </trkpt>
      <trkpt lat="42.421582" lon="2.213088">
        <ele>2793.08</ele>
        <time>2016-07-03T12:41:31Z</time>
      </trkpt>
      <trkpt lat="42.421423" lon="2.212965">
        <ele>2795.05</ele>
        <time>2016-07-03T12:41:32Z</time>
      </trkpt>
      <trkpt lat="42.421350" lon="2.212880">
        <ele>2794.08</ele>
        <time>2016-07-03T12:41:33Z</time>
      </trkpt>
      <trkpt lat="42.421285" lon="2.212629">
        <ele>2786.05</ele>
        <time>2016-07-03T12:41:34Z</time>
      </trkpt>
      <trkpt lat="42.421209" lon="2.212562">
        <ele>2785.09</ele>
        <time>2016-07-03T12:41:35Z</time>
      </trkpt>
      <trkpt lat="42.421061" lon="2.212435">
        <ele>2789.02</ele>
        <time>2016-07-03T12:41:36Z</time>
      </trkpt>
      <trkpt lat="42.420957" lon="2.212313">
        <ele>2788.01</ele>
        <time>2016-07-03T12:41:37Z</time>
      </trkpt>
      <trkpt lat="42.420862" lon="2.212292">
        <ele>2784.01</ele>
        <time>2016-07-03T12:41:38Z</time>
      </trkpt>
      <trkpt lat="42.420775" lon="2.212072">
        <ele>2780.03</ele>
        <time>2016-07-03T12:41:39Z</time>
      </trkpt>
      <trkpt lat="42.420722" lon="2.211972">
        <ele>2777.06</ele>
        <time>2016-07-03T12:41:40Z</time>
      </trkpt>
      <trkpt lat="42.420643" lon="2.211715">
        <ele>2773.07</ele>
        <time>2016-07-03T12:41:41Z</time>
      </trkpt>
      <trkpt lat="42.420643" lon="2.211579">
        <ele>2770.04</ele>
        <time>2016-07-03T12:41:42Z</time>
      </trkpt>
      <trkpt lat="42.420596" lon="2.211330">
        <ele>2767.03</ele>
        <time>2016-07-03T12:41:43Z</time>
      </trkpt>
      <trkpt lat="42.420504" lon="2.211370">
        <ele>2762.04</ele>
        <time>2016-07-03T12:41:44Z</time>
      </trkpt>
      <trkpt lat="42.420409" lon="2.211147">
        <ele>2756.01</ele>
        <time>2016-07-03T12:41:45Z</time>
      </trkpt>
      <trkpt lat="42.420302" lon="2.210967">
        <ele>2750.03</ele>
        <time>2016-07-03T12:41:46Z</time>
      </trkpt>
      <trkpt lat="42.420257" lon="2.210858">
        <ele>2749.10</ele>
        <time>2016-07-03T12:41:47Z</time>
      </trkpt>
      <trkpt lat="42.420162" lon="2.210657">
        <ele>2746.10</ele>
        <time>2016-07-03T12:41:48Z</time>
      </trkpt>
      <trkpt lat="42.420102" lon="2.210553">
        <ele>2740.07</ele>
        <time>2016-07-03T12:41:49Z</time>
      </trkpt>
      <trkpt lat="42.420103" lon="2.210510">
        <ele>2740.03</ele>
        <time>2016-07-03T12:41:50Z</time>
      </trkpt>
      <trkpt lat="42.420057" lon="2.210397">
        <ele>2737.03</ele>
        <time>2016-07-03T12:41:51Z</time>
      </trkpt>
      <trkpt lat="42.419976" lon="2.210170">
        <ele>2734.09</ele>
        <time>2016-07-03T12:41:52Z</time>
      </trkpt>
      <trkpt lat="42.419946" lon="2.209918">
        <ele>2734.01</ele>
        <time>2016-07-03T12:41:53Z</time>
      </trkpt>
      <trkpt lat="42.419935" lon="2.209786">
        <ele>2734.04</ele>
        <time>2016-07-03T12:41:54Z</time>
      </trkpt>
      <trkpt lat="42.419898" lon="2.209532">
        <ele>2734.04</ele>
        <time>2016-07-03T12:41:55Z</time>
      </trkpt>
      <trkpt lat="42.419860" lon="2.209415">
        <ele>2734.04</ele>
        <time>2016-07-03T12:41:56Z</time>
      </trkpt>
      <trkpt lat="42.419750" lon="2.209207">
        <ele>2735.01</ele>
        <time>2016-07-03T12:41:57Z</time>
      </trkpt>
      <trkpt lat="42.419742" lon="2.209077">
        <ele>2742.08</ele>
        <time>2016-07-03T12:41:58Z</time>
      </trkpt>
      <trkpt lat="42.419755" lon="2.208810">
        <ele>2754.07</ele>
        <time>2016-07-03T12:41:59Z</time>
      </trkpt>
      <trkpt lat="42.419769" lon="2.208673">
        <ele>2752.08</ele>
        <time>2016-07-03T12:42:00Z</time>
      </trkpt>
      <trkpt lat="42.419739" lon="2.208420">
        <ele>2763.03</ele>
        <time>2016-07-03T12:42:01Z</time>
      </trkpt>
      <trkpt lat="42.419745" lon="2.208281">
        <ele>2766.04</ele>
        <time>2016-07-03T12:42:02Z</time>
      </trkpt>
      <trkpt lat="42.419698" lon="2.208032">
        <ele>2772.08</ele>
        <time>2016-07-03T12:42:03Z</time>
      </trkpt>
      <trkpt lat="42.419738" lon="2.207790">
        <ele>2778.06</ele>
        <time>2016-07-03T12:42:04Z</time>
      </trkpt>
      <trkpt lat="42.419676" lon="2.207660">
        <ele>2780.09</ele>
        <time>2016-07-03T12:42:05Z</time>
      </trkpt>
      <trkpt lat="42.419648" lon="2.207401">
        <ele>2782.12</ele>
        <time>2016-07-03T12:42:06Z</time>
      </trkpt>
      <trkpt lat="42.419569" lon="2.207320">
        <ele>2784.02</ele>
        <time>2016-07-03T12:42:07Z</time>
      </trkpt>
      <trkpt lat="42.419480" lon="2.207226">
        <ele>2782.04</ele>
        <time>2016-07-03T12:42:08Z</time>
      </trkpt>
      <trkpt lat="42.419305" lon="2.207130">
        <ele>2785.02</ele>
        <time>2016-07-03T12:42:09Z</time>
      </trkpt>
      <trkpt lat="42.419200" lon="2.207109">
        <ele>2787.03</ele>
        <time>2016-07-03T12:42:10Z</time>
      </trkpt>
      <trkpt lat="42.419055" lon="2.206921">
        <ele>2790.08</ele>
        <time>2016-07-03T12:42:11Z</time>
      </trkpt>
      <trkpt lat="42.418875" lon="2.206847">
        <ele>2808.03</ele>
        <time>2016-07-03T12:42:12Z</time>
      </trkpt>
      <trkpt lat="42.418781" lon="2.206806">
        <ele>2810.02</ele>
        <time>2016-07-03T12:42:13Z</time>
      </trkpt>
      <trkpt lat="42.418581" lon="2.206786">
        <ele>2811.03</ele>
        <time>2016-07-03T12:42:14Z</time>
      </trkpt>
      <trkpt lat="42.418503" lon="2.206691">
        <ele>2811.04</ele>
        <time>2016-07-03T12:42:15Z</time>
      </trkpt>
      <trkpt lat="42.418411" lon="2.206654">
        <ele>2813.15</ele>
        <time>2016-07-03T12:42:16Z</time>
      </trkpt>
      <trkpt lat="42.418216" lon="2.206674">
        <ele>2814.01</ele>
        <time>2016-07-03T12:42:17Z</time>
      </trkpt>
      <trkpt lat="42.418029" lon="2.206614">
        <ele>2812.04</ele>
        <time>2016-07-03T12:42:18Z</time>
      </trkpt>
      <trkpt lat="42.417925" lon="2.206586">
        <ele>2815.05</ele>
        <time>2016-07-03T12:42:19Z</time>
      </trkpt>
      <trkpt lat="42.417739" lon="2.206596">
        <ele>2813.05</ele>
        <time>2016-07-03T12:42:20Z</time>
      </trkpt>
      <trkpt lat="42.417665" lon="2.206509">
        <ele>2814.08</ele>
        <time>2016-07-03T12:42:21Z</time>
      </trkpt>
      <trkpt lat="42.417555" lon="2.206290">
        <ele>2815.04</ele>
        <time>2016-07-03T12:42:22Z</time>
      </trkpt>
      <trkpt lat="42.417524" lon="2.206167">
        <ele>2814.09</ele>
        <time>2016-07-03T12:42:23Z</time>
      </trkpt>
      <trkpt lat="42.417417" lon="2.205965">
        <ele>2812.01</ele>
        <time>2016-07-03T12:42:24Z</time>
      </trkpt>
      <trkpt lat="42.417378" lon="2.205849">
        <ele>2811.01</ele>
        <time>2016-07-03T12:42:25Z</time>
      </trkpt>
      <trkpt lat="42.417358" lon="2.205587">
        <ele>2810.02</ele>
        <time>2016-07-03T12:42:26Z</time>
      </trkpt>
      <trkpt lat="42.417310" lon="2.205326">
        <ele>2810.06</ele>
        <time>2016-07-03T12:42:27Z</time>
      </trkpt>
      <trkpt lat="42.417286" lon="2.205191">
        <ele>2808.07</ele>
        <time>2016-07-03T12:42:28Z</time>
      </trkpt>
      <trkpt lat="42.417286" lon="2.204932">
        <ele>2806.08</ele>
        <time>2016-07-03T12:42:29Z</time>
      </trkpt>
      <trkpt lat="42.417267" lon="2.204802">
        <ele>2805.08</ele>
        <time>2016-07-03T12:42:30Z</time>
      </trkpt>
      <trkpt lat="42.417188" lon="2.204562">
        <ele>2800.08</ele>
        <time>2016-07-03T12:42:31Z</time>
      </trkpt>
      <trkpt lat="42.417167" lon="2.204424">
        <ele>2799.01</ele>
        <time>2016-07-03T12:42:32Z</time>
      </trkpt>
      <trkpt lat="42.417106" lon="2.204170">
        <ele>2797.03</ele>
        <time>2016-07-03T12:42:33Z</time>
      </trkpt>
      <trkpt lat="42.417088" lon="2.204047">
        <ele>2796.05</ele>
        <time>2016-07-03T12:42:34Z</time>
      </trkpt>
      <trkpt lat="42.416994" lon="2.203830">
        <ele>2792.06</ele>
        <time>2016-07-03T12:42:35Z</time>
      </trkpt>
      <trkpt lat="42.416944" lon="2.203708">
        <ele>2792.02</ele>
        <time>2016-07-03T12:42:36Z</time>
      </trkpt>
      <trkpt lat="42.416841" lon="2.203463">
        <ele>2794.07</ele>
        <time>2016-07-03T12:42:37Z</time>
      </trkpt>
      <trkpt lat="42.416819" lon="2.203321">
        <ele>2795.07</ele>
        <time>2016-07-03T12:42:38Z</time>
      </trkpt>
      <trkpt lat="42.416795" lon="2.203185">
        <ele>2796.03</ele>
        <time>2016-07-03T12:42:39Z</time>
      </trkpt>
      <trkpt lat="42.416676" lon="2.202945">
        <ele>2797.01</ele>
        <time>2016-07-03T12:42:40Z</time>
      </trkpt>
      <trkpt lat="42.416610" lon="2.202811">
        <ele>2797.03</ele>
        <time>2016-07-03T12:42:41Z</time>
      </trkpt>
      <trkpt lat="42.416509" lon="2.202555">
        <ele>2797.07</ele>
        <time>2016-07-03T12:42:42Z</time>
      </trkpt>
      <trkpt lat="42.416493" lon="2.202427">
        <ele>2798.08</ele>
        <time>2016-07-03T12:42:43Z</time>
      </trkpt>
      <trkpt lat="42.416440" lon="2.202176">
        <ele>2801.03</ele>
        <time>2016-07-03T12:42:44Z</time>
      </trkpt>
      <trkpt lat="42.416455" lon="2.202052">
        <ele>2803.05</ele>
        <time>2016-07-03T12:42:45Z</time>
      </trkpt>
      <trkpt lat="42.416349" lon="2.201837">
        <ele>2806.02</ele>
        <time>2016-07-03T12:42:46Z</time>
      </trkpt>
      <trkpt lat="42.416336" lon="2.201702">
        <ele>2809.03</ele>
        <time>2016-07-03T12:42:47Z</time>
      </trkpt>
      <trkpt lat="42.416499" lon="2.201568">
        <ele>2813.01</ele>
        <time>2016-07-03T12:42:48Z</time>
      </trkpt>
      <trkpt lat="42.416314" lon="2.201597">
        <ele>2803.08</ele>
        <time>2016-07-03T12:42:49Z</time>
      </trkpt>
      <trkpt lat="42.416226" lon="2.201548">
        <ele>2799.09</ele>
        <time>2016-07-03T12:42:50Z</time>
      </trkpt>
      <trkpt lat="42.416230" lon="2.201284">
        <ele>2798.07</ele>
        <time>2016-07-03T12:42:51Z</time>
      </trkpt>
      <trkpt lat="42.416251" lon="2.201158">
        <ele>2798.04</ele>
        <time>2016-07-03T12:42:52Z</time>
      </trkpt>
      <trkpt lat="42.416341" lon="2.200935">
        <ele>2798.03</ele>
        <time>2016-07-03T12:42:53Z</time>
      </trkpt>
      <trkpt lat="42.416391" lon="2.200812">
        <ele>2797.03</ele>
        <time>2016-07-03T12:42:54Z</time>
      </trkpt>
      <trkpt lat="42.416474" lon="2.200571">
        <ele>2798.08</ele>
        <time>2016-07-03T12:42:55Z</time>
      </trkpt>
      <trkpt lat="42.416480" lon="2.200443">
        <ele>2797.01</ele>
        <time>2016-07-03T12:42:56Z</time>
      </trkpt>
      <trkpt lat="42.416514" lon="2.200187">
        <ele>2799.03</ele>
        <time>2016-07-03T12:42:57Z</time>
      </trkpt>
      <trkpt lat="42.416494" lon="2.199940">
        <ele>2797.04</ele>
        <time>2016-07-03T12:42:58Z</time>
      </trkpt>
      <trkpt lat="42.416478" lon="2.199804">
        <ele>2797.04</ele>
        <time>2016-07-03T12:42:59Z</time>
      </trkpt>
      <trkpt lat="42.416512" lon="2.199553">
        <ele>2793.06</ele>
        <time>2016-07-03T12:43:00Z</time>
      </trkpt>
      <trkpt lat="42.416556" lon="2.199444">
        <ele>2788.02</ele>
        <time>2016-07-03T12:43:01Z</time>
      </trkpt>
      <trkpt lat="42.416662" lon="2.199230">
        <ele>2782.03</ele>
        <time>2016-07-03T12:43:02Z</time>
      </trkpt>
      <trkpt lat="42.416727" lon="2.199138">
        <ele>2778.13</ele>
        <time>2016-07-03T12:43:03Z</time>
      </trkpt>
      <trkpt lat="42.416867" lon="2.198975">
        <ele>2775.01</ele>
        <time>2016-07-03T12:43:04Z</time>
      </trkpt>
      <trkpt lat="42.416932" lon="2.198730">
        <ele>2767.04</ele>
        <time>2016-07-03T12:43:05Z</time>
      </trkpt>
      <trkpt lat="42.416981" lon="2.198625">
        <ele>2765.01</ele>
        <time>2016-07-03T12:43:06Z</time>
      </trkpt>
      <trkpt lat="42.417080" lon="2.198390">
        <ele>2759.08</ele>
        <time>2016-07-03T12:43:07Z</time>
      </trkpt>
      <trkpt lat="42.417147" lon="2.198286">
        <ele>2760.08</ele>
        <time>2016-07-03T12:43:08Z</time>
      </trkpt>
      <trkpt lat="42.417298" lon="2.198150">
        <ele>2756.09</ele>
        <time>2016-07-03T12:43:09Z</time>
      </trkpt>
      <trkpt lat="42.417327" lon="2.198033">
        <ele>2749.03</ele>
        <time>2016-07-03T12:43:10Z</time>
      </trkpt>
      <trkpt lat="42.417436" lon="2.197838">
        <ele>2756.01</ele>
        <time>2016-07-03T12:43:11Z</time>
      </trkpt>
      <trkpt lat="42.417518" lon="2.197590">
        <ele>2749.01</ele>
        <time>2016-07-03T12:43:12Z</time>
      </trkpt>
      <trkpt lat="42.417536" lon="2.197467">
        <ele>2750.08</ele>
        <time>2016-07-03T12:43:13Z</time>
      </trkpt>
      <trkpt lat="42.417612" lon="2.197231">
        <ele>2743.01</ele>
        <time>2016-07-03T12:43:14Z</time>
      </trkpt>
      <trkpt lat="42.417625" lon="2.197106">
        <ele>2736.12</ele>
        <time>2016-07-03T12:43:15Z</time>
      </trkpt>
      <trkpt lat="42.417679" lon="2.196856">
        <ele>2737.07</ele>
        <time>2016-07-03T12:43:16Z</time>
      </trkpt>
      <trkpt lat="42.417711" lon="2.196738">
        <ele>2736.03</ele>
        <time>2016-07-03T12:43:17Z</time>
      </trkpt>
      <trkpt lat="42.417800" lon="2.196497">
        <ele>2735.12</ele>
        <time>2016-07-03T12:43:18Z</time>
      </trkpt>
      <trkpt lat="42.417841" lon="2.196371">
        <ele>2733.01</ele>
        <time>2016-07-03T12:43:19Z</time>
      </trkpt>
      <trkpt lat="42.417928" lon="2.196150">
        <ele>2732.00</ele>
        <time>2016-07-03T12:43:20Z</time>
      </trkpt>
      <trkpt lat="42.418003" lon="2.195901">
        <ele>2734.07</ele>
        <time>2016-07-03T12:43:21Z</time>
      </trkpt>
      <trkpt lat="42.418073" lon="2.195803">
        <ele>2738.07</ele>
        <time>2016-07-03T12:43:22Z</time>
      </trkpt>
      <trkpt lat="42.418148" lon="2.195568">
        <ele>2736.09</ele>
        <time>2016-07-03T12:43:23Z</time>
      </trkpt>
      <trkpt lat="42.418182" lon="2.195442">
        <ele>2733.04</ele>
        <time>2016-07-03T12:43:24Z</time>
      </trkpt>
      <trkpt lat="42.418238" lon="2.195198">
        <ele>2737.02</ele>
        <time>2016-07-03T12:43:25Z</time>
      </trkpt>
      <trkpt lat="42.418250" lon="2.195062">
        <ele>2739.03</ele>
        <time>2016-07-03T12:43:26Z</time>
      </trkpt>
      <trkpt lat="42.418326" lon="2.194794">
        <ele>2743.01</ele>
        <time>2016-07-03T12:43:27Z</time>
      </trkpt>
      <trkpt lat="42.418386" lon="2.194694">
        <ele>2742.09</ele>
        <time>2016-07-03T12:43:28Z</time>
      </trkpt>
      <trkpt lat="42.418458" lon="2.194461">
        <ele>2745.04</ele>
        <time>2016-07-03T12:43:29Z</time>
      </trkpt>
      <trkpt lat="42.418478" lon="2.194314">
        <ele>2747.07</ele>
        <time>2016-07-03T12:43:30Z</time>
      </trkpt>
      <trkpt lat="42.418492" lon="2.194050">
        <ele>2749.07</ele>
        <time>2016-07-03T12:43:31Z</time>
      </trkpt>
      <trkpt lat="42.418486" lon="2.193907">
        <ele>2751.07</ele>
        <time>2016-07-03T12:43:32Z</time>
      </trkpt>
      <trkpt lat="42.418452" lon="2.193642">
        <ele>2754.04</ele>
        <time>2016-07-03T12:43:33Z</time>
      </trkpt>
      <trkpt lat="42.418445" lon="2.193511">
        <ele>2754.05</ele>
        <time>2016-07-03T12:43:34Z</time>
      </trkpt>
      <trkpt lat="42.418418" lon="2.193238">
        <ele>2757.02</ele>
        <time>2016-07-03T12:43:35Z</time>
      </trkpt>
      <trkpt lat="42.418423" lon="2.193108">
        <ele>2759.03</ele>
        <time>2016-07-03T12:43:36Z</time>
      </trkpt>
      <trkpt lat="42.418395" lon="2.192843">
        <ele>2764.06</ele>
        <time>2016-07-03T12:43:37Z</time>
      </trkpt>
      <trkpt lat="42.418385" lon="2.192720">
        <ele>2767.02</ele>
        <time>2016-07-03T12:43:38Z</time>
      </trkpt>
      <trkpt lat="42.418368" lon="2.192452">
        <ele>2771.03</ele>
        <time>2016-07-03T12:43:39Z</time>
      </trkpt>
      <trkpt lat="42.418349" lon="2.192320">
        <ele>2772.03</ele>
        <time>2016-07-03T12:43:40Z</time>
      </trkpt>
      <trkpt lat="42.418327" lon="2.192062">
        <ele>2776.01</ele>
        <time>2016-07-03T12:43:41Z</time>
      </trkpt>
      <trkpt lat="42.418289" lon="2.191942">
        <ele>2778.03</ele>
        <time>2016-07-03T12:43:42Z</time>
      </trkpt>
      <trkpt lat="42.418260" lon="2.191685">
        <ele>2784.01</ele>
        <time>2016-07-03T12:43:43Z</time>
      </trkpt>
      <trkpt lat="42.418273" lon="2.191545">
        <ele>2783.09</ele>
        <time>2016-07-03T12:43:44Z</time>
      </trkpt>
      <trkpt lat="42.418286" lon="2.191321">
        <ele>2789.10</ele>
        <time>2016-07-03T12:43:45Z</time>
      </trkpt>
      <trkpt lat="42.418338" lon="2.191222">
        <ele>2791.06</ele>
        <time>2016-07-03T12:43:46Z</time>
      </trkpt>
      <trkpt lat="42.418480" lon="2.190999">
        <ele>2797.07</ele>
        <time>2016-07-03T12:43:47Z</time>
      </trkpt>
      <trkpt lat="42.418541" lon="2.190887">
        <ele>2799.04</ele>
        <time>2016-07-03T12:43:48Z</time>
      </trkpt>
      <trkpt lat="42.418343" lon="2.190847">
        <ele>2795.09</ele>
        <time>2016-07-03T12:43:49Z</time>
      </trkpt>
      <trkpt lat="42.418236" lon="2.190842">
        <ele>2793.02</ele>
        <time>2016-07-03T12:43:50Z</time>
      </trkpt>
      <trkpt lat="42.418034" lon="2.190842">
        <ele>2795.01</ele>
        <time>2016-07-03T12:43:51Z</time>
      </trkpt>
      <trkpt lat="42.417944" lon="2.190859">
        <ele>2796.06</ele>
        <time>2016-07-03T12:43:52Z</time>
      </trkpt>
      <trkpt lat="42.417747" lon="2.190834">
        <ele>2805.07</ele>
        <time>2016-07-03T12:43:53Z</time>
      </trkpt>
      <trkpt lat="42.417661" lon="2.190788">
        <ele>2807.01</ele>
        <time>2016-07-03T12:43:54Z</time>
      </trkpt>
      <trkpt lat="42.417493" lon="2.190649">
        <ele>2806.06</ele>
        <time>2016-07-03T12:43:55Z</time>
      </trkpt>
      <trkpt lat="42.417356" lon="2.190476">
        <ele>2808.09</ele>
        <time>2016-07-03T12:43:56Z</time>
      </trkpt>
      <trkpt lat="42.417351" lon="2.190344">
        <ele>2806.04</ele>
        <time>2016-07-03T12:43:57Z</time>
      </trkpt>
      <trkpt lat="42.417357" lon="2.190097">
        <ele>2802.01</ele>
        <time>2016-07-03T12:43:58Z</time>
      </trkpt>
      <trkpt lat="42.417367" lon="2.189966">
        <ele>2802.01</ele>
        <time>2016-07-03T12:43:59Z</time>
      </trkpt>
      <trkpt lat="42.417425" lon="2.189715">
        <ele>2797.07</ele>
        <time>2016-07-03T12:44:00Z</time>
      </trkpt>
      <trkpt lat="42.417430" lon="2.189589">
        <ele>2788.08</ele>
        <time>2016-08-21T13:15:39Z</time>
      </trkpt>
      <trkpt lat="42.417419" lon="2.189460">
        <ele>2792.07</ele>
        <time>2016-08-21T13:16:35Z</time>
      </trkpt>
      <trkpt lat="42.417476" lon="2.189349">
        <ele>2794.06</ele>
        <time>2016-08-21T13:16:43Z</time>
      </trkpt>
      <trkpt lat="42.417497" lon="2.189230">
        <ele>2792.02</ele>
        <time>2016-08-21T13:16:52Z</time>
      </trkpt>
      <trkpt lat="42.417497" lon="2.189102">
        <ele>2792.04</ele>
        <time>2016-08-21T13:17:04Z</time>
      </trkpt>
      <trkpt lat="42.417487" lon="2.188975">
        <ele>2790.06</ele>
        <time>2016-08-21T13:17:14Z</time>
      </trkpt>
      <trkpt lat="42.417496" lon="2.188846">
        <ele>2788.07</ele>
        <time>2016-08-21T13:17:27Z</time>
      </trkpt>
      <trkpt lat="42.417523" lon="2.188715">
        <ele>2787.03</ele>
        <time>2016-08-21T13:17:40Z</time>
      </trkpt>
      <trkpt lat="42.417545" lon="2.188595">
        <ele>2785.11</ele>
        <time>2016-08-21T13:17:53Z</time>
      </trkpt>
      <trkpt lat="42.417553" lon="2.188470">
        <ele>2783.03</ele>
        <time>2016-08-21T13:18:06Z</time>
      </trkpt>
      <trkpt lat="42.417607" lon="2.188359">
        <ele>2781.03</ele>
        <time>2016-08-21T13:18:22Z</time>
      </trkpt>
      <trkpt lat="42.417675" lon="2.188277">
        <ele>2779.08</ele>
        <time>2016-08-21T13:18:32Z</time>
      </trkpt>
      <trkpt lat="42.417701" lon="2.188159">
        <ele>2777.02</ele>
        <time>2016-08-21T13:18:44Z</time>
      </trkpt>
      <trkpt lat="42.417700" lon="2.188019">
        <ele>2775.05</ele>
        <time>2016-08-21T13:18:57Z</time>
      </trkpt>
      <trkpt lat="42.417729" lon="2.187896">
        <ele>2774.07</ele>
        <time>2016-08-21T13:19:05Z</time>
      </trkpt>
      <trkpt lat="42.417734" lon="2.187773">
        <ele>2775.01</ele>
        <time>2016-08-21T13:19:13Z</time>
      </trkpt>
      <trkpt lat="42.417729" lon="2.187631">
        <ele>2777.10</ele>
        <time>2016-08-21T13:19:19Z</time>
      </trkpt>
      <trkpt lat="42.417746" lon="2.187505">
        <ele>2780.10</ele>
        <time>2016-08-21T13:19:23Z</time>
      </trkpt>
      <trkpt lat="42.417763" lon="2.187369">
        <ele>2781.04</ele>
        <time>2016-08-21T13:19:28Z</time>
      </trkpt>
      <trkpt lat="42.417753" lon="2.187240">
        <ele>2779.03</ele>
        <time>2016-08-21T13:19:32Z</time>
      </trkpt>
      <trkpt lat="42.417785" lon="2.187096">
        <ele>2781.01</ele>
        <time>2016-08-21T13:19:37Z</time>
      </trkpt>
      <trkpt lat="42.417814" lon="2.186979">
        <ele>2778.02</ele>
        <time>2016-08-21T13:19:41Z</time>
      </trkpt>
      <trkpt lat="42.417836" lon="2.186835">
        <ele>2781.00</ele>
        <time>2016-08-21T13:19:46Z</time>
      </trkpt>
      <trkpt lat="42.417865" lon="2.186709">
        <ele>2780.05</ele>
        <time>2016-08-21T13:19:50Z</time>
      </trkpt>
      <trkpt lat="42.417931" lon="2.186607">
        <ele>2781.13</ele>
        <time>2016-08-21T13:19:55Z</time>
      </trkpt>
      <trkpt lat="42.417934" lon="2.186477">
        <ele>2783.07</ele>
        <time>2016-08-21T13:20:01Z</time>
      </trkpt>
      <trkpt lat="42.417913" lon="2.186352">
        <ele>2786.16</ele>
        <time>2016-08-21T13:20:07Z</time>
      </trkpt>
      <trkpt lat="42.417942" lon="2.186222">
        <ele>2783.02</ele>
        <time>2016-08-21T13:20:15Z</time>
      </trkpt>
      <trkpt lat="42.417999" lon="2.186121">
        <ele>2782.08</ele>
        <time>2016-08-21T13:20:22Z</time>
      </trkpt>
      <trkpt lat="42.418062" lon="2.186020">
        <ele>2781.02</ele>
        <time>2016-08-21T13:20:29Z</time>
      </trkpt>
      <trkpt lat="42.418108" lon="2.185905">
        <ele>2785.08</ele>
        <time>2016-08-21T13:20:37Z</time>
      </trkpt>
      <trkpt lat="42.418162" lon="2.185802">
        <ele>2785.05</ele>
        <time>2016-08-21T13:20:44Z</time>
      </trkpt>
      <trkpt lat="42.418213" lon="2.185689">
        <ele>2785.01</ele>
        <time>2016-08-21T13:20:52Z</time>
      </trkpt>
      <trkpt lat="42.418258" lon="2.185577">
        <ele>2783.02</ele>
        <time>2016-08-21T13:21:00Z</time>
      </trkpt>
      <trkpt lat="42.418324" lon="2.185484">
        <ele>2781.04</ele>
        <time>2016-08-21T13:21:09Z</time>
      </trkpt>
      <trkpt lat="42.418384" lon="2.185390">
        <ele>2781.08</ele>
        <time>2016-08-21T13:21:14Z</time>
      </trkpt>
      <trkpt lat="42.418446" lon="2.185286">
        <ele>2781.05</ele>
        <time>2016-08-21T13:21:18Z</time>
      </trkpt>
      <trkpt lat="42.418519" lon="2.185186">
        <ele>2782.03</ele>
        <time>2016-08-21T13:21:22Z</time>
      </trkpt>
      <trkpt lat="42.418592" lon="2.185089">
        <ele>2781.03</ele>
        <time>2016-08-21T13:21:26Z</time>
      </trkpt>
      <trkpt lat="42.418690" lon="2.185010">
        <ele>2783.02</ele>
        <time>2016-08-21T13:21:31Z</time>
      </trkpt>
      <trkpt lat="42.418755" lon="2.184916">
        <ele>2782.08</ele>
        <time>2016-08-21T13:21:35Z</time>
      </trkpt>
      <trkpt lat="42.418824" lon="2.184795">
        <ele>2784.06</ele>
        <time>2016-08-21T13:21:39Z</time>
      </trkpt>
      <trkpt lat="42.418908" lon="2.184712">
        <ele>2785.09</ele>
        <time>2016-08-21T13:21:43Z</time>
      </trkpt>
      <trkpt lat="42.418971" lon="2.184582">
        <ele>2785.06</ele>
        <time>2016-08-21T13:21:48Z</time>
      </trkpt>
      <trkpt lat="42.419042" lon="2.184482">
        <ele>2787.01</ele>
        <time>2016-08-21T13:21:52Z</time>
      </trkpt>
      <trkpt lat="42.419125" lon="2.184420">
        <ele>2789.02</ele>
        <time>2016-08-21T13:21:56Z</time>
      </trkpt>
      <trkpt lat="42.419215" lon="2.184397">
        <ele>2791.01</ele>
        <time>2016-08-21T13:22:00Z</time>
      </trkpt>
      <trkpt lat="42.419298" lon="2.184337">
        <ele>2793.08</ele>
        <time>2016-08-21T13:22:04Z</time>
      </trkpt>
      <trkpt lat="42.419378" lon="2.184254">
        <ele>2796.05</ele>
        <time>2016-08-21T13:22:09Z</time>
      </trkpt>
      <trkpt lat="42.419424" lon="2.184138">
        <ele>2797.03</ele>
        <time>2016-08-21T13:22:42Z</time>
      </trkpt>
      <trkpt lat="42.419351" lon="2.184042">
        <ele>2797.01</ele>
        <time>2016-08-21T13:22:54Z</time>
      </trkpt>
      <trkpt lat="42.419276" lon="2.183951">
        <ele>2797.04</ele>
        <time>2016-08-21T13:23:02Z</time>
      </trkpt>
      <trkpt lat="42.419253" lon="2.183822">
        <ele>2801.07</ele>
        <time>2016-08-21T13:23:11Z</time>
      </trkpt>
      <trkpt lat="42.419202" lon="2.183708">
        <ele>2798.07</ele>
        <time>2016-08-21T13:23:20Z</time>
      </trkpt>
      <trkpt lat="42.419152" lon="2.183605">
        <ele>2796.01</ele>
        <time>2016-08-21T13:23:28Z</time>
      </trkpt>
      <trkpt lat="42.419114" lon="2.183486">
        <ele>2800.09</ele>
        <time>2016-08-21T13:23:36Z</time>
      </trkpt>
      <trkpt lat="42.419070" lon="2.183378">
        <ele>2794.01</ele>
        <time>2016-08-21T13:23:44Z</time>
      </trkpt>
      <trkpt lat="42.418998" lon="2.183301">
        <ele>2797.02</ele>
        <time>2016-08-21T13:23:53Z</time>
      </trkpt>
      <trkpt lat="42.418952" lon="2.183194">
        <ele>2795.09</ele>
        <time>2016-08-21T13:24:03Z</time>
      </trkpt>
      <trkpt lat="42.418885" lon="2.183087">
        <ele>2793.03</ele>
        <time>2016-08-21T13:24:13Z</time>
      </trkpt>
      <trkpt lat="42.418817" lon="2.182992">
        <ele>2790.07</ele>
        <time>2016-08-21T13:24:22Z</time>
      </trkpt>
      <trkpt lat="42.418744" lon="2.182907">
        <ele>2785.07</ele>
        <time>2016-08-21T13:24:30Z</time>
      </trkpt>
      <trkpt lat="42.418697" lon="2.182788">
        <ele>2793.04</ele>
        <time>2016-08-21T13:24:35Z</time>
      </trkpt>
      <trkpt lat="42.418653" lon="2.182644">
        <ele>2788.03</ele>
        <time>2016-08-21T13:24:39Z</time>
      </trkpt>
      <trkpt lat="42.418598" lon="2.182502">
        <ele>2790.09</ele>
        <time>2016-08-21T13:24:43Z</time>
      </trkpt>
      <trkpt lat="42.418531" lon="2.182378">
        <ele>2792.02</ele>
        <time>2016-08-21T13:24:47Z</time>
      </trkpt>
      <trkpt lat="42.418485" lon="2.182256">
        <ele>2791.02</ele>
        <time>2016-08-21T13:24:51Z</time>
      </trkpt>
      <trkpt lat="42.418439" lon="2.182125">
        <ele>2791.06</ele>
        <time>2016-08-21T13:24:55Z</time>
      </trkpt>
      <trkpt lat="42.418398" lon="2.182000">
        <ele>2789.01</ele>
        <time>2016-08-21T13:24:59Z</time>
      </trkpt>
      <trkpt lat="42.418387" lon="2.181864">
        <ele>2792.01</ele>
        <time>2016-08-21T13:25:03Z</time>
      </trkpt>
      <trkpt lat="42.418454" lon="2.181773">
        <ele>2798.09</ele>
        <time>2016-08-21T13:25:09Z</time>
      </trkpt>
      <trkpt lat="42.418446" lon="2.181638">
        <ele>2796.07</ele>
        <time>2016-08-21T13:25:21Z</time>
      </trkpt>
      <trkpt lat="42.418401" lon="2.181531">
        <ele>2786.02</ele>
        <time>2016-08-21T13:26:34Z</time>
      </trkpt>
      <trkpt lat="42.418364" lon="2.181419">
        <ele>2783.05</ele>
        <time>2016-08-21T13:26:44Z</time>
      </trkpt>
      <trkpt lat="42.418334" lon="2.181302">
        <ele>2780.07</ele>
        <time>2016-08-21T13:26:52Z</time>
      </trkpt>
      <trkpt lat="42.418315" lon="2.181180">
        <ele>2788.04</ele>
        <time>2016-08-21T13:26:59Z</time>
      </trkpt>
      <trkpt lat="42.418292" lon="2.181048">
        <ele>2789.02</ele>
        <time>2016-08-21T13:27:08Z</time>
      </trkpt>
      <trkpt lat="42.418272" lon="2.180920">
        <ele>2787.10</ele>
        <time>2016-08-21T13:27:15Z</time>
      </trkpt>
      <trkpt lat="42.418247" lon="2.180798">
        <ele>2792.05</ele>
        <time>2016-08-21T13:27:22Z</time>
      </trkpt>
      <trkpt lat="42.418241" lon="2.180670">
        <ele>2792.14</ele>
        <time>2016-08-21T13:27:29Z</time>
      </trkpt>
      <trkpt lat="42.418244" lon="2.180530">
        <ele>2795.01</ele>
        <time>2016-08-21T13:27:36Z</time>
      </trkpt>
      <trkpt lat="42.418259" lon="2.180399">
        <ele>2792.01</ele>
        <time>2016-08-21T13:27:44Z</time>
      </trkpt>
      <trkpt lat="42.418285" lon="2.180269">
        <ele>2793.04</ele>
        <time>2016-08-21T13:27:53Z</time>
      </trkpt>
      <trkpt lat="42.418312" lon="2.180153">
        <ele>2796.02</ele>
        <time>2016-08-21T13:28:01Z</time>
      </trkpt>
      <trkpt lat="42.418356" lon="2.180042">
        <ele>2793.10</ele>
        <time>2016-08-21T13:28:11Z</time>
      </trkpt>
      <trkpt lat="42.418405" lon="2.179924">
        <ele>2793.02</ele>
        <time>2016-08-21T13:28:21Z</time>
      </trkpt>
      <trkpt lat="42.418465" lon="2.179824">
        <ele>2793.05</ele>
        <time>2016-08-21T13:28:33Z</time>
      </trkpt>
      <trkpt lat="42.418508" lon="2.179708">
        <ele>2786.06</ele>
        <time>2016-08-21T13:28:50Z</time>
      </trkpt>
      <trkpt lat="42.418588" lon="2.179648">
        <ele>2783.08</ele>
        <time>2016-08-21T13:29:04Z</time>
      </trkpt>
      <trkpt lat="42.418679" lon="2.179595">
        <ele>2786.02</ele>
        <time>2016-08-21T13:29:20Z</time>
      </trkpt>
      <trkpt lat="42.418768" lon="2.179556">
        <ele>2782.04</ele>
        <time>2016-08-21T13:29:37Z</time>
      </trkpt>
      <trkpt lat="42.418813" lon="2.179448">
        <ele>2775.02</ele>
        <time>2016-08-21T13:29:59Z</time>
      </trkpt>
      <trkpt lat="42.418855" lon="2.179334">
        <ele>2766.01</ele>
        <time>2016-08-21T13:30:33Z</time>
      </trkpt>
      <trkpt lat="42.418838" lon="2.179214">
        <ele>2759.02</ele>
        <time>2016-08-21T13:30:55Z</time>
      </trkpt>
      <trkpt lat="42.418919" lon="2.179161">
        <ele>2758.01</ele>
        <time>2016-08-21T13:31:24Z</time>
      </trkpt>
      <trkpt lat="42.419014" lon="2.179125">
        <ele>2757.05</ele>
        <time>2016-08-21T13:31:39Z</time>
      </trkpt>
      <trkpt lat="42.419092" lon="2.179051">
        <ele>2749.02</ele>
        <time>2016-08-21T13:31:53Z</time>
      </trkpt>
      <trkpt lat="42.419184" lon="2.179011">
        <ele>2744.06</ele>
        <time>2016-08-21T13:32:10Z</time>
      </trkpt>
      <trkpt lat="42.419281" lon="2.179013">
        <ele>2740.02</ele>
        <time>2016-08-21T13:32:43Z</time>
      </trkpt>
      <trkpt lat="42.419346" lon="2.178911">
        <ele>2735.05</ele>
        <time>2016-08-21T13:33:38Z</time>
      </trkpt>
      <trkpt lat="42.419408" lon="2.178807">
        <ele>2729.02</ele>
        <time>2016-08-21T13:34:02Z</time>
      </trkpt>
      <trkpt lat="42.419497" lon="2.178745">
        <ele>2725.07</ele>
        <time>2016-08-21T13:34:18Z</time>
      </trkpt>
      <trkpt lat="42.419581" lon="2.178696">
        <ele>2722.07</ele>
        <time>2016-08-21T13:35:00Z</time>
      </trkpt>
      <trkpt lat="42.419637" lon="2.178584">
        <ele>2715.04</ele>
        <time>2016-08-21T13:35:23Z</time>
      </trkpt>
      <trkpt lat="42.419724" lon="2.178520">
        <ele>2714.01</ele>
        <time>2016-08-21T13:35:40Z</time>
      </trkpt>
      <trkpt lat="42.419804" lon="2.178449">
        <ele>2711.01</ele>
        <time>2016-08-21T13:35:54Z</time>
      </trkpt>
      <trkpt lat="42.419884" lon="2.178374">
        <ele>2715.02</ele>
        <time>2016-08-21T13:36:10Z</time>
      </trkpt>
      <trkpt lat="42.419883" lon="2.178248">
        <ele>2707.06</ele>
        <time>2016-08-21T13:36:33Z</time>
      </trkpt>
      <trkpt lat="42.419864" lon="2.178128">
        <ele>2707.10</ele>
        <time>2016-08-21T13:36:58Z</time>
      </trkpt>
      <trkpt lat="42.419878" lon="2.177999">
        <ele>2697.05</ele>
        <time>2016-08-21T13:37:37Z</time>
      </trkpt>
      <trkpt lat="42.419902" lon="2.177870">
        <ele>2693.08</ele>
        <time>2016-08-21T13:38:02Z</time>
      </trkpt>
      <trkpt lat="42.419953" lon="2.177765">
        <ele>2690.03</ele>
        <time>2016-08-21T13:38:23Z</time>
      </trkpt>
      <trkpt lat="42.420001" lon="2.177655">
        <ele>2687.03</ele>
        <time>2016-08-21T13:38:41Z</time>
      </trkpt>
      <trkpt lat="42.420072" lon="2.177553">
        <ele>2683.06</ele>
        <time>2016-08-21T13:38:57Z</time>
      </trkpt>
      <trkpt lat="42.420131" lon="2.177448">
        <ele>2678.06</ele>
        <time>2016-08-21T13:39:14Z</time>
      </trkpt>
      <trkpt lat="42.420202" lon="2.177355">
        <ele>2673.06</ele>
        <time>2016-08-21T13:39:35Z</time>
      </trkpt>
      <trkpt lat="42.420264" lon="2.177258">
        <ele>2669.01</ele>
        <time>2016-08-21T13:39:50Z</time>
      </trkpt>
      <trkpt lat="42.420347" lon="2.177202">
        <ele>2669.02</ele>
        <time>2016-08-21T13:39:57Z</time>
      </trkpt>
      <trkpt lat="42.420379" lon="2.177081">
        <ele>2667.00</ele>
        <time>2016-08-21T13:42:15Z</time>
      </trkpt>
      <trkpt lat="42.420459" lon="2.177022">
        <ele>2665.06</ele>
        <time>2016-08-21T13:42:25Z</time>
      </trkpt>
      <trkpt lat="42.420540" lon="2.176963">
        <ele>2665.09</ele>
        <time>2016-08-21T13:42:34Z</time>
      </trkpt>
      <trkpt lat="42.420621" lon="2.176905">
        <ele>2676.07</ele>
        <time>2016-08-21T13:44:32Z</time>
      </trkpt>
      <trkpt lat="42.420689" lon="2.176823">
        <ele>2675.03</ele>
        <time>2016-08-21T13:44:47Z</time>
      </trkpt>
      <trkpt lat="42.420751" lon="2.176730">
        <ele>2674.02</ele>
        <time>2016-08-21T13:44:59Z</time>
      </trkpt>
      <trkpt lat="42.420800" lon="2.176627">
        <ele>2674.08</ele>
        <time>2016-08-21T13:45:06Z</time>
      </trkpt>
      <trkpt lat="42.420833" lon="2.176500">
        <ele>2673.07</ele>
        <time>2016-08-21T13:45:16Z</time>
      </trkpt>
      <trkpt lat="42.420896" lon="2.176401">
        <ele>2670.04</ele>
        <time>2016-08-21T13:45:27Z</time>
      </trkpt>
      <trkpt lat="42.420982" lon="2.176352">
        <ele>2667.04</ele>
        <time>2016-08-21T13:45:36Z</time>
      </trkpt>
      <trkpt lat="42.421067" lon="2.176307">
        <ele>2664.01</ele>
        <time>2016-08-21T13:45:44Z</time>
      </trkpt>
      <trkpt lat="42.421123" lon="2.176199">
        <ele>2662.01</ele>
        <time>2016-08-21T13:45:52Z</time>
      </trkpt>
      <trkpt lat="42.421178" lon="2.176102">
        <ele>2662.08</ele>
        <time>2016-08-21T13:45:57Z</time>
      </trkpt>
      <trkpt lat="42.421246" lon="2.175998">
        <ele>2662.02</ele>
        <time>2016-08-21T13:46:05Z</time>
      </trkpt>
      <trkpt lat="42.421325" lon="2.175908">
        <ele>2658.07</ele>
        <time>2016-08-21T13:46:16Z</time>
      </trkpt>
      <trkpt lat="42.421387" lon="2.175818">
        <ele>2663.08</ele>
        <time>2016-08-21T13:46:26Z</time>
      </trkpt>
      <trkpt lat="42.421454" lon="2.175717">
        <ele>2664.09</ele>
        <time>2016-08-21T13:46:32Z</time>
      </trkpt>
      <trkpt lat="42.421510" lon="2.175602">
        <ele>2663.03</ele>
        <time>2016-08-21T13:46:38Z</time>
      </trkpt>
      <trkpt lat="42.421594" lon="2.175512">
        <ele>2664.14</ele>
        <time>2016-08-21T13:46:44Z</time>
      </trkpt>
      <trkpt lat="42.421660" lon="2.175413">
        <ele>2664.09</ele>
        <time>2016-08-21T13:46:50Z</time>
      </trkpt>
      <trkpt lat="42.421693" lon="2.175288">
        <ele>2665.07</ele>
        <time>2016-08-21T13:46:56Z</time>
      </trkpt>
      <trkpt lat="42.421712" lon="2.175163">
        <ele>2667.03</ele>
        <time>2016-08-21T13:47:02Z</time>
      </trkpt>
      <trkpt lat="42.421771" lon="2.175055">
        <ele>2669.01</ele>
        <time>2016-08-21T13:47:11Z</time>
      </trkpt>
      <trkpt lat="42.421818" lon="2.174937">
        <ele>2672.01</ele>
        <time>2016-08-21T13:47:22Z</time>
      </trkpt>
      <trkpt lat="42.421868" lon="2.174809">
        <ele>2674.02</ele>
        <time>2016-08-21T13:47:31Z</time>
      </trkpt>
      <trkpt lat="42.421903" lon="2.174678">
        <ele>2676.06</ele>
        <time>2016-08-21T13:47:41Z</time>
      </trkpt>
      <trkpt lat="42.421944" lon="2.174563">
        <ele>2676.07</ele>
        <time>2016-08-21T13:47:49Z</time>
      </trkpt>
      <trkpt lat="42.421995" lon="2.174449">
        <ele>2676.02</ele>
        <time>2016-08-21T13:47:57Z</time>
      </trkpt>
      <trkpt lat="42.422041" lon="2.174324">
        <ele>2675.04</ele>
        <time>2016-08-21T13:48:04Z</time>
      </trkpt>
      <trkpt lat="42.422098" lon="2.174209">
        <ele>2676.09</ele>
        <time>2016-08-21T13:48:11Z</time>
      </trkpt>
      <trkpt lat="42.422159" lon="2.174116">
        <ele>2676.08</ele>
        <time>2016-08-21T13:48:17Z</time>
      </trkpt>
      <trkpt lat="42.422209" lon="2.174010">
        <ele>2677.09</ele>
        <time>2016-08-21T13:48:23Z</time>
      </trkpt>
      <trkpt lat="42.422279" lon="2.173905">
        <ele>2679.09</ele>
        <time>2016-08-21T13:48:32Z</time>
      </trkpt>
      <trkpt lat="42.422308" lon="2.173781">
        <ele>2679.05</ele>
        <time>2016-08-21T13:48:38Z</time>
      </trkpt>
      <trkpt lat="42.422318" lon="2.173644">
        <ele>2681.01</ele>
        <time>2016-08-21T13:48:48Z</time>
      </trkpt>
      <trkpt lat="42.422345" lon="2.173510">
        <ele>2685.03</ele>
        <time>2016-08-21T13:48:56Z</time>
      </trkpt>
      <trkpt lat="42.422349" lon="2.173379">
        <ele>2687.06</ele>
        <time>2016-08-21T13:49:05Z</time>
      </trkpt>
      <trkpt lat="42.422392" lon="2.173259">
        <ele>2690.08</ele>
        <time>2016-08-21T13:49:13Z</time>
      </trkpt>
      <trkpt lat="42.422371" lon="2.173133">
        <ele>2691.08</ele>
        <time>2016-08-21T13:49:22Z</time>
      </trkpt>
      <trkpt lat="42.422361" lon="2.173007">
        <ele>2694.05</ele>
        <time>2016-08-21T13:49:30Z</time>
      </trkpt>
      <trkpt lat="42.422329" lon="2.172874">
        <ele>2700.06</ele>
        <time>2016-08-21T13:49:40Z</time>
      </trkpt>
      <trkpt lat="42.422386" lon="2.172776">
        <ele>2701.02</ele>
        <time>2016-08-21T13:49:46Z</time>
      </trkpt>
      <trkpt lat="42.422433" lon="2.172656">
        <ele>2704.08</ele>
        <time>2016-08-21T13:49:56Z</time>
      </trkpt>
      <trkpt lat="42.422482" lon="2.172546">
        <ele>2707.01</ele>
        <time>2016-08-21T13:50:03Z</time>
      </trkpt>
      <trkpt lat="42.422523" lon="2.172430">
        <ele>2710.09</ele>
        <time>2016-08-21T13:50:09Z</time>
      </trkpt>
      <trkpt lat="42.422557" lon="2.172308">
        <ele>2713.08</ele>
        <time>2016-08-21T13:50:18Z</time>
      </trkpt>
      <trkpt lat="42.422597" lon="2.172198">
        <ele>2716.01</ele>
        <time>2016-08-21T13:50:27Z</time>
      </trkpt>
      <trkpt lat="42.422602" lon="2.172072">
        <ele>2717.03</ele>
        <time>2016-08-21T13:50:40Z</time>
      </trkpt>
      <trkpt lat="42.422617" lon="2.171950">
        <ele>2726.01</ele>
        <time>2016-08-21T13:50:49Z</time>
      </trkpt>
      <trkpt lat="42.422657" lon="2.171831">
        <ele>2727.09</ele>
        <time>2016-08-21T13:50:55Z</time>
      </trkpt>
      <trkpt lat="42.422698" lon="2.171719">
        <ele>2728.08</ele>
        <time>2016-08-21T13:50:59Z</time>
      </trkpt>
      <trkpt lat="42.422764" lon="2.171606">
        <ele>2729.07</ele>
        <time>2016-08-21T13:51:05Z</time>
      </trkpt>
      <trkpt lat="42.422804" lon="2.171478">
        <ele>2734.09</ele>
        <time>2016-08-21T13:51:12Z</time>
      </trkpt>
      <trkpt lat="42.422842" lon="2.171356">
        <ele>2735.03</ele>
        <time>2016-08-21T13:51:18Z</time>
      </trkpt>
      <trkpt lat="42.422903" lon="2.171243">
        <ele>2740.05</ele>
        <time>2016-08-21T13:51:24Z</time>
      </trkpt>
      <trkpt lat="42.422922" lon="2.171120">
        <ele>2742.01</ele>
        <time>2016-08-21T13:51:42Z</time>
      </trkpt>
      <trkpt lat="42.422963" lon="2.171007">
        <ele>2745.08</ele>
        <time>2016-08-21T13:51:53Z</time>
      </trkpt>
      <trkpt lat="42.423023" lon="2.170913">
        <ele>2748.10</ele>
        <time>2016-08-21T13:51:59Z</time>
      </trkpt>
      <trkpt lat="42.423063" lon="2.170784">
        <ele>2751.01</ele>
        <time>2016-08-21T13:52:06Z</time>
      </trkpt>
      <trkpt lat="42.423109" lon="2.170667">
        <ele>2753.01</ele>
        <time>2016-08-21T13:52:15Z</time>
      </trkpt>
      <trkpt lat="42.423088" lon="2.170540">
        <ele>2757.01</ele>
        <time>2016-08-21T13:52:30Z</time>
      </trkpt>
      <trkpt lat="42.423142" lon="2.170420">
        <ele>2761.07</ele>
        <time>2016-08-21T13:52:43Z</time>
      </trkpt>
      <trkpt lat="42.423241" lon="2.170374">
        <ele>2758.10</ele>
        <time>2016-08-21T13:52:50Z</time>
      </trkpt>
      <trkpt lat="42.423257" lon="2.170250">
        <ele>2767.01</ele>
        <time>2016-08-21T13:53:05Z</time>
      </trkpt>
      <trkpt lat="42.423273" lon="2.170121">
        <ele>2784.08</ele>
        <time>2016-08-21T13:53:10Z</time>
      </trkpt>
      <trkpt lat="42.423270" lon="2.169992">
        <ele>2790.02</ele>
        <time>2016-08-21T13:53:20Z</time>
      </trkpt>
      <trkpt lat="42.423330" lon="2.169876">
        <ele>2777.05</ele>
        <time>2016-08-21T13:53:26Z</time>
      </trkpt>
      <trkpt lat="42.423348" lon="2.169730">
        <ele>2788.10</ele>
        <time>2016-08-21T13:53:31Z</time>
      </trkpt>
      <trkpt lat="42.423378" lon="2.169613">
        <ele>2786.01</ele>
        <time>2016-08-21T13:53:37Z</time>
      </trkpt>
      <trkpt lat="42.423464" lon="2.169540">
        <ele>2803.06</ele>
        <time>2016-08-21T13:53:48Z</time>
      </trkpt>
      <trkpt lat="42.423558" lon="2.169517">
        <ele>2805.01</ele>
        <time>2016-08-21T13:53:55Z</time>
      </trkpt>
      <trkpt lat="42.423648" lon="2.169494">
        <ele>2809.02</ele>
        <time>2016-08-21T13:54:01Z</time>
      </trkpt>
      <trkpt lat="42.423734" lon="2.169419">
        <ele>2811.00</ele>
        <time>2016-08-21T13:54:06Z</time>
      </trkpt>
      <trkpt lat="42.423806" lon="2.169345">
        <ele>2813.05</ele>
        <time>2016-08-21T13:54:12Z</time>
      </trkpt>
      <trkpt lat="42.423878" lon="2.169260">
        <ele>2816.05</ele>
        <time>2016-08-21T13:54:18Z</time>
      </trkpt>
      <trkpt lat="42.423949" lon="2.169173">
        <ele>2819.09</ele>
        <time>2016-08-21T13:54:24Z</time>
      </trkpt>
      <trkpt lat="42.424012" lon="2.169081">
        <ele>2821.08</ele>
        <time>2016-08-21T13:54:31Z</time>
      </trkpt>
      <trkpt lat="42.424077" lon="2.168994">
        <ele>2821.02</ele>
        <time>2016-08-21T13:54:37Z</time>
      </trkpt>
      <trkpt lat="42.424162" lon="2.168902">
        <ele>2825.06</ele>
        <time>2016-08-21T13:54:44Z</time>
      </trkpt>
      <trkpt lat="42.424217" lon="2.168799">
        <ele>2829.02</ele>
        <time>2016-08-21T13:54:53Z</time>
      </trkpt>
      <trkpt lat="42.424275" lon="2.168692">
        <ele>2832.04</ele>
        <time>2016-08-21T13:54:59Z</time>
      </trkpt>
      <trkpt lat="42.424298" lon="2.168562">
        <ele>2839.10</ele>
        <time>2016-08-21T13:55:09Z</time>
      </trkpt>
      <trkpt lat="42.424386" lon="2.168483">
        <ele>2842.01</ele>
        <time>2016-08-21T13:55:16Z</time>
      </trkpt>
      <trkpt lat="42.424443" lon="2.168387">
        <ele>2842.02</ele>
        <time>2016-08-21T13:55:23Z</time>
      </trkpt>
      <trkpt lat="42.424527" lon="2.168296">
        <ele>2843.06</ele>
        <time>2016-08-21T13:55:30Z</time>
      </trkpt>
      <trkpt lat="42.424564" lon="2.168172">
        <ele>2845.07</ele>
        <time>2016-08-21T13:55:36Z</time>
      </trkpt>
      <trkpt lat="42.424588" lon="2.168040">
        <ele>2852.09</ele>
        <time>2016-08-21T13:55:47Z</time>
      </trkpt>
      <trkpt lat="42.424670" lon="2.167977">
        <ele>2857.07</ele>
        <time>2016-08-21T13:55:58Z</time>
      </trkpt>
      <trkpt lat="42.424719" lon="2.167872">
        <ele>2859.03</ele>
        <time>2016-08-21T13:56:04Z</time>
      </trkpt>
      <trkpt lat="42.424776" lon="2.167756">
        <ele>2863.08</ele>
        <time>2016-08-21T13:56:11Z</time>
      </trkpt>
      <trkpt lat="42.424847" lon="2.167661">
        <ele>2865.09</ele>
        <time>2016-08-21T13:57:05Z</time>
      </trkpt>
      <trkpt lat="42.424751" lon="2.167696">
        <ele>2860.01</ele>
        <time>2016-08-21T14:03:35Z</time>
      </trkpt>
      <trkpt lat="42.424663" lon="2.167753">
        <ele>2860.05</ele>
        <time>2016-08-21T14:03:47Z</time>
      </trkpt>
      <trkpt lat="42.424753" lon="2.167790">
        <ele>2861.07</ele>
        <time>2016-08-21T14:03:54Z</time>
      </trkpt>
      <trkpt lat="42.424828" lon="2.167700">
        <ele>2863.11</ele>
        <time>2016-08-21T14:05:28Z</time>
      </trkpt>
      <trkpt lat="42.424894" lon="2.167613">
        <ele>2867.01</ele>
        <time>2016-08-21T14:06:04Z</time>
      </trkpt>
      <trkpt lat="42.424809" lon="2.167659">
        <ele>2861.05</ele>
        <time>2016-08-21T14:06:56Z</time>
      </trkpt>
      <trkpt lat="42.424716" lon="2.167614">
        <ele>2860.01</ele>
        <time>2016-08-21T14:07:06Z</time>
      </trkpt>
      <trkpt lat="42.424626" lon="2.167563">
        <ele>2859.05</ele>
        <time>2016-08-21T14:07:14Z</time>
      </trkpt>
      <trkpt lat="42.424536" lon="2.167526">
        <ele>2858.09</ele>
        <time>2016-08-21T14:07:22Z</time>
      </trkpt>
      <trkpt lat="42.424443" lon="2.167482">
        <ele>2858.04</ele>
        <time>2016-08-21T14:07:49Z</time>
      </trkpt>
      <trkpt lat="42.424348" lon="2.167431">
        <ele>2857.02</ele>
        <time>2016-08-21T14:07:56Z</time>
      </trkpt>
      <trkpt lat="42.424269" lon="2.167370">
        <ele>2855.07</ele>
        <time>2016-08-21T14:08:03Z</time>
      </trkpt>
      <trkpt lat="42.424167" lon="2.167358">
        <ele>2855.03</ele>
        <time>2016-08-21T14:09:05Z</time>
      </trkpt>
      <trkpt lat="42.424065" lon="2.167363">
        <ele>2857.07</ele>
        <time>2016-08-21T14:10:02Z</time>
      </trkpt>
      <trkpt lat="42.423981" lon="2.167319">
        <ele>2849.04</ele>
        <time>2016-08-21T14:10:37Z</time>
      </trkpt>
      <trkpt lat="42.423910" lon="2.167230">
        <ele>2845.01</ele>
        <time>2016-08-21T14:10:53Z</time>
      </trkpt>
      <trkpt lat="42.423849" lon="2.167119">
        <ele>2843.01</ele>
        <time>2016-08-21T14:11:15Z</time>
      </trkpt>
      <trkpt lat="42.423792" lon="2.167023">
        <ele>2839.09</ele>
        <time>2016-08-21T14:11:32Z</time>
      </trkpt>
      <trkpt lat="42.423718" lon="2.166939">
        <ele>2836.02</ele>
        <time>2016-08-21T14:11:47Z</time>
      </trkpt>
      <trkpt lat="42.423636" lon="2.166850">
        <ele>2833.05</ele>
        <time>2016-08-21T14:12:01Z</time>
      </trkpt>
      <trkpt lat="42.423573" lon="2.166750">
        <ele>2831.07</ele>
        <time>2016-08-21T14:12:14Z</time>
      </trkpt>
      <trkpt lat="42.423501" lon="2.166672">
        <ele>2831.02</ele>
        <time>2016-08-21T14:12:26Z</time>
      </trkpt>
      <trkpt lat="42.423422" lon="2.166592">
        <ele>2830.02</ele>
        <time>2016-08-21T14:12:35Z</time>
      </trkpt>
      <trkpt lat="42.423361" lon="2.166487">
        <ele>2825.03</ele>
        <time>2016-08-21T14:12:47Z</time>
      </trkpt>
      <trkpt lat="42.423279" lon="2.166414">
        <ele>2823.04</ele>
        <time>2016-08-21T14:12:58Z</time>
      </trkpt>
      <trkpt lat="42.423239" lon="2.166293">
        <ele>2823.03</ele>
        <time>2016-08-21T14:13:13Z</time>
      </trkpt>
      <trkpt lat="42.423189" lon="2.166185">
        <ele>2820.02</ele>
        <time>2016-08-21T14:13:25Z</time>
      </trkpt>
      <trkpt lat="42.423152" lon="2.166062">
        <ele>2816.01</ele>
        <time>2016-08-21T14:13:39Z</time>
      </trkpt>
      <trkpt lat="42.423127" lon="2.165943">
        <ele>2813.02</ele>
        <time>2016-08-21T14:13:54Z</time>
      </trkpt>
      <trkpt lat="42.423133" lon="2.165811">
        <ele>2811.04</ele>
        <time>2016-08-21T14:14:08Z</time>
      </trkpt>
      <trkpt lat="42.423079" lon="2.165696">
        <ele>2806.08</ele>
        <time>2016-08-21T14:14:20Z</time>
      </trkpt>
      <trkpt lat="42.423007" lon="2.165603">
        <ele>2806.02</ele>
        <time>2016-08-21T14:14:32Z</time>
      </trkpt>
      <trkpt lat="42.422982" lon="2.165467">
        <ele>2804.06</ele>
        <time>2016-08-21T14:14:45Z</time>
      </trkpt>
      <trkpt lat="42.422970" lon="2.165345">
        <ele>2802.05</ele>
        <time>2016-08-21T14:15:01Z</time>
      </trkpt>
      <trkpt lat="42.422928" lon="2.165224">
        <ele>2797.05</ele>
        <time>2016-08-21T14:15:13Z</time>
      </trkpt>
      <trkpt lat="42.422856" lon="2.165131">
        <ele>2797.03</ele>
        <time>2016-08-21T14:15:30Z</time>
      </trkpt>
      <trkpt lat="42.422818" lon="2.165009">
        <ele>2792.02</ele>
        <time>2016-08-21T14:15:47Z</time>
      </trkpt>
      <trkpt lat="42.422786" lon="2.164880">
        <ele>2789.07</ele>
        <time>2016-08-21T14:16:01Z</time>
      </trkpt>
      <trkpt lat="42.422740" lon="2.164771">
        <ele>2787.05</ele>
        <time>2016-08-21T14:16:15Z</time>
      </trkpt>
      <trkpt lat="42.422742" lon="2.164637">
        <ele>2784.01</ele>
        <time>2016-08-21T14:16:30Z</time>
      </trkpt>
      <trkpt lat="42.422722" lon="2.164502">
        <ele>2781.01</ele>
        <time>2016-08-21T14:16:43Z</time>
      </trkpt>
      <trkpt lat="42.422707" lon="2.164381">
        <ele>2781.00</ele>
        <time>2016-08-21T14:16:54Z</time>
      </trkpt>
      <trkpt lat="42.422706" lon="2.164254">
        <ele>2779.05</ele>
        <time>2016-08-21T14:17:06Z</time>
      </trkpt>
      <trkpt lat="42.422704" lon="2.164128">
        <ele>2776.06</ele>
        <time>2016-08-21T14:17:18Z</time>
      </trkpt>
      <trkpt lat="42.422697" lon="2.164003">
        <ele>2774.04</ele>
        <time>2016-08-21T14:17:32Z</time>
      </trkpt>
      <trkpt lat="42.422689" lon="2.163874">
        <ele>2772.12</ele>
        <time>2016-08-21T14:17:43Z</time>
      </trkpt>
      <trkpt lat="42.422680" lon="2.163737">
        <ele>2767.03</ele>
        <time>2016-08-21T14:18:04Z</time>
      </trkpt>
      <trkpt lat="42.422604" lon="2.163641">
        <ele>2765.05</ele>
        <time>2016-08-21T14:18:39Z</time>
      </trkpt>
      <trkpt lat="42.422613" lon="2.163505">
        <ele>2763.08</ele>
        <time>2016-08-21T14:18:53Z</time>
      </trkpt>
      <trkpt lat="42.422616" lon="2.163379">
        <ele>2762.08</ele>
        <time>2016-08-21T14:19:05Z</time>
      </trkpt>
      <trkpt lat="42.422637" lon="2.163254">
        <ele>2758.01</ele>
        <time>2016-08-21T14:19:20Z</time>
      </trkpt>
      <trkpt lat="42.422644" lon="2.163120">
        <ele>2755.01</ele>
        <time>2016-08-21T14:19:36Z</time>
      </trkpt>
      <trkpt lat="42.422666" lon="2.162999">
        <ele>2751.02</ele>
        <time>2016-08-21T14:19:54Z</time>
      </trkpt>
      <trkpt lat="42.422658" lon="2.162861">
        <ele>2750.00</ele>
        <time>2016-08-21T14:20:08Z</time>
      </trkpt>
      <trkpt lat="42.422675" lon="2.162717">
        <ele>2747.04</ele>
        <time>2016-08-21T14:20:15Z</time>
      </trkpt>
      <trkpt lat="42.422722" lon="2.162600">
        <ele>2746.01</ele>
        <time>2016-08-21T14:20:25Z</time>
      </trkpt>
      <trkpt lat="42.422726" lon="2.162473">
        <ele>2742.02</ele>
        <time>2016-08-21T14:20:40Z</time>
      </trkpt>
      <trkpt lat="42.422648" lon="2.162395">
        <ele>2742.09</ele>
        <time>2016-08-21T14:20:59Z</time>
      </trkpt>
      <trkpt lat="42.422621" lon="2.162275">
        <ele>2741.05</ele>
        <time>2016-08-21T14:21:07Z</time>
      </trkpt>
      <trkpt lat="42.422606" lon="2.162152">
        <ele>2740.03</ele>
        <time>2016-08-21T14:21:14Z</time>
      </trkpt>
      <trkpt lat="42.422598" lon="2.162030">
        <ele>2740.16</ele>
        <time>2016-08-21T14:21:21Z</time>
      </trkpt>
      <trkpt lat="42.422583" lon="2.161898">
        <ele>2739.02</ele>
        <time>2016-08-21T14:21:30Z</time>
      </trkpt>
      <trkpt lat="42.422571" lon="2.161775">
        <ele>2738.02</ele>
        <time>2016-08-21T14:21:39Z</time>
      </trkpt>
      <trkpt lat="42.422542" lon="2.161649">
        <ele>2739.01</ele>
        <time>2016-08-21T14:21:46Z</time>
      </trkpt>
      <trkpt lat="42.422503" lon="2.161524">
        <ele>2738.01</ele>
        <time>2016-08-21T14:21:53Z</time>
      </trkpt>
      <trkpt lat="42.422500" lon="2.161394">
        <ele>2739.04</ele>
        <time>2016-08-21T14:22:01Z</time>
      </trkpt>
      <trkpt lat="42.422516" lon="2.161263">
        <ele>2740.01</ele>
        <time>2016-08-21T14:22:08Z</time>
      </trkpt>
      <trkpt lat="42.422524" lon="2.161134">
        <ele>2740.03</ele>
        <time>2016-08-21T14:22:16Z</time>
      </trkpt>
      <trkpt lat="42.422492" lon="2.161019">
        <ele>2739.04</ele>
        <time>2016-08-21T14:22:23Z</time>
      </trkpt>
      <trkpt lat="42.422461" lon="2.160899">
        <ele>2741.01</ele>
        <time>2016-08-21T14:22:30Z</time>
      </trkpt>
      <trkpt lat="42.422443" lon="2.160772">
        <ele>2740.03</ele>
        <time>2016-08-21T14:22:39Z</time>
      </trkpt>
      <trkpt lat="42.422412" lon="2.160657">
        <ele>2738.06</ele>
        <time>2016-08-21T14:22:46Z</time>
      </trkpt>
      <trkpt lat="42.422379" lon="2.160532">
        <ele>2739.03</ele>
        <time>2016-08-21T14:22:54Z</time>
      </trkpt>
      <trkpt lat="42.422394" lon="2.160397">
        <ele>2740.06</ele>
        <time>2016-08-21T14:23:01Z</time>
      </trkpt>
      <trkpt lat="42.422373" lon="2.160263">
        <ele>2740.06</ele>
        <time>2016-08-21T14:23:08Z</time>
      </trkpt>
      <trkpt lat="42.422385" lon="2.160136">
        <ele>2740.01</ele>
        <time>2016-08-21T14:23:15Z</time>
      </trkpt>
      <trkpt lat="42.422383" lon="2.160003">
        <ele>2740.02</ele>
        <time>2016-08-21T14:23:23Z</time>
      </trkpt>
      <trkpt lat="42.422390" lon="2.159871">
        <ele>2738.03</ele>
        <time>2016-08-21T14:23:33Z</time>
      </trkpt>
      <trkpt lat="42.422384" lon="2.159735">
        <ele>2739.07</ele>
        <time>2016-08-21T14:23:38Z</time>
      </trkpt>
      <trkpt lat="42.422365" lon="2.159590">
        <ele>2738.02</ele>
        <time>2016-08-21T14:23:43Z</time>
      </trkpt>
      <trkpt lat="42.422348" lon="2.159464">
        <ele>2739.06</ele>
        <time>2016-08-21T14:23:48Z</time>
      </trkpt>
      <trkpt lat="42.422319" lon="2.159344">
        <ele>2740.03</ele>
        <time>2016-08-21T14:23:52Z</time>
      </trkpt>
      <trkpt lat="42.422282" lon="2.159215">
        <ele>2742.03</ele>
        <time>2016-08-21T14:23:57Z</time>
      </trkpt>
      <trkpt lat="42.422285" lon="2.159082">
        <ele>2744.03</ele>
        <time>2016-08-21T14:24:02Z</time>
      </trkpt>
      <trkpt lat="42.422299" lon="2.158955">
        <ele>2746.06</ele>
        <time>2016-08-21T14:24:06Z</time>
      </trkpt>
      <trkpt lat="42.422321" lon="2.158831">
        <ele>2746.09</ele>
        <time>2016-08-21T14:24:10Z</time>
      </trkpt>
      <trkpt lat="42.422347" lon="2.158709">
        <ele>2747.06</ele>
        <time>2016-08-21T14:24:14Z</time>
      </trkpt>
      <trkpt lat="42.422388" lon="2.158587">
        <ele>2748.01</ele>
        <time>2016-08-21T14:24:18Z</time>
      </trkpt>
      <trkpt lat="42.422426" lon="2.158447">
        <ele>2748.02</ele>
        <time>2016-08-21T14:24:22Z</time>
      </trkpt>
      <trkpt lat="42.422477" lon="2.158312">
        <ele>2752.05</ele>
        <time>2016-08-21T14:24:26Z</time>
      </trkpt>
      <trkpt lat="42.422552" lon="2.158224">
        <ele>2755.06</ele>
        <time>2016-08-21T14:24:30Z</time>
      </trkpt>
      <trkpt lat="42.422620" lon="2.158141">
        <ele>2757.09</ele>
        <time>2016-08-21T14:24:34Z</time>
      </trkpt>
      <trkpt lat="42.422680" lon="2.158038">
        <ele>2760.10</ele>
        <time>2016-08-21T14:24:38Z</time>
      </trkpt>
      <trkpt lat="42.422752" lon="2.157912">
        <ele>2763.01</ele>
        <time>2016-08-21T14:24:43Z</time>
      </trkpt>
      <trkpt lat="42.422787" lon="2.157786">
        <ele>2767.03</ele>
        <time>2016-08-21T14:24:47Z</time>
      </trkpt>
      <trkpt lat="42.422847" lon="2.157657">
        <ele>2770.01</ele>
        <time>2016-08-21T14:24:51Z</time>
      </trkpt>
      <trkpt lat="42.422928" lon="2.157596">
        <ele>2774.05</ele>
        <time>2016-08-21T14:24:57Z</time>
      </trkpt>
      <trkpt lat="42.422998" lon="2.157508">
        <ele>2778.01</ele>
        <time>2016-08-21T14:25:03Z</time>
      </trkpt>
      <trkpt lat="42.423076" lon="2.157439">
        <ele>2781.09</ele>
        <time>2016-08-21T14:25:08Z</time>
      </trkpt>
      <trkpt lat="42.423162" lon="2.157358">
        <ele>2786.11</ele>
        <time>2016-08-21T14:25:15Z</time>
      </trkpt>
      <trkpt lat="42.423234" lon="2.157261">
        <ele>2789.01</ele>
        <time>2016-08-21T14:25:25Z</time>
      </trkpt>
      <trkpt lat="42.423295" lon="2.157150">
        <ele>2791.04</ele>
        <time>2016-08-21T14:25:32Z</time>
      </trkpt>
      <trkpt lat="42.423371" lon="2.157065">
        <ele>2794.01</ele>
        <time>2016-08-21T14:25:46Z</time>
      </trkpt>
      <trkpt lat="42.423414" lon="2.156947">
        <ele>2785.03</ele>
        <time>2016-08-21T14:31:30Z</time>
      </trkpt>
      <trkpt lat="42.423318" lon="2.156913">
        <ele>2785.04</ele>
        <time>2016-08-21T14:32:06Z</time>
      </trkpt>
      <trkpt lat="42.423303" lon="2.156781">
        <ele>2781.05</ele>
        <time>2016-08-21T14:32:31Z</time>
      </trkpt>
      <trkpt lat="42.423322" lon="2.156648">
        <ele>2775.07</ele>
        <time>2016-08-21T14:32:55Z</time>
      </trkpt>
      <trkpt lat="42.423252" lon="2.156566">
        <ele>2772.09</ele>
        <time>2016-08-21T14:33:14Z</time>
      </trkpt>
      <trkpt lat="42.423161" lon="2.156516">
        <ele>2767.09</ele>
        <time>2016-08-21T14:33:36Z</time>
      </trkpt>
      <trkpt lat="42.423071" lon="2.156503">
        <ele>2765.01</ele>
        <time>2016-08-21T14:33:52Z</time>
      </trkpt>
      <trkpt lat="42.422981" lon="2.156446">
        <ele>2760.07</ele>
        <time>2016-08-21T14:34:14Z</time>
      </trkpt>
      <trkpt lat="42.422912" lon="2.156342">
        <ele>2758.01</ele>
        <time>2016-08-21T14:34:40Z</time>
      </trkpt>
      <trkpt lat="42.422834" lon="2.156267">
        <ele>2755.02</ele>
        <time>2016-08-21T14:34:57Z</time>
      </trkpt>
      <trkpt lat="42.422751" lon="2.156202">
        <ele>2755.09</ele>
        <time>2016-08-21T14:35:09Z</time>
      </trkpt>
      <trkpt lat="42.422659" lon="2.156161">
        <ele>2752.03</ele>
        <time>2016-08-21T14:35:19Z</time>
      </trkpt>
      <trkpt lat="42.422574" lon="2.156112">
        <ele>2752.06</ele>
        <time>2016-08-21T14:35:29Z</time>
      </trkpt>
      <trkpt lat="42.422489" lon="2.156066">
        <ele>2750.04</ele>
        <time>2016-08-21T14:35:39Z</time>
      </trkpt>
      <trkpt lat="42.422406" lon="2.155947">
        <ele>2748.03</ele>
        <time>2016-08-21T14:35:57Z</time>
      </trkpt>
      <trkpt lat="42.422404" lon="2.155821">
        <ele>2745.01</ele>
        <time>2016-08-21T14:36:10Z</time>
      </trkpt>
      <trkpt lat="42.422346" lon="2.155716">
        <ele>2742.06</ele>
        <time>2016-08-21T14:36:21Z</time>
      </trkpt>
      <trkpt lat="42.422325" lon="2.155595">
        <ele>2740.09</ele>
        <time>2016-08-21T14:36:35Z</time>
      </trkpt>
      <trkpt lat="42.422336" lon="2.155466">
        <ele>2738.01</ele>
        <time>2016-08-21T14:36:55Z</time>
      </trkpt>
      <trkpt lat="42.422307" lon="2.155344">
        <ele>2733.05</ele>
        <time>2016-08-21T14:37:11Z</time>
      </trkpt>
      <trkpt lat="42.422236" lon="2.155253">
        <ele>2729.01</ele>
        <time>2016-08-21T14:37:27Z</time>
      </trkpt>
      <trkpt lat="42.422177" lon="2.155147">
        <ele>2726.01</ele>
        <time>2016-08-21T14:37:40Z</time>
      </trkpt>
      <trkpt lat="42.422165" lon="2.155015">
        <ele>2723.08</ele>
        <time>2016-08-21T14:37:56Z</time>
      </trkpt>
      <trkpt lat="42.422077" lon="2.154980">
        <ele>2722.02</ele>
        <time>2016-08-21T14:38:04Z</time>
      </trkpt>
      <trkpt lat="42.421979" lon="2.154934">
        <ele>2721.09</ele>
        <time>2016-08-21T14:38:12Z</time>
      </trkpt>
      <trkpt lat="42.421893" lon="2.154868">
        <ele>2720.07</ele>
        <time>2016-08-21T14:38:21Z</time>
      </trkpt>
      <trkpt lat="42.421824" lon="2.154781">
        <ele>2717.05</ele>
        <time>2016-08-21T14:38:28Z</time>
      </trkpt>
      <trkpt lat="42.421776" lon="2.154659">
        <ele>2719.09</ele>
        <time>2016-08-21T14:38:36Z</time>
      </trkpt>
      <trkpt lat="42.421755" lon="2.154539">
        <ele>2717.02</ele>
        <time>2016-08-21T14:38:43Z</time>
      </trkpt>
      <trkpt lat="42.421702" lon="2.154427">
        <ele>2719.06</ele>
        <time>2016-08-21T14:38:50Z</time>
      </trkpt>
      <trkpt lat="42.421624" lon="2.154354">
        <ele>2722.05</ele>
        <time>2016-08-21T14:38:59Z</time>
      </trkpt>
      <trkpt lat="42.421527" lon="2.154315">
        <ele>2724.02</ele>
        <time>2016-08-21T14:39:09Z</time>
      </trkpt>
      <trkpt lat="42.421522" lon="2.154189">
        <ele>2724.01</ele>
        <time>2016-08-21T14:39:21Z</time>
      </trkpt>
      <trkpt lat="42.421499" lon="2.154061">
        <ele>2724.01</ele>
        <time>2016-08-21T14:39:29Z</time>
      </trkpt>
      <trkpt lat="42.421479" lon="2.153942">
        <ele>2726.08</ele>
        <time>2016-08-21T14:39:36Z</time>
      </trkpt>
      <trkpt lat="42.421485" lon="2.153809">
        <ele>2726.02</ele>
        <time>2016-08-21T14:39:44Z</time>
      </trkpt>
      <trkpt lat="42.421505" lon="2.153688">
        <ele>2722.10</ele>
        <time>2016-08-21T14:39:54Z</time>
      </trkpt>
      <trkpt lat="42.421497" lon="2.153565">
        <ele>2720.06</ele>
        <time>2016-08-21T14:40:03Z</time>
      </trkpt>
      <trkpt lat="42.421491" lon="2.153443">
        <ele>2719.09</ele>
        <time>2016-08-21T14:40:11Z</time>
      </trkpt>
      <trkpt lat="42.421533" lon="2.153321">
        <ele>2718.04</ele>
        <time>2016-08-21T14:40:20Z</time>
      </trkpt>
      <trkpt lat="42.421493" lon="2.153197">
        <ele>2721.02</ele>
        <time>2016-08-21T14:40:29Z</time>
      </trkpt>
      <trkpt lat="42.421476" lon="2.153070">
        <ele>2721.07</ele>
        <time>2016-08-21T14:40:38Z</time>
      </trkpt>
      <trkpt lat="42.421473" lon="2.152939">
        <ele>2716.04</ele>
        <time>2016-08-21T14:40:55Z</time>
      </trkpt>
      <trkpt lat="42.421474" lon="2.152812">
        <ele>2713.01</ele>
        <time>2016-08-21T14:41:02Z</time>
      </trkpt>
      <trkpt lat="42.421472" lon="2.152668">
        <ele>2715.01</ele>
        <time>2016-08-21T14:41:11Z</time>
      </trkpt>
      <trkpt lat="42.421409" lon="2.152569">
        <ele>2710.01</ele>
        <time>2016-08-21T14:41:43Z</time>
      </trkpt>
      <trkpt lat="42.421417" lon="2.152432">
        <ele>2709.00</ele>
        <time>2016-08-21T14:41:55Z</time>
      </trkpt>
      <trkpt lat="42.421417" lon="2.152309">
        <ele>2708.02</ele>
        <time>2016-08-21T14:42:23Z</time>
      </trkpt>
      <trkpt lat="42.421369" lon="2.152203">
        <ele>2709.03</ele>
        <time>2016-08-21T14:42:32Z</time>
      </trkpt>
      <trkpt lat="42.421338" lon="2.152068">
        <ele>2707.06</ele>
        <time>2016-08-21T14:42:43Z</time>
      </trkpt>
      <trkpt lat="42.421319" lon="2.151947">
        <ele>2710.02</ele>
        <time>2016-08-21T14:42:53Z</time>
      </trkpt>
      <trkpt lat="42.421318" lon="2.151805">
        <ele>2709.02</ele>
        <time>2016-08-21T14:43:01Z</time>
      </trkpt>
      <trkpt lat="42.421318" lon="2.151670">
        <ele>2712.02</ele>
        <time>2016-08-21T14:43:09Z</time>
      </trkpt>
      <trkpt lat="42.421315" lon="2.151536">
        <ele>2713.04</ele>
        <time>2016-08-21T14:43:19Z</time>
      </trkpt>
      <trkpt lat="42.421301" lon="2.151407">
        <ele>2711.09</ele>
        <time>2016-08-21T14:43:32Z</time>
      </trkpt>
      <trkpt lat="42.421292" lon="2.151261">
        <ele>2710.04</ele>
        <time>2016-08-21T14:43:44Z</time>
      </trkpt>
      <trkpt lat="42.421239" lon="2.151153">
        <ele>2709.01</ele>
        <time>2016-08-21T14:43:55Z</time>
      </trkpt>
      <trkpt lat="42.421235" lon="2.151022">
        <ele>2707.02</ele>
        <time>2016-08-21T14:44:07Z</time>
      </trkpt>
      <trkpt lat="42.421233" lon="2.150897">
        <ele>2706.00</ele>
        <time>2016-08-21T14:44:17Z</time>
      </trkpt>
      <trkpt lat="42.421252" lon="2.150777">
        <ele>2704.05</ele>
        <time>2016-08-21T14:44:28Z</time>
      </trkpt>
      <trkpt lat="42.421212" lon="2.150666">
        <ele>2704.04</ele>
        <time>2016-08-21T14:44:40Z</time>
      </trkpt>
      <trkpt lat="42.421142" lon="2.150580">
        <ele>2705.10</ele>
        <time>2016-08-21T14:44:50Z</time>
      </trkpt>
      <trkpt lat="42.421099" lon="2.150467">
        <ele>2704.05</ele>
        <time>2016-08-21T14:44:59Z</time>
      </trkpt>
      <trkpt lat="42.421043" lon="2.150366">
        <ele>2698.07</ele>
        <time>2016-08-21T14:45:07Z</time>
      </trkpt>
      <trkpt lat="42.420995" lon="2.150260">
        <ele>2699.01</ele>
        <time>2016-08-21T14:45:17Z</time>
      </trkpt>
      <trkpt lat="42.421014" lon="2.150126">
        <ele>2697.08</ele>
        <time>2016-08-21T14:45:27Z</time>
      </trkpt>
      <trkpt lat="42.421003" lon="2.150000">
        <ele>2692.03</ele>
        <time>2016-08-21T14:46:16Z</time>
      </trkpt>
      <trkpt lat="42.420916" lon="2.150068">
        <ele>2716.09</ele>
        <time>2016-08-21T14:46:46Z</time>
      </trkpt>
      <trkpt lat="42.420876" lon="2.149947">
        <ele>2718.01</ele>
        <time>2016-08-21T14:46:53Z</time>
      </trkpt>
      <trkpt lat="42.420847" lon="2.149829">
        <ele>2719.02</ele>
        <time>2016-08-21T14:46:57Z</time>
      </trkpt>
      <trkpt lat="42.420833" lon="2.149691">
        <ele>2721.07</ele>
        <time>2016-08-21T14:47:01Z</time>
      </trkpt>
      <trkpt lat="42.420810" lon="2.149545">
        <ele>2723.09</ele>
        <time>2016-08-21T14:47:05Z</time>
      </trkpt>
      <trkpt lat="42.420780" lon="2.149400">
        <ele>2724.10</ele>
        <time>2016-08-21T14:47:09Z</time>
      </trkpt>
      <trkpt lat="42.420766" lon="2.149237">
        <ele>2729.02</ele>
        <time>2016-08-21T14:47:14Z</time>
      </trkpt>
      <trkpt lat="42.420796" lon="2.149121">
        <ele>2730.03</ele>
        <time>2016-08-21T14:47:17Z</time>
      </trkpt>
      <trkpt lat="42.420838" lon="2.149012">
        <ele>2731.03</ele>
        <time>2016-08-21T14:47:21Z</time>
      </trkpt>
      <trkpt lat="42.420815" lon="2.148876">
        <ele>2734.03</ele>
        <time>2016-08-21T14:47:25Z</time>
      </trkpt>
      <trkpt lat="42.420844" lon="2.148745">
        <ele>2738.10</ele>
        <time>2016-08-21T14:47:30Z</time>
      </trkpt>
      <trkpt lat="42.420876" lon="2.148624">
        <ele>2743.03</ele>
        <time>2016-08-21T14:47:34Z</time>
      </trkpt>
      <trkpt lat="42.420796" lon="2.148559">
        <ele>2745.04</ele>
        <time>2016-08-21T14:47:38Z</time>
      </trkpt>
      <trkpt lat="42.420712" lon="2.148507">
        <ele>2749.01</ele>
        <time>2016-08-21T14:47:42Z</time>
      </trkpt>
      <trkpt lat="42.420608" lon="2.148475">
        <ele>2752.02</ele>
        <time>2016-08-21T14:47:46Z</time>
      </trkpt>
      <trkpt lat="42.420536" lon="2.148398">
        <ele>2753.00</ele>
        <time>2016-08-21T14:47:49Z</time>
      </trkpt>
      <trkpt lat="42.420463" lon="2.148296">
        <ele>2755.06</ele>
        <time>2016-08-21T14:47:53Z</time>
      </trkpt>
      <trkpt lat="42.420407" lon="2.148181">
        <ele>2758.02</ele>
        <time>2016-08-21T14:48:00Z</time>
      </trkpt>
      <trkpt lat="42.420333" lon="2.148084">
        <ele>2760.07</ele>
        <time>2016-08-21T14:48:04Z</time>
      </trkpt>
      <trkpt lat="42.420227" lon="2.148011">
        <ele>2760.09</ele>
        <time>2016-08-21T14:48:08Z</time>
      </trkpt>
      <trkpt lat="42.420146" lon="2.147925">
        <ele>2762.09</ele>
        <time>2016-08-21T14:48:12Z</time>
      </trkpt>
      <trkpt lat="42.420030" lon="2.147901">
        <ele>2765.07</ele>
        <time>2016-08-21T14:48:17Z</time>
      </trkpt>
      <trkpt lat="42.419925" lon="2.147848">
        <ele>2765.03</ele>
        <time>2016-08-21T14:48:21Z</time>
      </trkpt>
      <trkpt lat="42.419831" lon="2.147770">
        <ele>2767.05</ele>
        <time>2016-08-21T14:48:27Z</time>
      </trkpt>
      <trkpt lat="42.419732" lon="2.147710">
        <ele>2769.10</ele>
        <time>2016-08-21T14:48:32Z</time>
      </trkpt>
      <trkpt lat="42.419632" lon="2.147659">
        <ele>2769.01</ele>
        <time>2016-08-21T14:48:36Z</time>
      </trkpt>
      <trkpt lat="42.419544" lon="2.147580">
        <ele>2769.01</ele>
        <time>2016-08-21T14:48:40Z</time>
      </trkpt>
      <trkpt lat="42.419441" lon="2.147576">
        <ele>2765.08</ele>
        <time>2016-08-21T14:48:47Z</time>
      </trkpt>
      <trkpt lat="42.419359" lon="2.147515">
        <ele>2777.06</ele>
        <time>2016-08-21T14:48:54Z</time>
      </trkpt>
      <trkpt lat="42.419284" lon="2.147432">
        <ele>2775.06</ele>
        <time>2016-08-21T14:49:02Z</time>
      </trkpt>
      <trkpt lat="42.419197" lon="2.147380">
        <ele>2773.07</ele>
        <time>2016-08-21T14:49:09Z</time>
      </trkpt>
      <trkpt lat="42.419110" lon="2.147331">
        <ele>2772.08</ele>
        <time>2016-08-21T14:49:15Z</time>
      </trkpt>
      <trkpt lat="42.419025" lon="2.147285">
        <ele>2775.03</ele>
        <time>2016-08-21T14:49:20Z</time>
      </trkpt>
      <trkpt lat="42.418949" lon="2.147218">
        <ele>2775.07</ele>
        <time>2016-08-21T14:49:26Z</time>
      </trkpt>
      <trkpt lat="42.418859" lon="2.147160">
        <ele>2771.08</ele>
        <time>2016-08-21T14:49:32Z</time>
      </trkpt>
      <trkpt lat="42.418772" lon="2.147103">
        <ele>2772.09</ele>
        <time>2016-08-21T14:49:36Z</time>
      </trkpt>
      <trkpt lat="42.418676" lon="2.147033">
        <ele>2770.05</ele>
        <time>2016-08-21T14:49:40Z</time>
      </trkpt>
      <trkpt lat="42.418603" lon="2.146934">
        <ele>2774.11</ele>
        <time>2016-08-21T14:49:44Z</time>
      </trkpt>
      <trkpt lat="42.418570" lon="2.146790">
        <ele>2775.01</ele>
        <time>2016-08-21T14:49:49Z</time>
      </trkpt>
      <trkpt lat="42.418529" lon="2.146675">
        <ele>2775.08</ele>
        <time>2016-08-21T14:49:53Z</time>
      </trkpt>
      <trkpt lat="42.418461" lon="2.146579">
        <ele>2778.06</ele>
        <time>2016-08-21T14:49:59Z</time>
      </trkpt>
      <trkpt lat="42.418433" lon="2.146460">
        <ele>2779.03</ele>
        <time>2016-08-21T14:50:06Z</time>
      </trkpt>
      <trkpt lat="42.418391" lon="2.146326">
        <ele>2778.06</ele>
        <time>2016-08-21T14:50:13Z</time>
      </trkpt>
      <trkpt lat="42.418355" lon="2.146213">
        <ele>2777.18</ele>
        <time>2016-08-21T14:50:23Z</time>
      </trkpt>
      <trkpt lat="42.418319" lon="2.146097">
        <ele>2776.05</ele>
        <time>2016-08-21T14:50:32Z</time>
      </trkpt>
      <trkpt lat="42.418304" lon="2.145974">
        <ele>2777.08</ele>
        <time>2016-08-21T14:50:38Z</time>
      </trkpt>
      <trkpt lat="42.418278" lon="2.145853">
        <ele>2774.05</ele>
        <time>2016-08-21T14:50:45Z</time>
      </trkpt>
      <trkpt lat="42.418257" lon="2.145720">
        <ele>2774.07</ele>
        <time>2016-08-21T14:50:53Z</time>
      </trkpt>
      <trkpt lat="42.418212" lon="2.145598">
        <ele>2771.07</ele>
        <time>2016-08-21T14:51:02Z</time>
      </trkpt>
      <trkpt lat="42.418185" lon="2.145474">
        <ele>2768.01</ele>
        <time>2016-08-21T14:51:11Z</time>
      </trkpt>
      <trkpt lat="42.418177" lon="2.145347">
        <ele>2767.02</ele>
        <time>2016-08-21T14:51:18Z</time>
      </trkpt>
      <trkpt lat="42.418160" lon="2.145225">
        <ele>2767.01</ele>
        <time>2016-08-21T14:51:26Z</time>
      </trkpt>
      <trkpt lat="42.418110" lon="2.145116">
        <ele>2769.12</ele>
        <time>2016-08-21T14:51:33Z</time>
      </trkpt>
      <trkpt lat="42.418055" lon="2.145009">
        <ele>2766.05</ele>
        <time>2016-08-21T14:51:40Z</time>
      </trkpt>
      <trkpt lat="42.418019" lon="2.144894">
        <ele>2765.05</ele>
        <time>2016-08-21T14:51:48Z</time>
      </trkpt>
      <trkpt lat="42.417995" lon="2.144773">
        <ele>2764.03</ele>
        <time>2016-08-21T14:51:56Z</time>
      </trkpt>
      <trkpt lat="42.417937" lon="2.144666">
        <ele>2778.04</ele>
        <time>2016-08-21T14:52:04Z</time>
      </trkpt>
      <trkpt lat="42.417877" lon="2.144573">
        <ele>2777.01</ele>
        <time>2016-08-21T14:52:08Z</time>
      </trkpt>
      <trkpt lat="42.417796" lon="2.144490">
        <ele>2763.06</ele>
        <time>2016-08-21T14:52:11Z</time>
      </trkpt>
      <trkpt lat="42.417704" lon="2.144425">
        <ele>2769.08</ele>
        <time>2016-08-21T14:52:15Z</time>
      </trkpt>
      <trkpt lat="42.417660" lon="2.144308">
        <ele>2769.09</ele>
        <time>2016-08-21T14:52:18Z</time>
      </trkpt>
      <trkpt lat="42.417612" lon="2.144194">
        <ele>2769.01</ele>
        <time>2016-08-21T14:52:22Z</time>
      </trkpt>
      <trkpt lat="42.417525" lon="2.144250">
        <ele>2776.02</ele>
        <time>2016-08-21T14:52:33Z</time>
      </trkpt>
      <trkpt lat="42.417434" lon="2.144249">
        <ele>2784.02</ele>
        <time>2016-08-21T14:52:46Z</time>
      </trkpt>
      <trkpt lat="42.417353" lon="2.144162">
        <ele>2788.04</ele>
        <time>2016-08-21T14:52:52Z</time>
      </trkpt>
      <trkpt lat="42.417270" lon="2.144069">
        <ele>2792.01</ele>
        <time>2016-08-21T14:52:57Z</time>
      </trkpt>
      <trkpt lat="42.417221" lon="2.143964">
        <ele>2792.03</ele>
        <time>2016-08-21T14:53:01Z</time>
      </trkpt>
      <trkpt lat="42.417147" lon="2.143860">
        <ele>2793.05</ele>
        <time>2016-08-21T14:53:08Z</time>
      </trkpt>
      <trkpt lat="42.417076" lon="2.143767">
        <ele>2794.02</ele>
        <time>2016-08-21T14:56:39Z</time>
      </trkpt>
      <trkpt lat="42.417003" lon="2.143673">
        <ele>2792.01</ele>
        <time>2016-08-21T14:56:47Z</time>
      </trkpt>
      <trkpt lat="42.416943" lon="2.143572">
        <ele>2793.07</ele>
        <time>2016-08-21T14:56:55Z</time>
      </trkpt>
      <trkpt lat="42.416879" lon="2.143483">
        <ele>2793.08</ele>
        <time>2016-08-21T14:57:03Z</time>
      </trkpt>
      <trkpt lat="42.416809" lon="2.143381">
        <ele>2792.03</ele>
        <time>2016-08-21T14:57:11Z</time>
      </trkpt>
      <trkpt lat="42.416751" lon="2.143276">
        <ele>2795.01</ele>
        <time>2016-08-21T14:57:19Z</time>
      </trkpt>
      <trkpt lat="42.416693" lon="2.143180">
        <ele>2799.02</ele>
        <time>2016-08-21T14:57:29Z</time>
      </trkpt>
      <trkpt lat="42.416643" lon="2.143067">
        <ele>2794.03</ele>
        <time>2016-08-21T14:57:41Z</time>
      </trkpt>
      <trkpt lat="42.416567" lon="2.142975">
        <ele>2794.08</ele>
        <time>2016-08-21T14:57:52Z</time>
      </trkpt>
      <trkpt lat="42.416494" lon="2.142876">
        <ele>2791.06</ele>
        <time>2016-08-21T14:58:03Z</time>
      </trkpt>
      <trkpt lat="42.416434" lon="2.142775">
        <ele>2787.03</ele>
        <time>2016-08-21T14:58:12Z</time>
      </trkpt>
      <trkpt lat="42.416373" lon="2.142672">
        <ele>2788.02</ele>
        <time>2016-08-21T14:58:24Z</time>
      </trkpt>
      <trkpt lat="42.416317" lon="2.142565">
        <ele>2786.03</ele>
        <time>2016-08-21T14:58:34Z</time>
      </trkpt>
      <trkpt lat="42.416240" lon="2.142495">
        <ele>2787.03</ele>
        <time>2016-08-21T14:58:44Z</time>
      </trkpt>
      <trkpt lat="42.416146" lon="2.142446">
        <ele>2783.17</ele>
        <time>2016-08-21T14:58:56Z</time>
      </trkpt>
      <trkpt lat="42.416056" lon="2.142453">
        <ele>2780.08</ele>
        <time>2016-08-21T14:59:08Z</time>
      </trkpt>
      <trkpt lat="42.416019" lon="2.142342">
        <ele>2777.03</ele>
        <time>2016-08-21T14:59:42Z</time>
      </trkpt>
      <trkpt lat="42.416052" lon="2.142225">
        <ele>2777.01</ele>
        <time>2016-08-21T14:59:56Z</time>
      </trkpt>
      <trkpt lat="42.416077" lon="2.142108">
        <ele>2777.01</ele>
        <time>2016-08-21T15:00:03Z</time>
      </trkpt>
      <trkpt lat="42.416115" lon="2.141984">
        <ele>2776.08</ele>
        <time>2016-08-21T15:00:10Z</time>
      </trkpt>
      <trkpt lat="42.416130" lon="2.141855">
        <ele>2774.04</ele>
        <time>2016-08-21T15:00:20Z</time>
      </trkpt>
      <trkpt lat="42.416122" lon="2.141726">
        <ele>2772.05</ele>
        <time>2016-08-21T15:00:32Z</time>
      </trkpt>
      <trkpt lat="42.416107" lon="2.141595">
        <ele>2770.07</ele>
        <time>2016-08-21T15:00:44Z</time>
      </trkpt>
      <trkpt lat="42.416115" lon="2.141462">
        <ele>2768.09</ele>
        <time>2016-08-21T15:01:06Z</time>
      </trkpt>
      <trkpt lat="42.416109" lon="2.141322">
        <ele>2766.09</ele>
        <time>2016-08-21T15:01:19Z</time>
      </trkpt>
      <trkpt lat="42.416100" lon="2.141192">
        <ele>2763.05</ele>
        <time>2016-08-21T15:01:28Z</time>
      </trkpt>
      <trkpt lat="42.416076" lon="2.141063">
        <ele>2761.03</ele>
        <time>2016-08-21T15:01:36Z</time>
      </trkpt>
      <trkpt lat="42.416063" lon="2.140932">
        <ele>2760.03</ele>
        <time>2016-08-21T15:01:45Z</time>
      </trkpt>
      <trkpt lat="42.416086" lon="2.140810">
        <ele>2761.01</ele>
        <time>2016-08-21T15:01:52Z</time>
      </trkpt>
      <trkpt lat="42.416115" lon="2.140681">
        <ele>2763.01</ele>
        <time>2016-08-21T15:02:00Z</time>
      </trkpt>
      <trkpt lat="42.416136" lon="2.140555">
        <ele>2765.01</ele>
        <time>2016-08-21T15:02:09Z</time>
      </trkpt>
      <trkpt lat="42.416177" lon="2.140442">
        <ele>2767.03</ele>
        <time>2016-08-21T15:02:20Z</time>
      </trkpt>
      <trkpt lat="42.416236" lon="2.140334">
        <ele>2771.01</ele>
        <time>2016-08-21T15:02:30Z</time>
      </trkpt>
      <trkpt lat="42.416270" lon="2.140209">
        <ele>2771.04</ele>
        <time>2016-08-21T15:02:37Z</time>
      </trkpt>
      <trkpt lat="42.416258" lon="2.140087">
        <ele>2771.05</ele>
        <time>2016-08-21T15:02:46Z</time>
      </trkpt>
      <trkpt lat="42.416228" lon="2.139956">
        <ele>2769.03</ele>
        <time>2016-08-21T15:02:56Z</time>
      </trkpt>
      <trkpt lat="42.416203" lon="2.139832">
        <ele>2769.03</ele>
        <time>2016-08-21T15:03:05Z</time>
      </trkpt>
      <trkpt lat="42.416181" lon="2.139712">
        <ele>2769.10</ele>
        <time>2016-08-21T15:03:13Z</time>
      </trkpt>
      <trkpt lat="42.416188" lon="2.139573">
        <ele>2767.14</ele>
        <time>2016-08-21T15:03:18Z</time>
      </trkpt>
      <trkpt lat="42.416188" lon="2.139447">
        <ele>2765.01</ele>
        <time>2016-08-21T15:03:22Z</time>
      </trkpt>
      <trkpt lat="42.416148" lon="2.139317">
        <ele>2764.04</ele>
        <time>2016-08-21T15:03:26Z</time>
      </trkpt>
      <trkpt lat="42.416145" lon="2.139177">
        <ele>2771.01</ele>
        <time>2016-08-21T15:03:32Z</time>
      </trkpt>
      <trkpt lat="42.416147" lon="2.139053">
        <ele>2769.01</ele>
        <time>2016-08-21T15:03:40Z</time>
      </trkpt>
      <trkpt lat="42.416166" lon="2.138930">
        <ele>2773.02</ele>
        <time>2016-08-21T15:03:48Z</time>
      </trkpt>
      <trkpt lat="42.416135" lon="2.138808">
        <ele>2773.04</ele>
        <time>2016-08-21T15:03:56Z</time>
      </trkpt>
      <trkpt lat="42.416085" lon="2.138690">
        <ele>2773.02</ele>
        <time>2016-08-21T15:04:01Z</time>
      </trkpt>
      <trkpt lat="42.416064" lon="2.138549">
        <ele>2776.05</ele>
        <time>2016-08-21T15:04:06Z</time>
      </trkpt>
      <trkpt lat="42.416032" lon="2.138433">
        <ele>2778.04</ele>
        <time>2016-08-21T15:04:12Z</time>
      </trkpt>
      <trkpt lat="42.416051" lon="2.138300">
        <ele>2780.08</ele>
        <time>2016-08-21T15:04:21Z</time>
      </trkpt>
      <trkpt lat="42.416004" lon="2.138180">
        <ele>2779.03</ele>
        <time>2016-08-21T15:04:28Z</time>
      </trkpt>
      <trkpt lat="42.415953" lon="2.138078">
        <ele>2783.07</ele>
        <time>2016-08-21T15:04:34Z</time>
      </trkpt>
      <trkpt lat="42.415915" lon="2.137944">
        <ele>2784.07</ele>
        <time>2016-08-21T15:04:39Z</time>
      </trkpt>
      <trkpt lat="42.415901" lon="2.137816">
        <ele>2788.07</ele>
        <time>2016-08-21T15:04:45Z</time>
      </trkpt>
      <trkpt lat="42.415901" lon="2.137684">
        <ele>2792.01</ele>
        <time>2016-08-21T15:04:51Z</time>
      </trkpt>
      <trkpt lat="42.415829" lon="2.137601">
        <ele>2794.02</ele>
        <time>2016-08-21T15:04:55Z</time>
      </trkpt>
      <trkpt lat="42.415792" lon="2.137481">
        <ele>2800.07</ele>
        <time>2016-08-21T15:05:03Z</time>
      </trkpt>
      <trkpt lat="42.415710" lon="2.137400">
        <ele>2801.04</ele>
        <time>2016-08-21T15:05:08Z</time>
      </trkpt>
      <trkpt lat="42.415645" lon="2.137310">
        <ele>2802.03</ele>
        <time>2016-08-21T15:05:12Z</time>
      </trkpt>
      <trkpt lat="42.415589" lon="2.137184">
        <ele>2804.07</ele>
        <time>2016-08-21T15:05:17Z</time>
      </trkpt>
      <trkpt lat="42.415560" lon="2.137051">
        <ele>2804.08</ele>
        <time>2016-08-21T15:05:22Z</time>
      </trkpt>
      <trkpt lat="42.415523" lon="2.136939">
        <ele>2804.05</ele>
        <time>2016-08-21T15:05:26Z</time>
      </trkpt>
      <trkpt lat="42.415495" lon="2.136811">
        <ele>2807.07</ele>
        <time>2016-08-21T15:05:31Z</time>
      </trkpt>
      <trkpt lat="42.415438" lon="2.136696">
        <ele>2811.02</ele>
        <time>2016-08-21T15:05:36Z</time>
      </trkpt>
      <trkpt lat="42.415402" lon="2.136576">
        <ele>2813.03</ele>
        <time>2016-08-21T15:05:41Z</time>
      </trkpt>
      <trkpt lat="42.415369" lon="2.136454">
        <ele>2815.03</ele>
        <time>2016-08-21T15:05:47Z</time>
      </trkpt>
      <trkpt lat="42.415335" lon="2.136323">
        <ele>2816.01</ele>
        <time>2016-08-21T15:05:54Z</time>
      </trkpt>
      <trkpt lat="42.415319" lon="2.136193">
        <ele>2816.02</ele>
        <time>2016-08-21T15:06:02Z</time>
      </trkpt>
      <trkpt lat="42.415301" lon="2.136057">
        <ele>2818.09</ele>
        <time>2016-08-21T15:06:10Z</time>
      </trkpt>
      <trkpt lat="42.415274" lon="2.135929">
        <ele>2820.09</ele>
        <time>2016-08-21T15:06:17Z</time>
      </trkpt>
      <trkpt lat="42.415226" lon="2.135811">
        <ele>2823.02</ele>
        <time>2016-08-21T15:06:24Z</time>
      </trkpt>
      <trkpt lat="42.415202" lon="2.135693">
        <ele>2825.05</ele>
        <time>2016-08-21T15:06:32Z</time>
      </trkpt>
      <trkpt lat="42.415194" lon="2.135557">
        <ele>2825.09</ele>
        <time>2016-08-21T15:06:40Z</time>
      </trkpt>
      <trkpt lat="42.415202" lon="2.135432">
        <ele>2822.06</ele>
        <time>2016-08-21T15:06:48Z</time>
      </trkpt>
      <trkpt lat="42.415180" lon="2.135306">
        <ele>2823.08</ele>
        <time>2016-08-21T15:06:56Z</time>
      </trkpt>
      <trkpt lat="42.415125" lon="2.135203">
        <ele>2825.02</ele>
        <time>2016-08-21T15:07:02Z</time>
      </trkpt>
      <trkpt lat="42.415086" lon="2.135087">
        <ele>2824.04</ele>
        <time>2016-08-21T15:07:10Z</time>
      </trkpt>
      <trkpt lat="42.415055" lon="2.134970">
        <ele>2826.08</ele>
        <time>2016-08-21T15:07:18Z</time>
      </trkpt>
      <trkpt lat="42.415023" lon="2.134852">
        <ele>2824.01</ele>
        <time>2016-08-21T15:07:48Z</time>
      </trkpt>
      <trkpt lat="42.415056" lon="2.134723">
        <ele>2824.02</ele>
        <time>2016-08-21T15:07:53Z</time>
      </trkpt>
      <trkpt lat="42.415065" lon="2.134598">
        <ele>2823.09</ele>
        <time>2016-08-21T15:07:57Z</time>
      </trkpt>
      <trkpt lat="42.415059" lon="2.134469">
        <ele>2824.03</ele>
        <time>2016-08-21T15:08:01Z</time>
      </trkpt>
      <trkpt lat="42.414983" lon="2.134374">
        <ele>2826.06</ele>
        <time>2016-08-21T15:08:06Z</time>
      </trkpt>
      <trkpt lat="42.414907" lon="2.134294">
        <ele>2826.09</ele>
        <time>2016-08-21T15:08:13Z</time>
      </trkpt>
      <trkpt lat="42.414856" lon="2.134179">
        <ele>2829.08</ele>
        <time>2016-08-21T15:08:20Z</time>
      </trkpt>
      <trkpt lat="42.414806" lon="2.134073">
        <ele>2831.04</ele>
        <time>2016-08-21T15:08:27Z</time>
      </trkpt>
      <trkpt lat="42.414766" lon="2.133953">
        <ele>2830.03</ele>
        <time>2016-08-21T15:08:36Z</time>
      </trkpt>
      <trkpt lat="42.414709" lon="2.133847">
        <ele>2831.06</ele>
        <time>2016-08-21T15:08:43Z</time>
      </trkpt>
      <trkpt lat="42.414635" lon="2.133755">
        <ele>2832.10</ele>
        <time>2016-08-21T15:08:50Z</time>
      </trkpt>
      <trkpt lat="42.414585" lon="2.133634">
        <ele>2832.05</ele>
        <time>2016-08-21T15:08:57Z</time>
      </trkpt>
      <trkpt lat="42.414496" lon="2.133572">
        <ele>2830.01</ele>
        <time>2016-08-21T15:09:05Z</time>
      </trkpt>
      <trkpt lat="42.414420" lon="2.133492">
        <ele>2830.02</ele>
        <time>2016-08-21T15:09:19Z</time>
      </trkpt>
      <trkpt lat="42.414324" lon="2.133450">
        <ele>2829.01</ele>
        <time>2016-08-21T15:11:07Z</time>
      </trkpt>
      <trkpt lat="42.414286" lon="2.133322">
        <ele>2827.08</ele>
        <time>2016-08-21T15:11:19Z</time>
      </trkpt>
      <trkpt lat="42.414307" lon="2.133199">
        <ele>2826.09</ele>
        <time>2016-08-21T15:11:26Z</time>
      </trkpt>
      <trkpt lat="42.414334" lon="2.133076">
        <ele>2825.02</ele>
        <time>2016-08-21T15:11:33Z</time>
      </trkpt>
      <trkpt lat="42.414380" lon="2.132953">
        <ele>2823.02</ele>
        <time>2016-08-21T15:11:41Z</time>
      </trkpt>
      <trkpt lat="42.414430" lon="2.132849">
        <ele>2822.07</ele>
        <time>2016-08-21T15:11:50Z</time>
      </trkpt>
      <trkpt lat="42.414472" lon="2.132718">
        <ele>2818.03</ele>
        <time>2016-08-21T15:12:05Z</time>
      </trkpt>
      <trkpt lat="42.414520" lon="2.132604">
        <ele>2810.08</ele>
        <time>2016-08-21T15:12:26Z</time>
      </trkpt>
      <trkpt lat="42.414471" lon="2.132501">
        <ele>2806.03</ele>
        <time>2016-08-21T15:12:38Z</time>
      </trkpt>
      <trkpt lat="42.414440" lon="2.132377">
        <ele>2803.10</ele>
        <time>2016-08-21T15:12:54Z</time>
      </trkpt>
      <trkpt lat="42.414352" lon="2.132325">
        <ele>2802.01</ele>
        <time>2016-08-21T15:13:04Z</time>
      </trkpt>
      <trkpt lat="42.414282" lon="2.132240">
        <ele>2802.01</ele>
        <time>2016-08-21T15:13:17Z</time>
      </trkpt>
      <trkpt lat="42.414223" lon="2.132148">
        <ele>2798.09</ele>
        <time>2016-08-21T15:13:27Z</time>
      </trkpt>
      <trkpt lat="42.414152" lon="2.132046">
        <ele>2797.07</ele>
        <time>2016-08-21T15:13:44Z</time>
      </trkpt>
      <trkpt lat="42.414160" lon="2.131915">
        <ele>2796.03</ele>
        <time>2016-08-21T15:13:52Z</time>
      </trkpt>
      <trkpt lat="42.414192" lon="2.131793">
        <ele>2791.05</ele>
        <time>2016-08-21T15:14:07Z</time>
      </trkpt>
      <trkpt lat="42.414126" lon="2.131702">
        <ele>2787.01</ele>
        <time>2016-08-21T15:14:22Z</time>
      </trkpt>
      <trkpt lat="42.414068" lon="2.131594">
        <ele>2785.04</ele>
        <time>2016-08-21T15:14:37Z</time>
      </trkpt>
      <trkpt lat="42.414006" lon="2.131503">
        <ele>2782.09</ele>
        <time>2016-08-21T15:14:52Z</time>
      </trkpt>
      <trkpt lat="42.413943" lon="2.131414">
        <ele>2779.09</ele>
        <time>2016-08-21T15:15:14Z</time>
      </trkpt>
      <trkpt lat="42.413867" lon="2.131332">
        <ele>2774.06</ele>
        <time>2016-08-21T15:15:36Z</time>
      </trkpt>
      <trkpt lat="42.413830" lon="2.131209">
        <ele>2767.02</ele>
        <time>2016-08-21T15:16:12Z</time>
      </trkpt>
      <trkpt lat="42.413747" lon="2.131142">
        <ele>2763.01</ele>
        <time>2016-08-21T15:16:30Z</time>
      </trkpt>
      <trkpt lat="42.413660" lon="2.131079">
        <ele>2761.02</ele>
        <time>2016-08-21T15:16:46Z</time>
      </trkpt>
      <trkpt lat="42.413569" lon="2.131012">
        <ele>2758.01</ele>
        <time>2016-08-21T15:17:00Z</time>
      </trkpt>
      <trkpt lat="42.413496" lon="2.130937">
        <ele>2755.08</ele>
        <time>2016-08-21T15:17:15Z</time>
      </trkpt>
      <trkpt lat="42.413472" lon="2.130810">
        <ele>2752.10</ele>
        <time>2016-08-21T15:17:32Z</time>
      </trkpt>
      <trkpt lat="42.413436" lon="2.130691">
        <ele>2748.04</ele>
        <time>2016-08-21T15:17:51Z</time>
      </trkpt>
      <trkpt lat="42.413400" lon="2.130574">
        <ele>2743.06</ele>
        <time>2016-08-21T15:18:11Z</time>
      </trkpt>
      <trkpt lat="42.413343" lon="2.130472">
        <ele>2740.04</ele>
        <time>2016-08-21T15:18:29Z</time>
      </trkpt>
      <trkpt lat="42.413255" lon="2.130424">
        <ele>2738.10</ele>
        <time>2016-08-21T15:18:40Z</time>
      </trkpt>
      <trkpt lat="42.413212" lon="2.130301">
        <ele>2736.08</ele>
        <time>2016-08-21T15:18:56Z</time>
      </trkpt>
      <trkpt lat="42.413165" lon="2.130189">
        <ele>2733.08</ele>
        <time>2016-08-21T15:19:09Z</time>
      </trkpt>
      <trkpt lat="42.413110" lon="2.130092">
        <ele>2732.10</ele>
        <time>2016-08-21T15:19:17Z</time>
      </trkpt>
      <trkpt lat="42.413102" lon="2.129956">
        <ele>2731.01</ele>
        <time>2016-08-21T15:19:27Z</time>
      </trkpt>
      <trkpt lat="42.413121" lon="2.129831">
        <ele>2730.01</ele>
        <time>2016-08-21T15:19:34Z</time>
      </trkpt>
      <trkpt lat="42.413066" lon="2.129725">
        <ele>2728.00</ele>
        <time>2016-08-21T15:19:41Z</time>
      </trkpt>
      <trkpt lat="42.412988" lon="2.129663">
        <ele>2728.05</ele>
        <time>2016-08-21T15:19:46Z</time>
      </trkpt>
      <trkpt lat="42.412945" lon="2.129544">
        <ele>2727.02</ele>
        <time>2016-08-21T15:19:55Z</time>
      </trkpt>
      <trkpt lat="42.412872" lon="2.129446">
        <ele>2726.07</ele>
        <time>2016-08-21T15:20:03Z</time>
      </trkpt>
      <trkpt lat="42.412840" lon="2.129319">
        <ele>2726.07</ele>
        <time>2016-08-21T15:20:10Z</time>
      </trkpt>
      <trkpt lat="42.412758" lon="2.129239">
        <ele>2727.08</ele>
        <time>2016-08-21T15:20:17Z</time>
      </trkpt>
      <trkpt lat="42.412682" lon="2.129164">
        <ele>2724.05</ele>
        <time>2016-08-21T15:20:24Z</time>
      </trkpt>
      <trkpt lat="42.412593" lon="2.129120">
        <ele>2723.06</ele>
        <time>2016-08-21T15:20:31Z</time>
      </trkpt>
      <trkpt lat="42.412512" lon="2.129036">
        <ele>2724.08</ele>
        <time>2016-08-21T15:20:39Z</time>
      </trkpt>
      <trkpt lat="42.412424" lon="2.128988">
        <ele>2721.06</ele>
        <time>2016-08-21T15:20:46Z</time>
      </trkpt>
      <trkpt lat="42.412336" lon="2.128958">
        <ele>2719.01</ele>
        <time>2016-08-21T15:20:53Z</time>
      </trkpt>
      <trkpt lat="42.412250" lon="2.128893">
        <ele>2719.02</ele>
        <time>2016-08-21T15:21:01Z</time>
      </trkpt>
      <trkpt lat="42.412167" lon="2.128809">
        <ele>2719.01</ele>
        <time>2016-08-21T15:21:08Z</time>
      </trkpt>
      <trkpt lat="42.412074" lon="2.128756">
        <ele>2718.08</ele>
        <time>2016-08-21T15:21:15Z</time>
      </trkpt>
      <trkpt lat="42.411990" lon="2.128683">
        <ele>2717.07</ele>
        <time>2016-08-21T15:21:21Z</time>
      </trkpt>
      <trkpt lat="42.411900" lon="2.128611">
        <ele>2716.05</ele>
        <time>2016-08-21T15:21:30Z</time>
      </trkpt>
      <trkpt lat="42.411825" lon="2.128518">
        <ele>2717.03</ele>
        <time>2016-08-21T15:21:38Z</time>
      </trkpt>
      <trkpt lat="42.411752" lon="2.128422">
        <ele>2719.04</ele>
        <time>2016-08-21T15:21:46Z</time>
      </trkpt>
      <trkpt lat="42.411661" lon="2.128388">
        <ele>2718.06</ele>
        <time>2016-08-21T15:21:56Z</time>
      </trkpt>
      <trkpt lat="42.411568" lon="2.128354">
        <ele>2718.09</ele>
        <time>2016-08-21T15:22:04Z</time>
      </trkpt>
      <trkpt lat="42.411472" lon="2.128306">
        <ele>2718.01</ele>
        <time>2016-08-21T15:22:11Z</time>
      </trkpt>
      <trkpt lat="42.411373" lon="2.128290">
        <ele>2719.01</ele>
        <time>2016-08-21T15:22:19Z</time>
      </trkpt>
      <trkpt lat="42.411278" lon="2.128335">
        <ele>2719.01</ele>
        <time>2016-08-21T15:22:32Z</time>
      </trkpt>
      <trkpt lat="42.411191" lon="2.128372">
        <ele>2718.01</ele>
        <time>2016-08-21T15:22:38Z</time>
      </trkpt>
      <trkpt lat="42.411105" lon="2.128426">
        <ele>2717.04</ele>
        <time>2016-08-21T15:22:45Z</time>
      </trkpt>
      <trkpt lat="42.411013" lon="2.128403">
        <ele>2717.01</ele>
        <time>2016-08-21T15:22:53Z</time>
      </trkpt>
      <trkpt lat="42.410932" lon="2.128349">
        <ele>2716.01</ele>
        <time>2016-08-21T15:23:00Z</time>
      </trkpt>
      <trkpt lat="42.410851" lon="2.128275">
        <ele>2714.01</ele>
        <time>2016-08-21T15:23:10Z</time>
      </trkpt>
      <trkpt lat="42.410808" lon="2.128152">
        <ele>2710.06</ele>
        <time>2016-08-21T15:23:39Z</time>
      </trkpt>
      <trkpt lat="42.410764" lon="2.128037">
        <ele>2709.09</ele>
        <time>2016-08-21T15:23:48Z</time>
      </trkpt>
      <trkpt lat="42.410689" lon="2.127948">
        <ele>2706.08</ele>
        <time>2016-08-21T15:24:04Z</time>
      </trkpt>
      <trkpt lat="42.410645" lon="2.127834">
        <ele>2704.06</ele>
        <time>2016-08-21T15:24:14Z</time>
      </trkpt>
      <trkpt lat="42.410570" lon="2.127763">
        <ele>2700.02</ele>
        <time>2016-08-21T15:24:30Z</time>
      </trkpt>
      <trkpt lat="42.410560" lon="2.127641">
        <ele>2697.08</ele>
        <time>2016-08-21T15:24:40Z</time>
      </trkpt>
      <trkpt lat="42.410534" lon="2.127519">
        <ele>2695.01</ele>
        <time>2016-08-21T15:25:02Z</time>
      </trkpt>
      <trkpt lat="42.410498" lon="2.127385">
        <ele>2693.02</ele>
        <time>2016-08-21T15:25:15Z</time>
      </trkpt>
      <trkpt lat="42.410473" lon="2.127261">
        <ele>2691.09</ele>
        <time>2016-08-21T15:25:25Z</time>
      </trkpt>
      <trkpt lat="42.410394" lon="2.127195">
        <ele>2689.08</ele>
        <time>2016-08-21T15:25:43Z</time>
      </trkpt>
      <trkpt lat="42.410342" lon="2.127080">
        <ele>2686.09</ele>
        <time>2016-08-21T15:25:52Z</time>
      </trkpt>
      <trkpt lat="42.410340" lon="2.126956">
        <ele>2685.09</ele>
        <time>2016-08-21T15:26:02Z</time>
      </trkpt>
      <trkpt lat="42.410264" lon="2.126886">
        <ele>2680.05</ele>
        <time>2016-08-21T15:26:16Z</time>
      </trkpt>
      <trkpt lat="42.410212" lon="2.126770">
        <ele>2678.04</ele>
        <time>2016-08-21T15:26:28Z</time>
      </trkpt>
      <trkpt lat="42.410190" lon="2.126640">
        <ele>2676.04</ele>
        <time>2016-08-21T15:26:41Z</time>
      </trkpt>
      <trkpt lat="42.410137" lon="2.126520">
        <ele>2673.03</ele>
        <time>2016-08-21T15:26:57Z</time>
      </trkpt>
      <trkpt lat="42.410108" lon="2.126395">
        <ele>2670.03</ele>
        <time>2016-08-21T15:27:13Z</time>
      </trkpt>
      <trkpt lat="42.410065" lon="2.126280">
        <ele>2667.05</ele>
        <time>2016-08-21T15:27:27Z</time>
      </trkpt>
      <trkpt lat="42.410005" lon="2.126164">
        <ele>2665.01</ele>
        <time>2016-08-21T15:27:39Z</time>
      </trkpt>
      <trkpt lat="42.409954" lon="2.126046">
        <ele>2661.01</ele>
        <time>2016-08-21T15:28:02Z</time>
      </trkpt>
      <trkpt lat="42.409933" lon="2.125917">
        <ele>2658.03</ele>
        <time>2016-08-21T15:28:16Z</time>
      </trkpt>
      <trkpt lat="42.409896" lon="2.125797">
        <ele>2654.03</ele>
        <time>2016-08-21T15:28:31Z</time>
      </trkpt>
      <trkpt lat="42.409813" lon="2.125733">
        <ele>2651.01</ele>
        <time>2016-08-21T15:28:53Z</time>
      </trkpt>
      <trkpt lat="42.409744" lon="2.125642">
        <ele>2648.05</ele>
        <time>2016-08-21T15:29:13Z</time>
      </trkpt>
      <trkpt lat="42.409647" lon="2.125584">
        <ele>2644.05</ele>
        <time>2016-08-21T15:29:28Z</time>
      </trkpt>
      <trkpt lat="42.409558" lon="2.125492">
        <ele>2642.04</ele>
        <time>2016-08-21T15:29:38Z</time>
      </trkpt>
      <trkpt lat="42.409473" lon="2.125427">
        <ele>2637.04</ele>
        <time>2016-08-21T15:30:07Z</time>
      </trkpt>
      <trkpt lat="42.409377" lon="2.125409">
        <ele>2635.07</ele>
        <time>2016-08-21T15:30:23Z</time>
      </trkpt>
      <trkpt lat="42.409321" lon="2.125513">
        <ele>2632.05</ele>
        <time>2016-08-21T15:30:33Z</time>
      </trkpt>
      <trkpt lat="42.409243" lon="2.125437">
        <ele>2630.04</ele>
        <time>2016-08-21T15:30:47Z</time>
      </trkpt>
      <trkpt lat="42.409193" lon="2.125315">
        <ele>2626.01</ele>
        <time>2016-08-21T15:31:04Z</time>
      </trkpt>
      <trkpt lat="42.409126" lon="2.125216">
        <ele>2622.02</ele>
        <time>2016-08-21T15:31:23Z</time>
      </trkpt>
      <trkpt lat="42.409045" lon="2.125145">
        <ele>2618.01</ele>
        <time>2016-08-21T15:31:41Z</time>
      </trkpt>
      <trkpt lat="42.408965" lon="2.125090">
        <ele>2616.08</ele>
        <time>2016-08-21T15:31:59Z</time>
      </trkpt>
      <trkpt lat="42.408876" lon="2.125023">
        <ele>2614.09</ele>
        <time>2016-08-21T15:32:14Z</time>
      </trkpt>
      <trkpt lat="42.408776" lon="2.125001">
        <ele>2613.08</ele>
        <time>2016-08-21T15:32:22Z</time>
      </trkpt>
      <trkpt lat="42.408684" lon="2.125011">
        <ele>2613.04</ele>
        <time>2016-08-21T15:32:29Z</time>
      </trkpt>
      <trkpt lat="42.408584" lon="2.124977">
        <ele>2617.18</ele>
        <time>2016-08-21T15:33:50Z</time>
      </trkpt>
      <trkpt lat="42.408485" lon="2.124947">
        <ele>2615.07</ele>
        <time>2016-08-21T15:35:14Z</time>
      </trkpt>
      <trkpt lat="42.408461" lon="2.124864">
        <ele>2618.07</ele>
        <time>2016-05-28T11:09:08Z</time>
      </trkpt>
      <trkpt lat="42.408392" lon="2.124982">
        <ele>2596.04</ele>
        <time>2016-05-28T11:14:02Z</time>
      </trkpt>
      <trkpt lat="42.408297" lon="2.125069">
        <ele>2593.02</ele>
        <time>2016-05-28T11:14:08Z</time>
      </trkpt>
      <trkpt lat="42.408207" lon="2.125092">
        <ele>2592.06</ele>
        <time>2016-05-28T11:14:11Z</time>
      </trkpt>
      <trkpt lat="42.408116" lon="2.125074">
        <ele>2591.07</ele>
        <time>2016-05-28T11:14:14Z</time>
      </trkpt>
      <trkpt lat="42.408009" lon="2.125071">
        <ele>2589.08</ele>
        <time>2016-05-28T11:14:18Z</time>
      </trkpt>
      <trkpt lat="42.407894" lon="2.125089">
        <ele>2588.08</ele>
        <time>2016-05-28T11:14:22Z</time>
      </trkpt>
      <trkpt lat="42.407789" lon="2.125118">
        <ele>2586.05</ele>
        <time>2016-05-28T11:14:26Z</time>
      </trkpt>
      <trkpt lat="42.407684" lon="2.125180">
        <ele>2584.05</ele>
        <time>2016-05-28T11:14:30Z</time>
      </trkpt>
      <trkpt lat="42.407579" lon="2.125225">
        <ele>2581.01</ele>
        <time>2016-05-28T11:14:35Z</time>
      </trkpt>
      <trkpt lat="42.407466" lon="2.125247">
        <ele>2577.01</ele>
        <time>2016-05-28T11:14:40Z</time>
      </trkpt>
      <trkpt lat="42.407355" lon="2.125263">
        <ele>2575.07</ele>
        <time>2016-05-28T11:14:44Z</time>
      </trkpt>
      <trkpt lat="42.407259" lon="2.125308">
        <ele>2574.10</ele>
        <time>2016-05-28T11:14:48Z</time>
      </trkpt>
      <trkpt lat="42.407164" lon="2.125345">
        <ele>2572.08</ele>
        <time>2016-05-28T11:14:52Z</time>
      </trkpt>
      <trkpt lat="42.407066" lon="2.125359">
        <ele>2571.04</ele>
        <time>2016-05-28T11:14:56Z</time>
      </trkpt>
      <trkpt lat="42.406975" lon="2.125378">
        <ele>2570.04</ele>
        <time>2016-05-28T11:15:00Z</time>
      </trkpt>
      <trkpt lat="42.406869" lon="2.125384">
        <ele>2570.06</ele>
        <time>2016-05-28T11:15:04Z</time>
      </trkpt>
      <trkpt lat="42.406768" lon="2.125421">
        <ele>2570.05</ele>
        <time>2016-05-28T11:15:08Z</time>
      </trkpt>
      <trkpt lat="42.406679" lon="2.125469">
        <ele>2567.09</ele>
        <time>2016-05-28T11:15:14Z</time>
      </trkpt>
      <trkpt lat="42.406623" lon="2.125578">
        <ele>2566.05</ele>
        <time>2016-05-28T11:15:18Z</time>
      </trkpt>
      <trkpt lat="42.406553" lon="2.125690">
        <ele>2565.01</ele>
        <time>2016-05-28T11:15:22Z</time>
      </trkpt>
      <trkpt lat="42.406511" lon="2.125802">
        <ele>2564.02</ele>
        <time>2016-05-28T11:15:26Z</time>
      </trkpt>
      <trkpt lat="42.406472" lon="2.125939">
        <ele>2563.01</ele>
        <time>2016-05-28T11:15:30Z</time>
      </trkpt>
      <trkpt lat="42.406391" lon="2.126028">
        <ele>2563.09</ele>
        <time>2016-05-28T11:15:34Z</time>
      </trkpt>
      <trkpt lat="42.406292" lon="2.126101">
        <ele>2561.04</ele>
        <time>2016-05-28T11:15:39Z</time>
      </trkpt>
      <trkpt lat="42.406201" lon="2.126121">
        <ele>2560.07</ele>
        <time>2016-05-28T11:15:43Z</time>
      </trkpt>
      <trkpt lat="42.406089" lon="2.126132">
        <ele>2557.03</ele>
        <time>2016-05-28T11:15:54Z</time>
      </trkpt>
      <trkpt lat="42.405997" lon="2.126178">
        <ele>2555.06</ele>
        <time>2016-05-28T11:16:00Z</time>
      </trkpt>
      <trkpt lat="42.405888" lon="2.126262">
        <ele>2552.07</ele>
        <time>2016-05-28T11:16:04Z</time>
      </trkpt>
      <trkpt lat="42.405785" lon="2.126343">
        <ele>2548.04</ele>
        <time>2016-05-28T11:16:09Z</time>
      </trkpt>
      <trkpt lat="42.405711" lon="2.126445">
        <ele>2546.04</ele>
        <time>2016-05-28T11:16:11Z</time>
      </trkpt>
      <trkpt lat="42.405641" lon="2.126525">
        <ele>2545.05</ele>
        <time>2016-05-28T11:16:14Z</time>
      </trkpt>
      <trkpt lat="42.405548" lon="2.126597">
        <ele>2545.00</ele>
        <time>2016-05-28T11:16:19Z</time>
      </trkpt>
      <trkpt lat="42.405454" lon="2.126628">
        <ele>2544.01</ele>
        <time>2016-05-28T11:16:23Z</time>
      </trkpt>
      <trkpt lat="42.405350" lon="2.126696">
        <ele>2543.01</ele>
        <time>2016-05-28T11:16:27Z</time>
      </trkpt>
      <trkpt lat="42.405259" lon="2.126754">
        <ele>2541.10</ele>
        <time>2016-05-28T11:16:30Z</time>
      </trkpt>
      <trkpt lat="42.405177" lon="2.126805">
        <ele>2540.06</ele>
        <time>2016-05-28T11:16:33Z</time>
      </trkpt>
      <trkpt lat="42.405092" lon="2.126891">
        <ele>2539.05</ele>
        <time>2016-05-28T11:16:37Z</time>
      </trkpt>
      <trkpt lat="42.404989" lon="2.126924">
        <ele>2539.05</ele>
        <time>2016-05-28T11:16:41Z</time>
      </trkpt>
      <trkpt lat="42.404890" lon="2.126956">
        <ele>2537.08</ele>
        <time>2016-05-28T11:16:48Z</time>
      </trkpt>
      <trkpt lat="42.404791" lon="2.126990">
        <ele>2535.01</ele>
        <time>2016-05-28T11:16:54Z</time>
      </trkpt>
      <trkpt lat="42.404690" lon="2.127063">
        <ele>2534.08</ele>
        <time>2016-05-28T11:16:58Z</time>
      </trkpt>
      <trkpt lat="42.404595" lon="2.127135">
        <ele>2533.10</ele>
        <time>2016-05-28T11:17:02Z</time>
      </trkpt>
      <trkpt lat="42.404505" lon="2.127229">
        <ele>2531.05</ele>
        <time>2016-05-28T11:17:07Z</time>
      </trkpt>
      <trkpt lat="42.404444" lon="2.127337">
        <ele>2530.09</ele>
        <time>2016-05-28T11:17:09Z</time>
      </trkpt>
      <trkpt lat="42.404390" lon="2.127447">
        <ele>2529.02</ele>
        <time>2016-05-28T11:17:14Z</time>
      </trkpt>
      <trkpt lat="42.404307" lon="2.127518">
        <ele>2528.01</ele>
        <time>2016-05-28T11:17:18Z</time>
      </trkpt>
      <trkpt lat="42.404184" lon="2.127576">
        <ele>2529.09</ele>
        <time>2016-05-28T11:17:22Z</time>
      </trkpt>
      <trkpt lat="42.404110" lon="2.127650">
        <ele>2529.10</ele>
        <time>2016-05-28T11:17:27Z</time>
      </trkpt>
      <trkpt lat="42.404075" lon="2.127775">
        <ele>2528.05</ele>
        <time>2016-05-28T11:17:31Z</time>
      </trkpt>
      <trkpt lat="42.404028" lon="2.127884">
        <ele>2528.07</ele>
        <time>2016-05-28T11:17:35Z</time>
      </trkpt>
      <trkpt lat="42.403969" lon="2.127980">
        <ele>2526.06</ele>
        <time>2016-05-28T11:17:39Z</time>
      </trkpt>
      <trkpt lat="42.403891" lon="2.128071">
        <ele>2526.01</ele>
        <time>2016-05-28T11:17:42Z</time>
      </trkpt>
      <trkpt lat="42.403804" lon="2.128172">
        <ele>2525.05</ele>
        <time>2016-05-28T11:17:47Z</time>
      </trkpt>
      <trkpt lat="42.403775" lon="2.128347">
        <ele>2526.05</ele>
        <time>2016-05-28T11:17:51Z</time>
      </trkpt>
      <trkpt lat="42.403825" lon="2.128468">
        <ele>2523.02</ele>
        <time>2016-05-28T11:17:56Z</time>
      </trkpt>
      <trkpt lat="42.403916" lon="2.128521">
        <ele>2521.06</ele>
        <time>2016-05-28T11:17:59Z</time>
      </trkpt>
      <trkpt lat="42.404005" lon="2.128551">
        <ele>2518.01</ele>
        <time>2016-05-28T11:18:02Z</time>
      </trkpt>
      <trkpt lat="42.404110" lon="2.128551">
        <ele>2517.01</ele>
        <time>2016-05-28T11:18:05Z</time>
      </trkpt>
      <trkpt lat="42.404199" lon="2.128491">
        <ele>2516.02</ele>
        <time>2016-05-28T11:18:09Z</time>
      </trkpt>
      <trkpt lat="42.404305" lon="2.128414">
        <ele>2514.03</ele>
        <time>2016-05-28T11:18:13Z</time>
      </trkpt>
      <trkpt lat="42.404389" lon="2.128361">
        <ele>2513.07</ele>
        <time>2016-05-28T11:18:16Z</time>
      </trkpt>
      <trkpt lat="42.404497" lon="2.128267">
        <ele>2512.02</ele>
        <time>2016-05-28T11:18:21Z</time>
      </trkpt>
      <trkpt lat="42.404598" lon="2.128221">
        <ele>2510.07</ele>
        <time>2016-05-28T11:18:27Z</time>
      </trkpt>
      <trkpt lat="42.404703" lon="2.128165">
        <ele>2510.07</ele>
        <time>2016-05-28T11:18:31Z</time>
      </trkpt>
      <trkpt lat="42.404790" lon="2.128075">
        <ele>2508.07</ele>
        <time>2016-05-28T11:18:35Z</time>
      </trkpt>
      <trkpt lat="42.404877" lon="2.128020">
        <ele>2507.08</ele>
        <time>2016-05-28T11:18:40Z</time>
      </trkpt>
      <trkpt lat="42.404982" lon="2.127962">
        <ele>2505.06</ele>
        <time>2016-05-28T11:18:47Z</time>
      </trkpt>
      <trkpt lat="42.405075" lon="2.127931">
        <ele>2504.04</ele>
        <time>2016-05-28T11:18:51Z</time>
      </trkpt>
      <trkpt lat="42.405188" lon="2.127929">
        <ele>2503.02</ele>
        <time>2016-05-28T11:18:55Z</time>
      </trkpt>
      <trkpt lat="42.405295" lon="2.127952">
        <ele>2502.01</ele>
        <time>2016-05-28T11:18:58Z</time>
      </trkpt>
      <trkpt lat="42.405388" lon="2.127999">
        <ele>2501.02</ele>
        <time>2016-05-28T11:19:02Z</time>
      </trkpt>
      <trkpt lat="42.405480" lon="2.127932">
        <ele>2499.08</ele>
        <time>2016-05-28T11:19:07Z</time>
      </trkpt>
      <trkpt lat="42.405555" lon="2.127852">
        <ele>2498.07</ele>
        <time>2016-05-28T11:19:11Z</time>
      </trkpt>
      <trkpt lat="42.405651" lon="2.127824">
        <ele>2497.08</ele>
        <time>2016-05-28T11:19:15Z</time>
      </trkpt>
      <trkpt lat="42.405740" lon="2.127883">
        <ele>2492.03</ele>
        <time>2016-05-28T11:19:25Z</time>
      </trkpt>
      <trkpt lat="42.405857" lon="2.127916">
        <ele>2491.03</ele>
        <time>2016-05-28T11:19:32Z</time>
      </trkpt>
      <trkpt lat="42.405953" lon="2.127947">
        <ele>2490.01</ele>
        <time>2016-05-28T11:19:34Z</time>
      </trkpt>
      <trkpt lat="42.406039" lon="2.127982">
        <ele>2488.04</ele>
        <time>2016-05-28T11:19:37Z</time>
      </trkpt>
      <trkpt lat="42.406157" lon="2.127942">
        <ele>2486.08</ele>
        <time>2016-05-28T11:19:45Z</time>
      </trkpt>
      <trkpt lat="42.406247" lon="2.127906">
        <ele>2484.09</ele>
        <time>2016-05-28T11:19:50Z</time>
      </trkpt>
      <trkpt lat="42.406342" lon="2.127910">
        <ele>2483.02</ele>
        <time>2016-05-28T11:19:55Z</time>
      </trkpt>
      <trkpt lat="42.406457" lon="2.127934">
        <ele>2482.01</ele>
        <time>2016-05-28T11:20:02Z</time>
      </trkpt>
      <trkpt lat="42.406552" lon="2.127958">
        <ele>2481.09</ele>
        <time>2016-05-28T11:20:05Z</time>
      </trkpt>
      <trkpt lat="42.406643" lon="2.127999">
        <ele>2480.09</ele>
        <time>2016-05-28T11:20:09Z</time>
      </trkpt>
      <trkpt lat="42.406558" lon="2.128055">
        <ele>2477.07</ele>
        <time>2016-05-28T11:20:15Z</time>
      </trkpt>
      <trkpt lat="42.406459" lon="2.128119">
        <ele>2475.09</ele>
        <time>2016-05-28T11:20:20Z</time>
      </trkpt>
      <trkpt lat="42.406371" lon="2.128187">
        <ele>2473.05</ele>
        <time>2016-05-28T11:20:24Z</time>
      </trkpt>
      <trkpt lat="42.406299" lon="2.128261">
        <ele>2471.09</ele>
        <time>2016-05-28T11:20:28Z</time>
      </trkpt>
      <trkpt lat="42.406234" lon="2.128362">
        <ele>2470.02</ele>
        <time>2016-05-28T11:20:32Z</time>
      </trkpt>
      <trkpt lat="42.406151" lon="2.128469">
        <ele>2469.07</ele>
        <time>2016-05-28T11:20:37Z</time>
      </trkpt>
      <trkpt lat="42.406069" lon="2.128543">
        <ele>2466.02</ele>
        <time>2016-05-28T11:20:43Z</time>
      </trkpt>
      <trkpt lat="42.405993" lon="2.128640">
        <ele>2466.06</ele>
        <time>2016-05-28T11:20:48Z</time>
      </trkpt>
      <trkpt lat="42.405940" lon="2.128763">
        <ele>2464.01</ele>
        <time>2016-05-28T11:20:52Z</time>
      </trkpt>
      <trkpt lat="42.405878" lon="2.128872">
        <ele>2462.01</ele>
        <time>2016-05-28T11:20:57Z</time>
      </trkpt>
      <trkpt lat="42.405835" lon="2.128991">
        <ele>2460.03</ele>
        <time>2016-05-28T11:21:01Z</time>
      </trkpt>
      <trkpt lat="42.405792" lon="2.129099">
        <ele>2458.05</ele>
        <time>2016-05-28T11:21:05Z</time>
      </trkpt>
      <trkpt lat="42.405770" lon="2.129242">
        <ele>2455.05</ele>
        <time>2016-05-28T11:21:09Z</time>
      </trkpt>
      <trkpt lat="42.405854" lon="2.129314">
        <ele>2453.09</ele>
        <time>2016-05-28T11:21:13Z</time>
      </trkpt>
      <trkpt lat="42.405947" lon="2.129318">
        <ele>2453.02</ele>
        <time>2016-05-28T11:21:16Z</time>
      </trkpt>
      <trkpt lat="42.406049" lon="2.129326">
        <ele>2451.09</ele>
        <time>2016-05-28T11:21:19Z</time>
      </trkpt>
      <trkpt lat="42.406151" lon="2.129304">
        <ele>2450.05</ele>
        <time>2016-05-28T11:21:23Z</time>
      </trkpt>
      <trkpt lat="42.406260" lon="2.129297">
        <ele>2448.04</ele>
        <time>2016-05-28T11:21:28Z</time>
      </trkpt>
      <trkpt lat="42.406366" lon="2.129297">
        <ele>2444.05</ele>
        <time>2016-05-28T11:21:35Z</time>
      </trkpt>
      <trkpt lat="42.406487" lon="2.129290">
        <ele>2442.00</ele>
        <time>2016-05-28T11:21:39Z</time>
      </trkpt>
      <trkpt lat="42.406419" lon="2.129403">
        <ele>2438.01</ele>
        <time>2016-05-28T11:21:55Z</time>
      </trkpt>
      <trkpt lat="42.406359" lon="2.129511">
        <ele>2436.01</ele>
        <time>2016-05-28T11:21:59Z</time>
      </trkpt>
      <trkpt lat="42.406354" lon="2.129664">
        <ele>2433.05</ele>
        <time>2016-05-28T11:22:03Z</time>
      </trkpt>
      <trkpt lat="42.406337" lon="2.129821">
        <ele>2430.10</ele>
        <time>2016-05-28T11:22:07Z</time>
      </trkpt>
      <trkpt lat="42.406300" lon="2.129990">
        <ele>2425.04</ele>
        <time>2016-05-28T11:22:13Z</time>
      </trkpt>
      <trkpt lat="42.406233" lon="2.130109">
        <ele>2424.05</ele>
        <time>2016-05-28T11:22:18Z</time>
      </trkpt>
      <trkpt lat="42.406148" lon="2.130069">
        <ele>2421.02</ele>
        <time>2016-05-28T11:22:26Z</time>
      </trkpt>
      <trkpt lat="42.406210" lon="2.130192">
        <ele>2419.01</ele>
        <time>2016-05-28T11:22:31Z</time>
      </trkpt>
      <trkpt lat="42.406300" lon="2.130190">
        <ele>2418.03</ele>
        <time>2016-05-28T11:22:34Z</time>
      </trkpt>
      <trkpt lat="42.406405" lon="2.130157">
        <ele>2417.08</ele>
        <time>2016-05-28T11:22:37Z</time>
      </trkpt>
      <trkpt lat="42.406499" lon="2.130157">
        <ele>2416.07</ele>
        <time>2016-05-28T11:22:41Z</time>
      </trkpt>
      <trkpt lat="42.406573" lon="2.130239">
        <ele>2413.04</ele>
        <time>2016-05-28T11:22:48Z</time>
      </trkpt>
      <trkpt lat="42.406475" lon="2.130273">
        <ele>2411.01</ele>
        <time>2016-05-28T11:22:55Z</time>
      </trkpt>
      <trkpt lat="42.406427" lon="2.130379">
        <ele>2404.01</ele>
        <time>2016-05-28T11:23:34Z</time>
      </trkpt>
      <trkpt lat="42.406484" lon="2.130485">
        <ele>2404.07</ele>
        <time>2016-05-28T11:23:39Z</time>
      </trkpt>
      <trkpt lat="42.406557" lon="2.130601">
        <ele>2401.09</ele>
        <time>2016-05-28T11:23:44Z</time>
      </trkpt>
      <trkpt lat="42.406615" lon="2.130704">
        <ele>2399.03</ele>
        <time>2016-05-28T11:23:49Z</time>
      </trkpt>
      <trkpt lat="42.406703" lon="2.130774">
        <ele>2396.06</ele>
        <time>2016-05-28T11:23:55Z</time>
      </trkpt>
      <trkpt lat="42.406800" lon="2.130868">
        <ele>2397.02</ele>
        <time>2016-05-28T11:24:01Z</time>
      </trkpt>
      <trkpt lat="42.406904" lon="2.130942">
        <ele>2396.06</ele>
        <time>2016-05-28T11:24:06Z</time>
      </trkpt>
      <trkpt lat="42.406943" lon="2.131067">
        <ele>2394.03</ele>
        <time>2016-05-28T11:24:12Z</time>
      </trkpt>
      <trkpt lat="42.406992" lon="2.131236">
        <ele>2391.10</ele>
        <time>2016-05-28T11:24:16Z</time>
      </trkpt>
      <trkpt lat="42.406955" lon="2.131385">
        <ele>2388.01</ele>
        <time>2016-05-28T11:24:21Z</time>
      </trkpt>
      <trkpt lat="42.406886" lon="2.131466">
        <ele>2386.07</ele>
        <time>2016-05-28T11:24:24Z</time>
      </trkpt>
      <trkpt lat="42.406802" lon="2.131543">
        <ele>2385.01</ele>
        <time>2016-05-28T11:24:28Z</time>
      </trkpt>
      <trkpt lat="42.406789" lon="2.131677">
        <ele>2383.01</ele>
        <time>2016-05-28T11:24:37Z</time>
      </trkpt>
      <trkpt lat="42.406720" lon="2.131760">
        <ele>2381.03</ele>
        <time>2016-05-28T11:24:43Z</time>
      </trkpt>
      <trkpt lat="42.406659" lon="2.131850">
        <ele>2382.02</ele>
        <time>2016-05-28T11:24:48Z</time>
      </trkpt>
      <trkpt lat="42.406584" lon="2.131960">
        <ele>2383.05</ele>
        <time>2016-05-28T11:24:52Z</time>
      </trkpt>
      <trkpt lat="42.406546" lon="2.132088">
        <ele>2383.08</ele>
        <time>2016-05-28T11:24:55Z</time>
      </trkpt>
      <trkpt lat="42.406468" lon="2.132247">
        <ele>2384.07</ele>
        <time>2016-05-28T11:24:59Z</time>
      </trkpt>
      <trkpt lat="42.406380" lon="2.132350">
        <ele>2384.07</ele>
        <time>2016-05-28T11:25:04Z</time>
      </trkpt>
      <trkpt lat="42.406317" lon="2.132479">
        <ele>2385.07</ele>
        <time>2016-05-28T11:25:09Z</time>
      </trkpt>
      <trkpt lat="42.406248" lon="2.132601">
        <ele>2385.06</ele>
        <time>2016-05-28T11:25:19Z</time>
      </trkpt>
      <trkpt lat="42.406216" lon="2.132718">
        <ele>2386.04</ele>
        <time>2016-05-28T11:25:34Z</time>
      </trkpt>
      <trkpt lat="42.406187" lon="2.132841">
        <ele>2386.02</ele>
        <time>2016-05-28T11:25:40Z</time>
      </trkpt>
      <trkpt lat="42.406181" lon="2.132989">
        <ele>2387.02</ele>
        <time>2016-05-28T11:26:10Z</time>
      </trkpt>
      <trkpt lat="42.406150" lon="2.133104">
        <ele>2388.01</ele>
        <time>2016-05-28T11:26:14Z</time>
      </trkpt>
      <trkpt lat="42.406116" lon="2.133251">
        <ele>2388.01</ele>
        <time>2016-05-28T11:26:18Z</time>
      </trkpt>
      <trkpt lat="42.406095" lon="2.133373">
        <ele>2388.05</ele>
        <time>2016-05-28T11:26:21Z</time>
      </trkpt>
      <trkpt lat="42.406065" lon="2.133499">
        <ele>2389.02</ele>
        <time>2016-05-28T11:26:27Z</time>
      </trkpt>
      <trkpt lat="42.406038" lon="2.133638">
        <ele>2389.07</ele>
        <time>2016-05-28T11:26:31Z</time>
      </trkpt>
      <trkpt lat="42.406010" lon="2.133810">
        <ele>2390.03</ele>
        <time>2016-05-28T11:26:36Z</time>
      </trkpt>
      <trkpt lat="42.405965" lon="2.133958">
        <ele>2390.02</ele>
        <time>2016-05-28T11:26:41Z</time>
      </trkpt>
      <trkpt lat="42.405920" lon="2.134111">
        <ele>2390.06</ele>
        <time>2016-05-28T11:26:46Z</time>
      </trkpt>
      <trkpt lat="42.405854" lon="2.134255">
        <ele>2390.06</ele>
        <time>2016-05-28T11:26:53Z</time>
      </trkpt>
      <trkpt lat="42.405833" lon="2.134375">
        <ele>2389.03</ele>
        <time>2016-05-28T11:28:01Z</time>
      </trkpt>
      <trkpt lat="42.405907" lon="2.134455">
        <ele>2386.05</ele>
        <time>2016-05-28T11:28:11Z</time>
      </trkpt>
      <trkpt lat="42.405999" lon="2.134535">
        <ele>2384.01</ele>
        <time>2016-05-28T11:28:22Z</time>
      </trkpt>
      <trkpt lat="42.406076" lon="2.134605">
        <ele>2381.01</ele>
        <time>2016-05-28T11:28:30Z</time>
      </trkpt>
      <trkpt lat="42.406153" lon="2.134685">
        <ele>2378.07</ele>
        <time>2016-05-28T11:28:37Z</time>
      </trkpt>
      <trkpt lat="42.406224" lon="2.134775">
        <ele>2374.01</ele>
        <time>2016-05-28T11:28:45Z</time>
      </trkpt>
      <trkpt lat="42.406256" lon="2.134897">
        <ele>2372.02</ele>
        <time>2016-05-28T11:28:52Z</time>
      </trkpt>
      <trkpt lat="42.406316" lon="2.134999">
        <ele>2366.05</ele>
        <time>2016-05-28T11:29:04Z</time>
      </trkpt>
      <trkpt lat="42.406235" lon="2.135064">
        <ele>2365.08</ele>
        <time>2016-05-28T11:29:10Z</time>
      </trkpt>
      <trkpt lat="42.406137" lon="2.135076">
        <ele>2363.04</ele>
        <time>2016-05-28T11:29:16Z</time>
      </trkpt>
      <trkpt lat="42.406043" lon="2.135143">
        <ele>2360.09</ele>
        <time>2016-05-28T11:29:22Z</time>
      </trkpt>
      <trkpt lat="42.405969" lon="2.135226">
        <ele>2358.06</ele>
        <time>2016-05-28T11:29:28Z</time>
      </trkpt>
      <trkpt lat="42.405915" lon="2.135327">
        <ele>2357.01</ele>
        <time>2016-05-28T11:29:35Z</time>
      </trkpt>
      <trkpt lat="42.405861" lon="2.135434">
        <ele>2355.05</ele>
        <time>2016-05-28T11:29:42Z</time>
      </trkpt>
      <trkpt lat="42.405967" lon="2.135430">
        <ele>2352.01</ele>
        <time>2016-05-28T11:29:49Z</time>
      </trkpt>
      <trkpt lat="42.406069" lon="2.135464">
        <ele>2348.01</ele>
        <time>2016-05-28T11:29:57Z</time>
      </trkpt>
      <trkpt lat="42.406150" lon="2.135544">
        <ele>2345.02</ele>
        <time>2016-05-28T11:30:02Z</time>
      </trkpt>
      <trkpt lat="42.406096" lon="2.135655">
        <ele>2342.08</ele>
        <time>2016-05-28T11:30:10Z</time>
      </trkpt>
      <trkpt lat="42.406003" lon="2.135762">
        <ele>2340.09</ele>
        <time>2016-05-28T11:30:15Z</time>
      </trkpt>
      <trkpt lat="42.405915" lon="2.135839">
        <ele>2337.05</ele>
        <time>2016-05-28T11:30:19Z</time>
      </trkpt>
      <trkpt lat="42.405847" lon="2.135946">
        <ele>2336.06</ele>
        <time>2016-05-28T11:30:24Z</time>
      </trkpt>
      <trkpt lat="42.405943" lon="2.136000">
        <ele>2331.08</ele>
        <time>2016-05-28T11:30:37Z</time>
      </trkpt>
      <trkpt lat="42.406039" lon="2.136032">
        <ele>2329.03</ele>
        <time>2016-05-28T11:30:42Z</time>
      </trkpt>
      <trkpt lat="42.406128" lon="2.136096">
        <ele>2325.04</ele>
        <time>2016-05-28T11:30:51Z</time>
      </trkpt>
      <trkpt lat="42.406148" lon="2.136216">
        <ele>2322.04</ele>
        <time>2016-05-28T11:30:56Z</time>
      </trkpt>
      <trkpt lat="42.406191" lon="2.136344">
        <ele>2318.02</ele>
        <time>2016-05-28T11:31:03Z</time>
      </trkpt>
      <trkpt lat="42.406220" lon="2.136464">
        <ele>2316.01</ele>
        <time>2016-05-28T11:31:08Z</time>
      </trkpt>
      <trkpt lat="42.406241" lon="2.136601">
        <ele>2312.01</ele>
        <time>2016-05-28T11:31:16Z</time>
      </trkpt>
      <trkpt lat="42.406150" lon="2.136587">
        <ele>2307.09</ele>
        <time>2016-05-28T11:31:25Z</time>
      </trkpt>
      <trkpt lat="42.406058" lon="2.136567">
        <ele>2303.03</ele>
        <time>2016-05-28T11:31:30Z</time>
      </trkpt>
      <trkpt lat="42.405938" lon="2.136612">
        <ele>2299.06</ele>
        <time>2016-05-28T11:31:36Z</time>
      </trkpt>
      <trkpt lat="42.405848" lon="2.136648">
        <ele>2297.04</ele>
        <time>2016-05-28T11:31:40Z</time>
      </trkpt>
      <trkpt lat="42.405840" lon="2.136786">
        <ele>2293.05</ele>
        <time>2016-05-28T11:31:51Z</time>
      </trkpt>
      <trkpt lat="42.405905" lon="2.136888">
        <ele>2292.02</ele>
        <time>2016-05-28T11:31:54Z</time>
      </trkpt>
      <trkpt lat="42.405973" lon="2.136972">
        <ele>2289.01</ele>
        <time>2016-05-28T11:31:58Z</time>
      </trkpt>
      <trkpt lat="42.406019" lon="2.137088">
        <ele>2286.09</ele>
        <time>2016-05-28T11:32:06Z</time>
      </trkpt>
      <trkpt lat="42.406064" lon="2.137200">
        <ele>2283.09</ele>
        <time>2016-05-28T11:32:11Z</time>
      </trkpt>
      <trkpt lat="42.406094" lon="2.137330">
        <ele>2281.08</ele>
        <time>2016-05-28T11:32:16Z</time>
      </trkpt>
      <trkpt lat="42.405994" lon="2.137345">
        <ele>2274.02</ele>
        <time>2016-05-28T11:32:27Z</time>
      </trkpt>
      <trkpt lat="42.405879" lon="2.137308">
        <ele>2272.01</ele>
        <time>2016-05-28T11:32:31Z</time>
      </trkpt>
      <trkpt lat="42.405773" lon="2.137306">
        <ele>2269.08</ele>
        <time>2016-05-28T11:32:38Z</time>
      </trkpt>
      <trkpt lat="42.405698" lon="2.137382">
        <ele>2265.06</ele>
        <time>2016-05-28T11:32:48Z</time>
      </trkpt>
      <trkpt lat="42.405607" lon="2.137404">
        <ele>2260.08</ele>
        <time>2016-05-28T11:33:00Z</time>
      </trkpt>
      <trkpt lat="42.405516" lon="2.137430">
        <ele>2256.06</ele>
        <time>2016-05-28T11:33:08Z</time>
      </trkpt>
      <trkpt lat="42.405410" lon="2.137415">
        <ele>2252.08</ele>
        <time>2016-05-28T11:33:14Z</time>
      </trkpt>
      <trkpt lat="42.405301" lon="2.137421">
        <ele>2250.05</ele>
        <time>2016-05-28T11:33:18Z</time>
      </trkpt>
      <trkpt lat="42.405203" lon="2.137374">
        <ele>2248.09</ele>
        <time>2016-05-28T11:33:24Z</time>
      </trkpt>
      <trkpt lat="42.405113" lon="2.137344">
        <ele>2247.07</ele>
        <time>2016-05-28T11:33:27Z</time>
      </trkpt>
      <trkpt lat="42.405024" lon="2.137319">
        <ele>2244.06</ele>
        <time>2016-05-28T11:33:32Z</time>
      </trkpt>
      <trkpt lat="42.404920" lon="2.137288">
        <ele>2242.06</ele>
        <time>2016-05-28T11:33:36Z</time>
      </trkpt>
      <trkpt lat="42.404825" lon="2.137279">
        <ele>2239.01</ele>
        <time>2016-05-28T11:33:41Z</time>
      </trkpt>
      <trkpt lat="42.404731" lon="2.137287">
        <ele>2237.01</ele>
        <time>2016-05-28T11:33:48Z</time>
      </trkpt>
      <trkpt lat="42.404623" lon="2.137288">
        <ele>2234.10</ele>
        <time>2016-05-28T11:33:55Z</time>
      </trkpt>
      <trkpt lat="42.404517" lon="2.137294">
        <ele>2233.08</ele>
        <time>2016-05-28T11:33:58Z</time>
      </trkpt>
      <trkpt lat="42.404409" lon="2.137313">
        <ele>2231.10</ele>
        <time>2016-05-28T11:34:01Z</time>
      </trkpt>
      <trkpt lat="42.404314" lon="2.137337">
        <ele>2230.08</ele>
        <time>2016-05-28T11:34:05Z</time>
      </trkpt>
      <trkpt lat="42.404209" lon="2.137312">
        <ele>2227.04</ele>
        <time>2016-05-28T11:34:10Z</time>
      </trkpt>
      <trkpt lat="42.404133" lon="2.137242">
        <ele>2225.08</ele>
        <time>2016-05-28T11:34:16Z</time>
      </trkpt>
      <trkpt lat="42.404171" lon="2.137401">
        <ele>2221.03</ele>
        <time>2016-05-28T11:34:40Z</time>
      </trkpt>
      <trkpt lat="42.404134" lon="2.137524">
        <ele>2222.04</ele>
        <time>2016-05-28T11:34:46Z</time>
      </trkpt>
      <trkpt lat="42.404132" lon="2.137663">
        <ele>2218.04</ele>
        <time>2016-05-28T11:35:05Z</time>
      </trkpt>
      <trkpt lat="42.404102" lon="2.137800">
        <ele>2215.06</ele>
        <time>2016-05-28T11:35:10Z</time>
      </trkpt>
      <trkpt lat="42.404077" lon="2.137927">
        <ele>2210.01</ele>
        <time>2016-05-28T11:35:15Z</time>
      </trkpt>
      <trkpt lat="42.404104" lon="2.138071">
        <ele>2209.01</ele>
        <time>2016-05-28T11:35:21Z</time>
      </trkpt>
      <trkpt lat="42.404102" lon="2.138201">
        <ele>2206.09</ele>
        <time>2016-05-28T11:35:25Z</time>
      </trkpt>
      <trkpt lat="42.404148" lon="2.138336">
        <ele>2203.04</ele>
        <time>2016-05-28T11:35:31Z</time>
      </trkpt>
      <trkpt lat="42.404153" lon="2.138477">
        <ele>2200.03</ele>
        <time>2016-05-28T11:35:38Z</time>
      </trkpt>
      <trkpt lat="42.404156" lon="2.138611">
        <ele>2197.03</ele>
        <time>2016-05-28T11:35:45Z</time>
      </trkpt>
      <trkpt lat="42.404143" lon="2.138741">
        <ele>2195.09</ele>
        <time>2016-05-28T11:35:50Z</time>
      </trkpt>
      <trkpt lat="42.404125" lon="2.138872">
        <ele>2193.08</ele>
        <time>2016-05-28T11:35:53Z</time>
      </trkpt>
      <trkpt lat="42.404100" lon="2.139000">
        <ele>2192.03</ele>
        <time>2016-05-28T11:35:55Z</time>
      </trkpt>
      <trkpt lat="42.404054" lon="2.139114">
        <ele>2191.03</ele>
        <time>2016-05-28T11:36:01Z</time>
      </trkpt>
      <trkpt lat="42.404041" lon="2.139251">
        <ele>2189.09</ele>
        <time>2016-05-28T11:36:11Z</time>
      </trkpt>
      <trkpt lat="42.404038" lon="2.139381">
        <ele>2188.06</ele>
        <time>2016-05-28T11:36:15Z</time>
      </trkpt>
      <trkpt lat="42.404003" lon="2.139552">
        <ele>2186.02</ele>
        <time>2016-05-28T11:36:19Z</time>
      </trkpt>
      <trkpt lat="42.403949" lon="2.139714">
        <ele>2186.01</ele>
        <time>2016-05-28T11:36:24Z</time>
      </trkpt>
      <trkpt lat="42.403913" lon="2.139842">
        <ele>2184.02</ele>
        <time>2016-05-28T11:36:28Z</time>
      </trkpt>
      <trkpt lat="42.403847" lon="2.139944">
        <ele>2183.09</ele>
        <time>2016-05-28T11:36:33Z</time>
      </trkpt>
      <trkpt lat="42.403762" lon="2.140027">
        <ele>2182.07</ele>
        <time>2016-05-28T11:36:37Z</time>
      </trkpt>
      <trkpt lat="42.403666" lon="2.140092">
        <ele>2181.09</ele>
        <time>2016-05-28T11:36:42Z</time>
      </trkpt>
      <trkpt lat="42.403571" lon="2.140179">
        <ele>2178.03</ele>
        <time>2016-05-28T11:36:46Z</time>
      </trkpt>
      <trkpt lat="42.403496" lon="2.140322">
        <ele>2177.02</ele>
        <time>2016-05-28T11:36:52Z</time>
      </trkpt>
      <trkpt lat="42.403408" lon="2.140401">
        <ele>2176.10</ele>
        <time>2016-05-28T11:36:58Z</time>
      </trkpt>
      <trkpt lat="42.403322" lon="2.140488">
        <ele>2173.07</ele>
        <time>2016-05-28T11:37:04Z</time>
      </trkpt>
      <trkpt lat="42.403284" lon="2.140606">
        <ele>2172.08</ele>
        <time>2016-05-28T11:37:09Z</time>
      </trkpt>
      <trkpt lat="42.403218" lon="2.140723">
        <ele>2171.03</ele>
        <time>2016-05-28T11:37:13Z</time>
      </trkpt>
      <trkpt lat="42.403160" lon="2.140840">
        <ele>2171.02</ele>
        <time>2016-05-28T11:37:18Z</time>
      </trkpt>
      <trkpt lat="42.403118" lon="2.140969">
        <ele>2169.01</ele>
        <time>2016-05-28T11:37:22Z</time>
      </trkpt>
      <trkpt lat="42.403098" lon="2.141096">
        <ele>2168.03</ele>
        <time>2016-05-28T11:37:27Z</time>
      </trkpt>
      <trkpt lat="42.403073" lon="2.141246">
        <ele>2164.09</ele>
        <time>2016-05-28T11:37:31Z</time>
      </trkpt>
      <trkpt lat="42.403035" lon="2.141374">
        <ele>2162.04</ele>
        <time>2016-05-28T11:37:36Z</time>
      </trkpt>
      <trkpt lat="42.402978" lon="2.141486">
        <ele>2160.03</ele>
        <time>2016-05-28T11:37:39Z</time>
      </trkpt>
      <trkpt lat="42.402885" lon="2.141553">
        <ele>2160.01</ele>
        <time>2016-05-28T11:37:44Z</time>
      </trkpt>
      <trkpt lat="42.402785" lon="2.141676">
        <ele>2157.02</ele>
        <time>2016-05-28T11:37:49Z</time>
      </trkpt>
      <trkpt lat="42.402732" lon="2.141796">
        <ele>2156.05</ele>
        <time>2016-05-28T11:37:54Z</time>
      </trkpt>
      <trkpt lat="42.402691" lon="2.141918">
        <ele>2156.06</ele>
        <time>2016-05-28T11:37:58Z</time>
      </trkpt>
      <trkpt lat="42.402606" lon="2.142030">
        <ele>2154.07</ele>
        <time>2016-05-28T11:38:04Z</time>
      </trkpt>
      <trkpt lat="42.402520" lon="2.142126">
        <ele>2153.04</ele>
        <time>2016-05-28T11:38:09Z</time>
      </trkpt>
      <trkpt lat="42.402451" lon="2.142208">
        <ele>2153.01</ele>
        <time>2016-05-28T11:38:12Z</time>
      </trkpt>
      <trkpt lat="42.402320" lon="2.142246">
        <ele>2154.01</ele>
        <time>2016-05-28T11:38:16Z</time>
      </trkpt>
      <trkpt lat="42.402209" lon="2.142245">
        <ele>2154.09</ele>
        <time>2016-05-28T11:38:21Z</time>
      </trkpt>
      <trkpt lat="42.402109" lon="2.142223">
        <ele>2158.04</ele>
        <time>2016-05-28T11:38:24Z</time>
      </trkpt>
      <trkpt lat="42.402011" lon="2.142217">
        <ele>2154.07</ele>
        <time>2016-05-28T11:38:31Z</time>
      </trkpt>
      <trkpt lat="42.401897" lon="2.142229">
        <ele>2155.08</ele>
        <time>2016-05-28T11:38:37Z</time>
      </trkpt>
      <trkpt lat="42.401801" lon="2.142236">
        <ele>2154.08</ele>
        <time>2016-05-28T11:38:41Z</time>
      </trkpt>
      <trkpt lat="42.401728" lon="2.142328">
        <ele>2152.10</ele>
        <time>2016-05-28T11:38:47Z</time>
      </trkpt>
      <trkpt lat="42.401791" lon="2.142468">
        <ele>2150.04</ele>
        <time>2016-05-28T11:38:52Z</time>
      </trkpt>
      <trkpt lat="42.401876" lon="2.142517">
        <ele>2147.08</ele>
        <time>2016-05-28T11:39:00Z</time>
      </trkpt>
      <trkpt lat="42.401899" lon="2.142644">
        <ele>2138.06</ele>
        <time>2016-05-28T11:39:16Z</time>
      </trkpt>
      <trkpt lat="42.401893" lon="2.142769">
        <ele>2132.05</ele>
        <time>2016-05-28T11:39:29Z</time>
      </trkpt>
      <trkpt lat="42.401857" lon="2.142914">
        <ele>2128.02</ele>
        <time>2016-05-28T11:39:34Z</time>
      </trkpt>
      <trkpt lat="42.401832" lon="2.143034">
        <ele>2125.01</ele>
        <time>2016-05-28T11:39:40Z</time>
      </trkpt>
      <trkpt lat="42.401818" lon="2.143174">
        <ele>2121.07</ele>
        <time>2016-05-28T11:39:46Z</time>
      </trkpt>
      <trkpt lat="42.401811" lon="2.143299">
        <ele>2118.02</ele>
        <time>2016-05-28T11:39:51Z</time>
      </trkpt>
      <trkpt lat="42.401799" lon="2.143451">
        <ele>2114.03</ele>
        <time>2016-05-28T11:39:57Z</time>
      </trkpt>
      <trkpt lat="42.401827" lon="2.143574">
        <ele>2112.07</ele>
        <time>2016-05-28T11:40:01Z</time>
      </trkpt>
      <trkpt lat="42.401856" lon="2.143705">
        <ele>2110.04</ele>
        <time>2016-05-28T11:40:06Z</time>
      </trkpt>
      <trkpt lat="42.401867" lon="2.143863">
        <ele>2105.03</ele>
        <time>2016-05-28T11:40:12Z</time>
      </trkpt>
      <trkpt lat="42.401925" lon="2.143993">
        <ele>2102.06</ele>
        <time>2016-05-28T11:40:19Z</time>
      </trkpt>
      <trkpt lat="42.401961" lon="2.144112">
        <ele>2100.04</ele>
        <time>2016-05-28T11:40:24Z</time>
      </trkpt>
      <trkpt lat="42.401932" lon="2.144246">
        <ele>2096.06</ele>
        <time>2016-05-28T11:40:33Z</time>
      </trkpt>
      <trkpt lat="42.401898" lon="2.144373">
        <ele>2095.00</ele>
        <time>2016-05-28T11:40:39Z</time>
      </trkpt>
      <trkpt lat="42.401871" lon="2.144492">
        <ele>2091.02</ele>
        <time>2016-05-28T11:40:46Z</time>
      </trkpt>
      <trkpt lat="42.401819" lon="2.144605">
        <ele>2088.01</ele>
        <time>2016-05-28T11:40:54Z</time>
      </trkpt>
      <trkpt lat="42.401752" lon="2.144697">
        <ele>2085.10</ele>
        <time>2016-05-28T11:41:03Z</time>
      </trkpt>
      <trkpt lat="42.401651" lon="2.144699">
        <ele>2082.05</ele>
        <time>2016-05-28T11:41:08Z</time>
      </trkpt>
      <trkpt lat="42.401561" lon="2.144713">
        <ele>2081.03</ele>
        <time>2016-05-28T11:41:14Z</time>
      </trkpt>
      <trkpt lat="42.401468" lon="2.144698">
        <ele>2080.01</ele>
        <time>2016-05-28T11:41:21Z</time>
      </trkpt>
      <trkpt lat="42.401384" lon="2.144760">
        <ele>2080.03</ele>
        <time>2016-05-28T11:41:29Z</time>
      </trkpt>
      <trkpt lat="42.401336" lon="2.144884">
        <ele>2081.03</ele>
        <time>2016-05-28T11:41:34Z</time>
      </trkpt>
      <trkpt lat="42.401317" lon="2.145024">
        <ele>2080.05</ele>
        <time>2016-05-28T11:41:41Z</time>
      </trkpt>
      <trkpt lat="42.401271" lon="2.145152">
        <ele>2079.07</ele>
        <time>2016-05-28T11:41:46Z</time>
      </trkpt>
      <trkpt lat="42.401236" lon="2.145283">
        <ele>2076.08</ele>
        <time>2016-05-28T11:41:53Z</time>
      </trkpt>
      <trkpt lat="42.401185" lon="2.145385">
        <ele>2072.06</ele>
        <time>2016-05-28T11:41:59Z</time>
      </trkpt>
      <trkpt lat="42.401140" lon="2.145517">
        <ele>2070.03</ele>
        <time>2016-05-28T11:42:05Z</time>
      </trkpt>
      <trkpt lat="42.401100" lon="2.145632">
        <ele>2065.01</ele>
        <time>2016-05-28T11:42:21Z</time>
      </trkpt>
      <trkpt lat="42.401014" lon="2.145720">
        <ele>2062.08</ele>
        <time>2016-05-28T11:42:27Z</time>
      </trkpt>
      <trkpt lat="42.400943" lon="2.145800">
        <ele>2060.08</ele>
        <time>2016-05-28T11:42:31Z</time>
      </trkpt>
      <trkpt lat="42.400861" lon="2.145910">
        <ele>2060.02</ele>
        <time>2016-05-28T11:42:34Z</time>
      </trkpt>
      <trkpt lat="42.400792" lon="2.146000">
        <ele>2057.09</ele>
        <time>2016-05-28T11:42:39Z</time>
      </trkpt>
      <trkpt lat="42.400735" lon="2.146098">
        <ele>2057.02</ele>
        <time>2016-05-28T11:42:43Z</time>
      </trkpt>
      <trkpt lat="42.400670" lon="2.146200">
        <ele>2055.08</ele>
        <time>2016-05-28T11:42:51Z</time>
      </trkpt>
      <trkpt lat="42.400583" lon="2.146300">
        <ele>2052.06</ele>
        <time>2016-05-28T11:42:55Z</time>
      </trkpt>
      <trkpt lat="42.400505" lon="2.146386">
        <ele>2050.09</ele>
        <time>2016-05-28T11:43:00Z</time>
      </trkpt>
      <trkpt lat="42.400456" lon="2.146508">
        <ele>2049.09</ele>
        <time>2016-05-28T11:43:07Z</time>
      </trkpt>
      <trkpt lat="42.400397" lon="2.146633">
        <ele>2047.06</ele>
        <time>2016-05-28T11:43:15Z</time>
      </trkpt>
      <trkpt lat="42.400365" lon="2.146773">
        <ele>2044.02</ele>
        <time>2016-05-28T11:43:24Z</time>
      </trkpt>
      <trkpt lat="42.400340" lon="2.146897">
        <ele>2041.01</ele>
        <time>2016-05-28T11:43:35Z</time>
      </trkpt>
      <trkpt lat="42.400405" lon="2.146985">
        <ele>2040.09</ele>
        <time>2016-05-28T11:43:41Z</time>
      </trkpt>
      <trkpt lat="42.400408" lon="2.147115">
        <ele>2037.03</ele>
        <time>2016-05-28T11:43:49Z</time>
      </trkpt>
      <trkpt lat="42.400411" lon="2.147237">
        <ele>2035.03</ele>
        <time>2016-05-28T11:43:56Z</time>
      </trkpt>
      <trkpt lat="42.400464" lon="2.147367">
        <ele>2032.05</ele>
        <time>2016-05-28T11:44:01Z</time>
      </trkpt>
      <trkpt lat="42.400470" lon="2.147490">
        <ele>2032.09</ele>
        <time>2016-05-28T11:44:05Z</time>
      </trkpt>
      <trkpt lat="42.400424" lon="2.147615">
        <ele>2030.10</ele>
        <time>2016-05-28T11:44:18Z</time>
      </trkpt>
      <trkpt lat="42.400326" lon="2.147695">
        <ele>2029.09</ele>
        <time>2016-05-28T11:44:25Z</time>
      </trkpt>
      <trkpt lat="42.400240" lon="2.147765">
        <ele>2027.01</ele>
        <time>2016-05-28T11:44:32Z</time>
      </trkpt>
      <trkpt lat="42.400156" lon="2.147849">
        <ele>2026.07</ele>
        <time>2016-05-28T11:44:38Z</time>
      </trkpt>
      <trkpt lat="42.400074" lon="2.147941">
        <ele>2025.03</ele>
        <time>2016-05-28T11:44:42Z</time>
      </trkpt>
      <trkpt lat="42.400011" lon="2.148041">
        <ele>2024.02</ele>
        <time>2016-05-28T11:44:46Z</time>
      </trkpt>
      <trkpt lat="42.399935" lon="2.148148">
        <ele>2022.01</ele>
        <time>2016-05-28T11:44:50Z</time>
      </trkpt>
      <trkpt lat="42.399859" lon="2.148238">
        <ele>2022.10</ele>
        <time>2016-05-28T11:44:54Z</time>
      </trkpt>
      <trkpt lat="42.399778" lon="2.148392">
        <ele>2022.03</ele>
        <time>2016-05-28T11:44:58Z</time>
      </trkpt>
      <trkpt lat="42.399737" lon="2.148527">
        <ele>2020.03</ele>
        <time>2016-05-28T11:45:03Z</time>
      </trkpt>
      <trkpt lat="42.399691" lon="2.148663">
        <ele>2019.05</ele>
        <time>2016-05-28T11:45:07Z</time>
      </trkpt>
      <trkpt lat="42.399637" lon="2.148799">
        <ele>2017.02</ele>
        <time>2016-05-28T11:45:11Z</time>
      </trkpt>
      <trkpt lat="42.399602" lon="2.148946">
        <ele>2015.06</ele>
        <time>2016-05-28T11:45:15Z</time>
      </trkpt>
      <trkpt lat="42.399559" lon="2.149083">
        <ele>2015.07</ele>
        <time>2016-05-28T11:45:19Z</time>
      </trkpt>
      <trkpt lat="42.399519" lon="2.149211">
        <ele>2014.08</ele>
        <time>2016-05-28T11:45:23Z</time>
      </trkpt>
      <trkpt lat="42.399471" lon="2.149343">
        <ele>2013.10</ele>
        <time>2016-05-28T11:45:28Z</time>
      </trkpt>
      <trkpt lat="42.399419" lon="2.149451">
        <ele>2013.01</ele>
        <time>2016-05-28T11:45:32Z</time>
      </trkpt>
      <trkpt lat="42.399368" lon="2.149560">
        <ele>2012.03</ele>
        <time>2016-05-28T11:45:36Z</time>
      </trkpt>
      <trkpt lat="42.399323" lon="2.149666">
        <ele>2012.01</ele>
        <time>2016-05-28T11:45:39Z</time>
      </trkpt>
      <trkpt lat="42.399269" lon="2.149792">
        <ele>2010.07</ele>
        <time>2016-05-28T11:45:43Z</time>
      </trkpt>
      <trkpt lat="42.399226" lon="2.149916">
        <ele>2009.01</ele>
        <time>2016-05-28T11:45:47Z</time>
      </trkpt>
      <trkpt lat="42.399187" lon="2.150053">
        <ele>2009.09</ele>
        <time>2016-05-28T11:45:51Z</time>
      </trkpt>
      <trkpt lat="42.399166" lon="2.150178">
        <ele>2008.06</ele>
        <time>2016-05-28T11:45:55Z</time>
      </trkpt>
      <trkpt lat="42.399116" lon="2.150307">
        <ele>2008.01</ele>
        <time>2016-05-28T11:45:59Z</time>
      </trkpt>
      <trkpt lat="42.399050" lon="2.150412">
        <ele>2007.02</ele>
        <time>2016-05-28T11:46:03Z</time>
      </trkpt>
      <trkpt lat="42.399003" lon="2.150553">
        <ele>2006.06</ele>
        <time>2016-05-28T11:46:07Z</time>
      </trkpt>
      <trkpt lat="42.398970" lon="2.150670">
        <ele>2004.04</ele>
        <time>2016-05-28T11:46:11Z</time>
      </trkpt>
      <trkpt lat="42.398934" lon="2.150816">
        <ele>2003.02</ele>
        <time>2016-05-28T11:46:15Z</time>
      </trkpt>
      <trkpt lat="42.398905" lon="2.150934">
        <ele>2003.10</ele>
        <time>2016-05-28T11:46:18Z</time>
      </trkpt>
      <trkpt lat="42.398869" lon="2.151052">
        <ele>2002.02</ele>
        <time>2016-05-28T11:46:21Z</time>
      </trkpt>
      <trkpt lat="42.398817" lon="2.151193">
        <ele>2002.01</ele>
        <time>2016-05-28T11:46:25Z</time>
      </trkpt>
      <trkpt lat="42.398757" lon="2.151323">
        <ele>2001.09</ele>
        <time>2016-05-28T11:46:29Z</time>
      </trkpt>
      <trkpt lat="42.398714" lon="2.151440">
        <ele>2001.05</ele>
        <time>2016-05-28T11:46:32Z</time>
      </trkpt>
      <trkpt lat="42.398675" lon="2.151556">
        <ele>1999.09</ele>
        <time>2016-05-28T11:46:35Z</time>
      </trkpt>
      <trkpt lat="42.398623" lon="2.151696">
        <ele>1999.08</ele>
        <time>2016-05-28T11:46:39Z</time>
      </trkpt>
      <trkpt lat="42.398579" lon="2.151841">
        <ele>1998.03</ele>
        <time>2016-05-28T11:46:43Z</time>
      </trkpt>
      <trkpt lat="42.398532" lon="2.151952">
        <ele>1996.03</ele>
        <time>2016-05-28T11:46:46Z</time>
      </trkpt>
      <trkpt lat="42.398469" lon="2.152044">
        <ele>1995.09</ele>
        <time>2016-05-28T11:46:50Z</time>
      </trkpt>
      <trkpt lat="42.398412" lon="2.152156">
        <ele>1995.07</ele>
        <time>2016-05-28T11:46:54Z</time>
      </trkpt>
      <trkpt lat="42.398330" lon="2.152256">
        <ele>1994.09</ele>
        <time>2016-05-28T11:46:58Z</time>
      </trkpt>
      <trkpt lat="42.398239" lon="2.152264">
        <ele>1993.06</ele>
        <time>2016-05-28T11:47:04Z</time>
      </trkpt>
      <trkpt lat="42.398145" lon="2.152299">
        <ele>1992.02</ele>
        <time>2016-05-28T11:47:11Z</time>
      </trkpt>
      <trkpt lat="42.398077" lon="2.152380">
        <ele>1992.01</ele>
        <time>2016-05-28T11:47:18Z</time>
      </trkpt>
      <trkpt lat="42.398029" lon="2.152488">
        <ele>1991.06</ele>
        <time>2016-05-28T11:47:25Z</time>
      </trkpt>
      <trkpt lat="42.398022" lon="2.152614">
        <ele>1991.02</ele>
        <time>2016-05-28T11:47:41Z</time>
      </trkpt>
      <trkpt lat="42.397873" lon="2.152581">
        <ele>1989.04</ele>
        <time>2016-05-28T11:47:52Z</time>
      </trkpt>
      <trkpt lat="42.397772" lon="2.152624">
        <ele>1989.02</ele>
        <time>2016-05-28T11:48:00Z</time>
      </trkpt>
      <trkpt lat="42.397570" lon="2.152624">
        <ele>1989.05</ele>
        <time>2016-05-28T11:48:08Z</time>
      </trkpt>
      <trkpt lat="42.396958" lon="2.152479">
        <ele>1988.06</ele>
        <time>2016-05-28T11:48:18Z</time>
      </trkpt>
      <trkpt lat="42.396724" lon="2.152718">
        <ele>1988.08</ele>
        <time>2016-05-28T11:48:33Z</time>
      </trkpt>
      <trkpt lat="42.396453" lon="2.152445">
        <ele>1960.02</ele>
        <time>2016-05-28T12:01:17Z</time>
      </trkpt>
    </trkseg>
  </trk>
</gpx>
